GFSCGP_500_spd_000.txt.gz
Wind_Speed
6 4 4 5 10 9 9 11 11 13 12 10 13 14 11 14 15 15 16 18 19 22 23 24 27 29 32 34 37 41 43 44 44 45 48 49 51 52 53 55 57 56 55 57
6 8 10 10 9 11 9 11 13 16 17 13 14 16 17 16 14 19 23 25 26 27 27 28 28 34 35 34 37 40 44 46 48 49 52 55 55 55 56 57 58 60 60 60
7 8 10 10 10 12 14 13 14 13 14 21 19 19 19 18 17 19 20 20 23 24 30 31 28 28 29 33 33 34 37 44 49 52 54 55 57 56 56 59 59 59 60 61
9 10 12 15 13 12 14 16 16 14 13 17 19 19 20 20 19 23 26 23 24 26 29 30 31 32 32 32 34 35 38 43 47 49 51 56 58 60 61 60 59 60 61 61
12 12 15 18 17 14 13 15 16 16 18 17 19 18 19 24 27 28 32 33 33 34 32 33 37 39 40 42 45 46 48 48 52 53 53 57 57 55 56 57 58 59 59 57
15 14 16 19 21 17 15 13 17 19 20 20 23 23 25 31 32 34 35 38 42 37 39 43 46 49 48 51 48 47 49 52 54 57 58 55 57 59 61 60 59 60 61 64
18 16 18 18 20 18 14 14 18 22 21 23 25 22 30 32 34 36 35 42 39 38 42 46 51 50 55 54 52 53 54 57 58 60 61 61 59 61 60 61 62 66 68 69
19 17 17 18 16 14 16 17 18 23 25 22 22 22 27 31 33 33 38 40 43 44 47 49 51 54 54 57 60 59 59 60 61 61 61 62 62 61 61 63 67 67 69 71
14 17 16 17 14 15 18 20 24 27 30 29 23 16 26 24 26 34 35 42 45 44 44 47 51 51 54 57 58 59 57 56 58 60 62 62 63 64 66 68 70 69 70 70
10 12 14 15 16 18 22 24 31 32 32 33 32 22 26 24 31 29 42 46 45 47 47 49 52 56 53 53 53 53 57 59 62 64 65 66 68 70 71 72 74 75 76 76
10 12 18 20 21 24 24 26 30 34 33 35 40 32 28 32 38 42 46 45 48 45 48 53 54 53 55 56 55 57 59 61 63 65 67 69 71 72 74 77 79 79 79 76
15 17 21 24 26 27 24 24 29 37 38 36 43 43 35 39 40 45 44 45 45 48 51 52 51 52 54 56 60 60 61 65 68 68 68 70 73 76 79 79 80 79 76 70
22 22 21 28 31 32 26 23 31 38 41 42 47 46 39 40 44 45 47 46 49 50 48 55 53 52 59 63 61 63 66 67 69 72 75 75 76 77 76 79 78 73 66 60
25 25 26 26 31 36 29 25 31 39 42 47 44 50 41 48 46 48 49 50 48 48 55 58 56 57 65 63 66 69 72 74 75 75 77 77 78 78 78 76 72 62 56 52
27 27 27 26 31 36 33 35 37 39 36 41 37 39 41 45 47 48 46 50 55 53 54 58 58 62 66 68 72 77 80 79 79 79 79 80 81 79 76 72 64 54 48 48
31 32 37 30 37 41 36 35 37 37 36 40 42 44 44 44 45 49 48 54 53 54 53 62 67 65 67 74 80 81 79 79 81 82 84 84 82 75 70 62 54 49 49 47
33 38 41 41 38 40 30 32 35 37 37 42 43 41 39 42 49 50 52 53 52 51 58 66 67 69 75 78 79 80 82 82 83 86 87 84 77 64 52 49 48 48 47 47
37 40 42 43 41 44 27 38 40 45 44 43 43 45 49 51 53 54 53 57 54 57 60 66 71 74 74 78 80 83 83 85 87 89 85 77 64 55 48 45 45 46 46 45
37 38 38 39 45 49 36 44 48 53 52 50 47 52 52 52 53 53 55 55 59 65 74 76 76 76 78 83 84 85 86 90 95 91 81 65 53 48 45 43 43 43 45 50
33 35 37 40 47 52 42 48 52 56 56 55 58 59 58 57 59 60 60 65 71 74 79 80 81 81 83 89 90 90 93 98 98 84 65 54 49 46 46 45 45 47 51 51
35 36 36 41 45 50 45 50 51 55 61 63 63 62 62 62 62 64 70 73 72 71 78 82 82 82 87 92 89 92 92 94 82 62 54 51 49 47 46 46 49 52 53 52
38 41 42 47 52 53 52 52 52 58 61 62 62 63 63 64 66 69 72 68 75 77 77 80 82 82 83 82 89 93 90 75 60 53 53 51 48 46 47 51 54 54 53 53
43 41 47 47 53 48 49 54 58 59 62 64 63 63 65 67 70 72 71 69 80 79 81 83 84 85 89 92 87 84 64 56 52 54 52 49 48 50 54 56 56 56 56 53
49 48 48 55 49 54 57 57 58 61 63 63 65 66 67 68 70 61 70 75 85 83 83 85 88 86 88 87 85 61 53 52 54 53 50 50 53 56 57 58 58 57 55 52
51 53 56 59 55 62 60 62 64 64 65 68 69 62 60 75 76 75 74 80 82 83 81 84 87 91 91 78 58 50 52 53 52 50 52 55 57 58 59 59 57 55 52 49
52 57 58 59 57 65 64 68 65 67 69 66 69 67 77 80 77 78 76 76 79 81 86 87 84 83 67 52 47 51 52 50 50 54 56 58 59 60 58 54 50 49 46 44

GFSCGP_500_spd_003.txt.gz
Wind_Speed
4 4 3 4 6 5 5 7 9 11 8 10 10 10 12 13 16 17 18 20 21 22 24 26 25 25 27 31 32 34 36 39 43 45 47 48 50 51 53 55 56 56 58 60
4 5 5 5 7 8 7 8 9 13 14 10 12 15 14 16 17 21 23 23 21 23 24 25 27 29 30 31 31 32 34 39 44 46 48 49 51 52 53 55 59 62 64 64
7 8 8 9 9 11 9 10 11 10 15 12 11 14 17 19 19 21 22 25 28 27 28 30 29 26 29 30 33 36 40 44 48 49 52 52 52 55 55 56 58 60 62 62
10 10 12 12 11 11 13 14 13 12 12 12 13 15 20 20 21 23 26 27 28 28 26 28 26 30 32 33 38 41 44 49 51 51 52 54 56 57 57 59 60 60 60 61
12 14 15 17 17 13 14 16 15 13 14 15 15 20 24 24 26 27 27 29 30 27 29 30 30 34 36 41 43 47 52 54 53 54 56 59 60 59 57 57 57 58 59 59
15 17 18 21 22 18 16 16 14 14 16 19 20 23 26 28 30 30 32 34 33 32 32 34 40 39 41 47 49 52 54 57 59 59 60 59 58 58 59 61 62 62 63 64
18 18 20 23 24 23 21 16 16 18 18 21 24 27 29 31 33 31 33 35 37 39 38 42 41 46 48 52 55 56 58 58 57 57 56 56 57 59 61 63 65 67 69 69
20 19 20 21 20 21 18 15 17 21 23 23 27 29 27 32 38 38 40 40 41 44 45 47 48 49 51 54 55 57 56 57 57 58 59 61 63 64 67 70 71 71 72 74
15 14 15 16 17 18 18 19 22 26 29 29 25 19 24 34 38 43 43 47 49 48 48 49 49 48 53 53 53 55 54 53 57 60 63 64 66 69 71 72 74 76 79 81
10 12 13 13 15 18 20 25 28 30 33 34 31 23 26 32 41 40 46 49 46 45 45 46 48 50 52 52 57 55 57 60 63 65 67 69 70 71 74 77 81 83 84 83
11 14 17 17 18 21 23 27 31 33 34 36 41 33 34 39 43 43 41 39 40 42 45 47 48 49 51 57 59 59 61 64 67 69 69 71 76 80 78 78 78 77 79 79
15 18 20 22 22 21 25 28 32 36 36 35 41 41 37 43 42 37 38 41 43 46 45 43 48 53 57 59 60 61 63 66 68 70 74 80 80 82 81 82 81 80 76 72
20 21 23 25 25 22 23 28 34 38 40 40 42 38 38 39 41 42 44 45 45 45 50 52 55 59 58 62 65 67 73 74 75 78 82 83 83 82 83 80 81 74 70 65
23 23 24 26 29 25 22 27 35 39 40 43 34 39 37 41 42 42 41 44 50 52 54 56 57 59 59 58 64 70 74 77 80 83 84 85 86 87 86 88 88 76 64 53
25 24 25 27 30 33 28 31 32 35 33 38 34 35 39 42 41 43 46 52 55 54 56 56 59 60 60 60 65 73 77 78 81 84 86 87 93 89 86 86 81 64 51 46
29 31 33 28 37 40 31 30 37 35 32 38 41 44 45 43 45 46 48 50 53 57 57 59 60 60 64 69 73 77 82 84 86 86 87 88 86 87 87 84 60 47 45 43
33 39 43 39 36 38 26 31 36 37 37 41 45 44 43 41 44 47 47 52 52 54 59 59 63 69 73 73 75 81 86 89 88 87 84 83 88 88 67 51 46 45 46 48
40 42 44 44 41 40 22 35 41 43 44 43 47 44 44 47 49 49 55 58 57 60 62 65 69 72 73 73 74 84 88 89 92 90 83 88 85 75 52 46 44 44 46 46
38 39 43 42 44 45 30 38 42 45 48 46 51 52 55 54 58 55 59 59 60 63 66 72 73 73 70 73 80 89 91 90 91 88 88 85 73 57 48 47 46 45 44 44
37 39 40 39 45 47 38 46 49 53 54 55 58 58 58 61 66 66 68 69 72 72 73 75 63 73 79 85 89 88 90 91 90 86 79 60 51 50 48 46 45 44 46 49
36 40 39 40 45 46 44 50 51 53 57 58 59 59 59 62 65 68 70 72 72 75 77 80 78 80 86 94 96 92 93 87 82 74 56 52 51 50 47 46 47 50 52 53
36 38 36 42 43 43 46 53 55 58 60 60 59 60 61 64 68 70 72 75 75 73 69 77 90 87 88 89 88 95 88 77 65 55 51 51 49 49 49 52 54 55 55 56
38 36 39 43 44 44 48 56 58 60 61 59 62 64 67 69 72 78 75 74 71 71 79 90 90 91 85 85 93 92 71 59 54 51 52 50 50 53 54 55 57 58 58 57
41 34 42 46 42 47 54 54 58 61 62 63 67 68 70 73 77 75 69 71 83 88 86 88 86 85 88 88 90 64 56 50 51 51 49 51 53 56 58 60 59 56 54 51
42 44 45 53 55 57 55 56 60 64 67 67 69 73 75 76 75 73 71 74 81 89 85 82 84 90 93 87 61 52 49 51 51 49 51 54 57 59 57 54 51 48 45 42
44 49 55 60 59 61 63 65 56 66 69 73 74 77 77 78 78 76 77 79 79 79 80 89 91 88 74 53 46 46 51 48 48 50 54 57 56 52 49 46 44 43 41 40

GFSCGP_500_spd_006.txt.gz
Wind_Speed
1 3 2 4 5 5 5 6 4 4 3 6 6 9 11 14 17 18 18 22 25 25 24 28 28 29 32 34 33 36 39 39 42 45 46 47 51 51 51 52 53 55 57 59
3 1 2 3 5 6 7 9 8 10 8 5 9 12 15 17 19 21 22 24 25 26 26 27 29 29 30 30 32 37 40 43 48 49 49 52 52 52 52 53 52 54 56 57
6 7 7 7 8 10 10 9 10 11 14 11 12 15 16 17 18 20 23 25 26 25 26 29 29 29 32 33 36 40 43 46 52 52 54 56 54 54 54 54 54 55 54 56
9 11 11 12 12 12 14 15 14 15 14 13 16 19 19 21 24 24 27 29 29 29 30 31 29 33 30 36 40 42 44 51 52 54 55 54 53 53 53 54 55 56 57 59
12 14 17 17 16 15 17 18 18 17 16 15 16 20 22 25 27 29 32 33 32 32 32 31 33 35 38 42 44 47 50 50 51 53 53 54 56 57 57 57 59 60 62 64
16 17 19 21 20 19 19 20 19 17 17 17 20 22 24 28 32 35 35 35 34 34 34 36 38 39 43 44 45 49 48 49 53 53 56 58 58 60 61 62 63 64 65 67
20 19 20 21 23 21 21 20 18 17 18 20 23 26 29 32 34 34 35 35 37 36 38 38 39 42 44 46 48 50 51 52 52 57 58 59 61 65 68 69 70 71 71 70
18 19 20 20 19 19 17 15 17 20 21 23 28 31 31 31 35 37 39 40 41 41 43 44 46 47 47 49 51 53 53 55 60 61 62 63 65 67 71 73 72 74 77 80
13 14 15 15 15 16 17 17 19 23 26 27 28 28 32 33 36 38 40 42 43 43 45 46 46 48 50 52 54 57 60 58 62 66 67 65 68 71 76 77 79 82 84 84
12 12 11 12 15 17 19 22 25 28 31 32 31 21 28 36 38 35 38 40 41 42 44 45 45 47 51 54 55 57 61 63 65 69 73 75 78 82 81 83 85 88 89 89
16 16 15 17 19 22 24 26 28 30 31 32 36 29 31 34 35 34 34 36 40 43 45 44 45 49 55 54 60 63 64 66 67 69 70 71 74 80 84 86 88 90 90 88
18 20 21 21 22 24 24 26 30 33 34 34 35 32 34 38 35 35 38 41 44 44 42 46 51 55 59 63 65 67 67 68 70 70 73 76 81 85 89 91 92 91 90 88
20 20 22 22 24 26 27 27 30 36 38 38 38 36 35 38 41 42 46 48 47 47 49 53 57 61 64 66 67 68 69 70 73 78 82 82 83 84 90 94 96 94 89 83
22 23 25 27 27 27 27 29 35 40 42 44 36 40 32 38 40 44 44 45 48 50 57 61 62 64 67 69 70 70 72 76 80 83 81 82 82 83 91 97 98 90 79 68
26 27 31 31 32 32 28 32 36 41 41 42 40 40 40 43 46 48 46 49 53 59 61 62 64 66 66 69 71 73 76 80 79 79 80 82 89 98 100 100 89 76 60 44
31 34 35 34 39 40 33 34 39 39 37 38 42 43 44 45 47 47 47 55 56 59 62 62 64 68 69 71 74 75 78 69 71 77 88 93 102 100 95 88 71 55 43 43
41 44 44 40 38 40 30 30 37 39 38 40 43 45 46 46 48 50 51 55 58 62 65 67 66 69 73 74 76 77 77 75 78 87 91 88 88 97 80 65 52 46 44 44
44 47 48 49 44 41 26 32 40 41 42 41 46 48 50 52 52 52 56 60 63 66 69 71 75 80 79 81 79 80 80 82 92 93 87 88 94 81 63 54 49 47 45 44
46 48 48 48 49 47 32 35 40 43 44 45 47 50 53 55 58 58 61 65 70 73 76 80 83 84 84 84 81 80 87 93 92 92 95 92 74 58 52 51 50 47 46 47
46 46 45 45 46 48 37 41 44 47 49 51 52 55 58 60 62 63 67 72 75 78 80 84 83 79 79 83 82 87 88 94 89 93 89 67 55 52 53 51 49 49 52 53
42 40 36 37 42 42 41 44 46 49 53 55 59 62 64 66 68 69 70 73 80 82 83 82 80 79 82 86 87 89 94 91 87 79 60 53 53 55 52 52 54 55 56 57
40 40 36 40 40 38 41 44 48 51 55 59 62 65 68 68 70 73 77 80 82 85 84 80 79 82 84 85 86 91 90 81 68 56 50 54 54 52 55 57 59 59 58 55
35 32 39 41 42 40 46 49 54 57 60 62 64 67 59 68 71 79 81 83 83 82 76 78 78 81 83 83 81 81 74 64 55 50 54 52 53 55 59 60 58 54 51 49
36 35 40 47 43 47 50 52 57 57 62 67 69 71 67 71 76 81 82 82 79 76 76 76 81 81 80 80 75 69 60 52 48 51 50 51 55 59 58 54 51 49 47 45
38 45 48 52 51 55 58 60 61 66 69 71 70 67 73 75 76 77 79 79 77 76 77 78 76 78 75 70 64 58 51 45 47 48 49 54 56 55 49 47 46 45 45 43
43 47 53 55 58 59 64 67 70 74 76 73 72 73 74 75 76 78 79 76 76 77 76 74 74 72 66 62 56 46 42 44 45 46 50 51 51 47 45 44 41 44 44 41

GFSCGP_500_spd_009.txt.gz
Wind_Speed
2 2 2 3 3 1 2 3 4 4 5 8 9 10 11 14 14 14 16 17 18 20 22 26 29 30 32 34 36 38 40 41 42 44 48 48 50 53 52 51 51 50 50 51
2 1 1 2 3 4 5 6 8 8 7 9 11 12 13 14 15 17 19 20 23 26 28 30 32 33 35 34 36 38 38 41 46 48 49 50 52 52 52 51 51 53 54 55
4 5 6 7 8 9 9 9 10 11 12 11 13 14 15 16 18 20 22 24 26 28 30 32 32 34 35 35 38 39 41 45 48 49 52 52 51 52 52 53 55 56 56 57
6 8 10 10 11 13 14 14 13 13 15 15 17 16 16 18 20 20 23 26 28 29 29 30 33 33 35 38 40 42 45 49 50 49 49 51 53 53 54 58 59 60 61 63
11 12 13 14 15 16 18 17 17 16 17 18 18 19 20 22 23 24 27 29 30 28 28 32 33 35 39 42 43 45 47 48 49 50 52 54 56 57 60 62 63 64 65 66
15 16 17 17 17 17 19 20 21 20 18 19 19 22 22 24 26 30 30 29 29 30 33 34 36 40 42 44 45 46 47 49 51 54 56 57 59 62 65 67 69 70 71 71
19 20 19 19 19 19 19 18 20 20 19 19 20 24 24 28 30 31 31 31 32 34 37 39 41 42 41 42 44 47 48 50 53 56 58 61 65 68 69 71 73 75 76 77
15 14 14 15 17 16 16 16 16 18 19 20 23 28 27 28 29 31 33 35 38 39 40 40 42 44 47 48 50 51 52 56 60 61 65 69 71 73 74 75 75 76 79 81
10 10 11 11 12 13 14 15 17 20 22 23 24 27 27 28 31 33 36 39 39 42 42 43 45 48 49 51 53 55 60 63 65 67 70 73 74 76 78 78 79 81 85 87
10 11 12 13 14 16 18 20 22 24 26 27 24 22 27 30 33 35 34 37 38 38 41 44 48 50 51 55 57 60 65 67 69 72 73 75 77 78 79 80 83 85 81 85
14 15 16 17 18 19 21 23 25 26 28 31 33 20 31 32 34 35 35 35 38 40 45 48 50 51 54 58 63 66 69 71 73 75 76 77 79 80 81 84 86 82 87 89
15 16 18 19 20 22 23 25 28 30 32 33 36 31 32 37 38 37 37 41 43 47 50 50 50 54 59 63 66 70 72 75 76 76 77 78 81 85 85 85 86 87 86 94
17 17 20 22 23 24 26 28 29 32 36 35 37 36 33 38 39 40 43 45 48 50 50 52 56 61 63 66 69 71 74 76 77 78 80 79 81 81 85 83 89 95 100 103
20 22 24 26 28 29 31 35 37 40 42 45 37 40 30 38 40 42 43 47 49 51 55 58 60 63 66 68 69 72 74 76 81 79 80 82 86 84 82 88 94 99 95 89
27 27 29 31 33 34 32 35 39 42 42 43 39 39 40 41 43 44 44 48 51 54 58 60 63 67 69 70 73 77 80 83 82 78 80 84 82 84 92 95 99 84 72 55
35 37 39 37 39 38 30 32 36 40 40 40 41 41 43 45 47 48 50 53 54 57 61 65 68 71 72 75 79 82 83 82 78 78 82 85 91 95 95 95 76 58 48 46
40 43 45 42 41 40 32 32 36 38 37 40 42 43 45 46 49 50 52 56 60 64 68 70 71 74 79 80 82 82 84 85 84 83 87 90 89 88 81 66 53 49 49 48
42 46 47 47 44 42 28 34 37 37 35 38 40 42 44 47 50 55 57 63 68 71 72 73 74 76 79 87 85 88 88 87 88 88 90 86 79 68 60 51 52 52 49 48
46 46 46 47 48 46 27 31 32 36 35 38 40 42 44 51 56 60 64 69 72 73 72 75 68 74 87 88 89 87 85 86 89 87 81 72 61 54 49 52 50 50 52 54
44 42 41 43 45 42 33 36 38 40 40 44 43 48 54 59 63 67 71 75 77 75 76 80 79 88 92 91 89 88 87 85 83 77 66 57 49 47 50 50 52 54 57 58
40 42 39 39 40 34 35 37 39 43 47 51 53 57 60 64 68 72 74 75 73 72 73 78 86 90 89 86 84 84 82 79 73 64 58 49 47 49 50 52 55 57 56 53
39 43 38 38 35 36 38 41 44 46 49 53 56 59 64 69 73 75 74 72 69 73 81 85 84 82 81 79 80 78 77 70 62 57 47 46 47 48 51 54 56 54 52 50
39 36 39 40 37 40 42 45 48 50 55 57 61 65 69 73 74 73 74 72 73 77 78 78 79 75 76 78 77 74 66 61 58 46 44 45 46 49 51 54 53 50 48 46
35 33 39 44 39 44 46 48 51 54 58 61 66 71 73 74 76 74 74 75 75 77 78 77 77 78 77 75 72 65 59 56 46 41 43 43 46 47 50 51 49 48 47 46
36 40 42 44 43 48 48 52 57 63 63 65 71 74 75 75 76 78 77 78 80 80 79 78 79 78 74 70 62 58 55 48 40 40 40 42 43 46 49 48 47 46 43 41
42 42 46 50 51 53 56 59 63 67 71 74 75 74 75 76 76 78 80 80 81 80 79 80 77 75 71 64 60 56 48 36 37 37 38 40 41 44 46 45 43 42 41 40

GFSCGP_500_spd_015.txt.gz
Wind_Speed
10 9 10 8 7 10 10 9 10 12 10 10 11 15 14 16 17 17 17 17 18 21 23 25 27 29 32 35 38 41 42 42 46 48 49 51 54 56 56 57 57 56 55 55
8 9 10 9 9 9 9 10 11 10 10 12 13 16 14 16 19 17 18 19 21 24 25 27 30 33 36 39 41 43 45 46 49 50 51 54 56 58 58 58 59 60 58 59
10 9 9 8 10 11 12 13 11 12 12 12 15 20 19 19 20 21 22 23 24 26 28 30 34 37 40 42 43 46 47 48 50 52 54 57 58 58 58 59 59 59 61 64
9 10 11 12 13 13 15 14 15 14 14 10 10 9 26 21 21 23 24 25 25 29 30 34 37 40 42 42 45 47 50 51 52 53 56 55 56 58 58 60 61 62 66 69
9 10 11 13 14 15 17 17 17 17 18 17 16 13 30 26 25 24 26 27 29 31 34 37 40 43 43 45 47 51 52 52 51 52 54 56 57 58 60 63 65 68 70 71
13 14 15 17 18 20 21 20 19 19 19 18 19 13 17 26 23 26 29 31 34 36 39 41 43 44 45 47 49 48 48 48 52 54 56 57 58 60 63 66 69 71 72 73
12 14 16 17 18 18 19 18 16 16 15 12 15 15 27 26 28 31 33 35 36 39 41 42 44 46 47 45 45 45 48 53 56 56 58 60 63 65 68 71 73 74 73 74
13 11 11 10 10 10 10 11 11 13 15 14 20 18 28 27 29 31 33 35 38 39 42 42 43 43 43 45 48 49 53 56 58 61 62 65 68 71 72 75 77 76 75 78
6 7 7 8 9 10 10 11 13 15 17 19 19 26 28 32 31 31 33 36 39 40 40 40 40 44 43 47 51 52 55 58 61 63 65 68 70 72 73 77 81 83 84 85
5 7 9 10 11 12 14 15 17 17 21 21 13 19 23 32 39 36 37 35 38 38 39 40 41 44 47 50 53 57 58 60 65 69 73 75 75 75 77 77 82 83 84 93
4 7 9 10 12 14 15 17 19 22 22 25 26 21 31 36 38 38 38 36 35 38 40 43 45 47 48 52 56 59 63 67 71 74 75 76 79 80 82 85 82 85 92 93
4 6 8 11 14 16 18 22 24 24 27 29 31 27 32 34 38 39 36 36 34 37 41 45 47 51 54 58 60 64 69 74 78 79 80 79 80 81 83 85 99 94 94 91
5 7 11 15 17 21 24 25 26 29 30 28 33 28 36 36 38 37 37 39 38 43 44 46 48 52 58 63 66 71 76 79 81 80 79 77 80 81 88 94 95 93 90 84
10 14 16 18 24 31 33 31 32 34 33 35 29 33 27 32 36 36 35 38 40 42 46 49 54 59 62 68 74 78 81 81 80 78 76 80 84 87 88 90 91 89 82 73
14 17 19 21 27 32 34 32 33 34 34 35 28 26 27 28 28 31 35 38 42 46 50 55 59 63 69 73 77 79 79 78 77 78 79 82 84 86 87 87 84 76 68 61
19 21 23 23 28 36 34 36 36 33 32 31 30 27 26 28 30 32 37 41 45 50 54 59 63 69 75 79 81 82 79 80 81 82 83 85 85 84 83 80 73 65 61 52
24 25 28 28 34 38 42 36 35 32 33 29 29 30 32 34 39 42 44 48 52 56 60 66 72 77 80 81 81 82 83 83 84 86 85 82 84 82 78 71 64 62 53 50
28 31 33 36 40 43 47 38 33 31 27 29 32 35 37 40 42 49 50 54 59 63 68 73 77 78 78 78 80 82 83 84 85 86 84 83 81 77 70 64 62 55 50 50
32 34 37 40 44 47 39 35 33 30 27 30 34 37 41 44 48 53 56 60 64 68 74 78 80 80 80 80 81 83 85 85 84 82 80 79 76 70 65 63 56 50 48 50
34 36 39 43 48 48 43 38 33 33 33 35 37 40 45 49 53 56 60 65 69 74 78 80 82 82 82 82 83 84 83 81 80 81 78 73 70 68 62 54 47 46 47 48
37 38 39 46 48 46 42 38 36 37 40 42 43 48 53 57 60 63 66 71 76 80 83 83 83 83 83 83 83 82 81 80 78 77 75 72 69 62 49 41 44 45 46 48
38 39 41 46 47 48 43 41 40 39 41 47 49 53 58 62 64 67 71 76 80 81 82 81 82 83 83 83 83 82 80 76 74 74 73 65 54 45 36 41 41 44 45 49
37 39 42 49 46 42 45 44 46 46 48 51 56 60 64 67 70 72 76 79 80 80 80 81 82 84 84 83 83 81 77 75 74 69 58 48 35 29 35 35 39 41 43 48
37 41 46 50 42 43 41 45 47 48 52 55 58 61 63 67 70 73 77 78 79 78 80 83 85 84 84 83 78 77 75 74 65 52 39 27 24 28 30 35 38 39 43 47
37 43 50 53 48 48 44 47 51 54 57 58 60 63 66 69 71 74 76 77 79 80 83 83 83 82 80 77 73 73 69 60 44 30 20 22 23 24 30 35 36 39 42 44
40 44 53 56 51 48 50 53 54 56 59 61 63 66 68 71 74 76 78 78 80 82 82 82 81 77 73 70 69 63 53 36 25 18 22 20 22 27 33 36 37 38 41 41

GFSCGP_500_spd_018.txt.gz
Wind_Speed
12 14 6 8 3 9 14 15 9 15 7 10 10 11 20 12 17 16 17 18 19 28 27 27 26 28 31 32 35 39 41 45 46 49 51 52 54 56 58 59 59 57 59 57
9 5 7 10 8 9 15 14 12 15 11 11 14 13 20 12 18 19 19 22 26 28 28 28 30 31 33 36 39 42 44 47 48 51 53 54 56 58 58 58 59 60 61 60
9 7 7 8 8 8 12 14 13 12 11 10 13 12 23 17 18 23 25 25 28 28 30 30 31 34 36 40 43 45 47 47 49 53 56 55 55 56 57 59 61 63 62 63
5 6 8 10 11 11 16 9 14 15 15 13 12 8 26 24 26 25 27 28 30 32 32 34 34 37 41 43 45 46 49 51 51 52 53 53 53 57 60 61 62 63 65 68
7 8 9 11 11 13 17 16 17 17 17 17 16 12 22 29 34 35 26 27 30 34 36 37 39 42 43 43 45 48 50 53 53 51 52 54 57 58 60 62 64 66 68 72
9 11 12 13 15 17 19 20 20 20 19 18 9 14 20 15 32 22 31 32 33 35 38 41 42 46 45 44 45 48 49 49 53 55 52 53 58 60 61 64 67 70 74 75
10 10 10 13 14 13 14 13 11 8 9 12 12 11 27 26 28 37 41 39 37 38 39 41 43 45 50 49 46 45 44 48 51 54 58 63 63 65 69 73 76 76 77 78
7 4 6 7 8 8 8 8 6 8 10 11 18 16 27 23 27 34 37 38 38 38 39 44 45 45 44 45 47 47 48 51 54 57 60 63 67 72 75 77 80 80 80 80
5 5 6 6 8 9 9 10 11 13 15 16 9 18 29 30 29 34 36 35 44 41 42 44 43 43 42 42 46 49 51 54 56 60 63 67 72 77 79 80 80 80 79 79
4 4 5 6 7 8 11 13 14 16 19 17 10 17 28 31 33 41 40 44 42 41 41 41 41 40 43 45 47 49 52 57 61 65 71 77 80 83 82 80 79 79 78 81
3 2 2 3 7 12 14 16 17 19 22 25 24 20 34 36 39 39 39 42 42 34 36 38 42 42 44 47 50 55 59 63 69 76 80 82 83 83 82 79 79 79 80 81
3 2 3 6 8 14 17 20 22 24 24 28 29 23 30 33 34 35 38 38 37 32 35 37 41 45 49 53 57 62 66 71 76 80 82 84 82 81 80 79 81 81 81 81
1 3 7 8 11 17 22 26 29 29 24 23 28 26 27 30 29 36 40 35 38 37 39 41 44 47 52 57 62 68 75 79 81 84 83 81 80 81 81 82 82 82 81 81
4 7 9 12 16 21 25 30 33 34 35 33 24 27 23 22 33 32 30 34 36 41 43 46 50 54 59 63 70 76 80 85 86 84 81 81 82 84 80 83 83 82 79 74
10 12 13 16 19 24 29 33 37 36 33 33 28 28 25 26 25 30 30 34 39 44 48 51 56 61 66 72 77 81 84 85 86 88 87 87 88 90 83 85 82 77 73 67
15 15 17 20 23 27 30 36 40 37 33 31 31 24 30 29 29 33 36 40 44 47 52 56 62 67 73 77 82 85 86 88 89 87 90 91 92 89 83 81 75 72 69 65
19 21 23 23 27 28 32 36 40 37 34 33 30 31 33 33 36 42 41 45 50 55 59 64 69 73 78 82 84 85 85 84 85 85 87 89 83 84 75 74 71 71 64 51
23 25 27 30 31 32 35 39 39 37 34 32 32 35 37 39 40 44 49 51 55 60 65 68 72 76 80 83 85 85 83 83 85 84 86 84 83 68 76 75 71 59 47 40
27 30 32 34 37 36 38 40 39 40 30 35 34 35 36 38 41 46 51 56 59 63 67 71 75 79 81 85 88 87 87 86 86 87 84 78 70 66 73 65 59 46 40 41
31 33 35 37 41 41 42 46 46 42 40 39 35 37 39 41 46 49 52 56 60 65 69 74 78 83 86 86 86 87 86 86 84 84 78 73 72 65 53 53 39 40 39 41
34 36 37 40 41 43 44 47 46 47 43 41 40 41 44 47 50 54 58 61 67 71 75 78 82 84 84 85 86 87 87 86 81 76 73 70 63 52 39 31 29 33 36 40
38 39 40 42 43 46 48 49 50 48 45 47 46 47 49 52 55 59 63 68 72 74 77 81 83 82 84 86 87 88 85 81 74 71 67 57 43 29 22 24 25 31 36 37
43 40 43 44 44 46 49 53 53 53 50 49 50 53 55 56 60 64 68 72 74 76 79 81 81 83 84 86 89 87 80 73 69 62 50 35 25 21 24 23 29 34 36 38
44 40 44 48 45 46 48 50 54 53 51 52 54 55 58 62 65 68 71 73 75 78 79 80 82 83 85 88 85 77 71 67 58 45 31 22 25 23 22 27 32 36 36 39
40 41 42 47 47 51 51 55 56 53 52 55 56 58 61 64 67 71 72 74 77 78 80 83 84 85 85 82 76 70 64 53 43 29 23 25 27 24 24 29 33 37 37 39
37 41 44 46 50 51 55 56 55 52 53 54 58 62 64 67 70 71 73 76 78 80 82 82 83 83 81 75 70 61 50 41 30 25 25 27 27 25 27 31 35 37 37 39

GFSCGP_500_spd_021.txt.gz
Wind_Speed
21 21 19 14 2 3 14 15 14 13 2 3 5 8 17 18 14 15 18 21 24 26 26 28 29 29 29 33 36 36 39 42 45 48 49 51 52 55 57 58 57 57 57 58
17 9 10 8 8 6 14 14 16 10 5 8 11 12 19 20 17 20 17 20 24 27 29 30 31 32 34 35 38 39 42 45 48 49 50 52 54 56 54 54 56 58 60 60
12 11 8 7 5 7 13 13 13 14 9 7 12 15 18 15 16 18 18 21 22 25 27 29 31 35 36 39 41 44 46 47 49 51 51 52 51 50 52 54 56 59 61 61
7 7 7 9 5 10 10 7 12 13 13 12 14 16 22 20 19 22 26 25 29 28 26 25 33 37 40 42 44 45 47 46 47 49 50 50 49 51 53 55 58 60 63 67
6 6 6 5 7 11 10 12 13 15 15 14 16 16 19 27 29 29 29 27 27 24 29 33 36 38 41 41 43 46 48 50 50 47 46 47 49 52 54 57 60 64 68 73
8 7 9 10 11 13 15 16 17 19 19 15 15 17 28 27 29 31 28 18 27 39 41 40 40 41 41 41 41 42 44 47 51 51 52 52 51 53 56 60 66 72 76 79
8 9 10 10 9 11 11 11 11 10 8 11 12 20 22 24 32 35 35 38 40 42 43 42 43 46 46 44 41 42 41 43 47 50 51 54 59 63 67 73 77 80 82 85
9 10 6 5 4 4 6 6 7 6 9 8 14 17 17 20 26 32 36 39 42 39 43 44 46 44 44 43 43 43 44 46 47 50 55 58 63 68 73 79 82 83 85 84
2 3 2 2 4 5 6 8 9 9 9 9 16 18 22 23 29 35 34 40 44 41 47 41 38 38 37 37 40 42 44 46 51 56 61 66 72 76 80 84 85 84 81 81
2 2 2 2 3 5 7 9 11 12 13 9 12 25 29 32 34 36 41 33 46 49 42 37 37 39 40 41 42 46 51 56 60 65 71 76 80 83 86 86 83 81 81 81
3 2 2 4 5 5 9 13 16 18 19 17 11 20 26 34 35 39 40 42 41 37 36 34 34 37 39 42 46 51 56 62 67 70 75 80 84 87 88 86 81 82 82 82
5 4 4 2 2 7 10 14 17 21 22 23 24 14 24 30 32 34 32 35 36 36 32 33 37 40 44 49 53 58 62 67 72 76 81 84 86 87 85 79 78 80 83 82
5 3 1 4 4 6 12 18 23 27 29 23 26 20 26 32 29 33 29 30 31 33 35 37 41 43 48 52 56 62 67 72 76 80 84 87 88 89 90 89 90 91 89 85
4 5 7 8 9 13 18 21 25 30 33 32 27 30 27 34 31 25 25 27 34 35 38 41 44 49 53 57 62 68 72 77 81 86 88 90 90 90 88 91 90 87 83 74
7 8 11 13 15 18 21 23 26 29 32 34 33 33 35 31 25 30 31 33 35 37 42 45 49 54 58 62 68 73 77 80 84 87 89 91 89 89 91 86 82 76 65 65
11 12 15 16 17 20 22 24 27 28 32 33 35 34 35 31 27 28 33 35 36 41 45 49 53 57 62 68 72 76 81 86 89 90 93 90 89 89 84 77 64 53 54 62
16 17 19 19 21 24 26 27 29 32 34 38 38 36 33 31 31 33 33 35 40 44 48 53 57 63 68 73 78 83 86 89 90 90 90 90 88 85 80 72 67 59 54 60
20 21 23 23 25 27 31 32 32 34 37 38 40 40 41 36 38 38 38 42 46 50 54 58 63 69 74 78 81 84 87 88 89 89 91 90 85 77 71 66 55 39 49 56
23 26 27 28 29 31 34 36 35 38 38 39 39 42 42 42 42 43 46 50 52 55 59 64 69 73 76 78 82 86 89 88 88 90 90 87 76 69 64 55 42 32 48 32
27 29 30 32 34 37 40 41 42 42 40 43 41 43 43 41 41 43 46 49 52 58 62 66 70 74 78 82 85 89 88 87 89 90 87 79 70 60 46 34 21 20 23 29
32 33 34 35 38 40 41 45 45 43 44 46 46 46 47 45 44 46 49 52 57 61 66 69 73 78 82 84 86 88 88 89 90 87 77 66 55 42 26 23 22 23 27 32
35 36 36 39 41 42 44 47 46 44 46 47 49 51 50 47 47 49 54 58 61 65 68 72 76 80 83 84 87 86 87 89 86 77 64 50 37 25 27 24 22 26 30 34
38 39 40 41 42 42 48 50 49 48 49 49 53 53 51 48 50 54 59 62 65 68 72 75 78 80 82 85 85 87 89 85 76 62 49 38 27 27 28 25 25 29 33 36
41 42 43 44 45 46 51 51 50 50 51 53 55 53 50 52 55 59 62 65 67 70 74 77 79 81 82 84 85 87 83 72 61 50 40 30 26 27 29 26 27 31 35 37
39 43 42 45 45 49 51 51 53 51 52 55 54 51 52 56 59 62 65 66 69 72 74 76 78 80 81 82 83 82 75 61 51 40 34 27 26 27 27 26 28 31 35 36
37 40 40 45 47 46 49 52 50 52 56 57 53 54 56 59 62 65 66 68 71 73 74 76 78 80 80 82 81 76 64 52 42 34 30 26 26 28 26 26 28 31 34 36

GFSCGP_500_spd_027.txt.gz
Wind_Speed
18 25 28 28 24 20 20 25 15 15 9 6 7 5 5 5 9 9 9 12 14 15 15 17 20 20 22 22 24 27 30 39 43 47 45 49 48 53 53 55 55 53 50 49
29 30 26 23 21 18 16 21 9 6 2 6 8 7 9 10 9 12 14 15 16 16 21 25 26 25 24 26 27 34 39 43 48 50 52 52 54 56 57 56 54 52 51 52
27 27 29 23 17 15 14 12 11 8 8 10 13 14 15 15 16 16 14 15 15 19 22 24 23 21 23 25 31 37 41 45 49 52 54 56 55 55 54 52 50 50 53 57
21 19 21 18 14 12 11 12 13 12 14 20 20 22 19 19 19 20 19 19 18 18 21 29 23 24 25 32 40 44 44 48 52 54 59 58 55 53 52 50 53 56 60 64
14 12 16 17 15 12 11 12 13 14 15 19 24 26 23 24 23 24 24 24 25 20 23 27 32 29 37 39 42 45 46 51 54 54 48 47 46 47 50 52 55 59 63 68
18 15 15 14 12 10 10 11 14 17 19 23 25 28 28 26 25 24 23 23 21 23 25 31 31 34 40 38 37 45 48 54 48 44 43 43 45 48 52 56 61 65 68 73
20 17 15 14 13 12 13 15 16 17 17 19 20 21 19 20 21 23 25 26 26 26 28 28 32 35 34 41 46 48 53 44 38 38 39 43 47 52 57 61 67 71 76 81
17 14 13 13 10 9 9 9 10 10 9 11 13 15 19 20 23 24 25 25 27 26 32 30 34 40 47 48 49 52 39 35 37 40 44 48 54 58 63 68 72 77 80 84
14 13 12 10 8 8 6 6 5 4 5 7 8 10 13 16 20 23 25 26 28 31 35 40 44 43 42 44 41 34 37 39 42 45 50 55 60 65 69 73 78 81 85 88
14 11 10 10 10 8 7 4 3 1 3 7 10 11 13 17 19 19 21 23 26 29 31 33 35 36 37 34 36 39 41 44 47 52 57 61 66 70 75 78 81 84 89 93
15 13 12 12 11 9 7 5 2 3 7 10 13 14 15 17 18 19 21 23 24 27 29 32 35 36 36 39 42 44 46 50 53 57 62 67 70 74 77 81 85 89 92 96
15 13 14 13 11 7 5 5 6 8 11 14 16 17 19 20 21 22 23 24 27 30 34 38 40 40 42 43 45 47 50 54 57 61 66 69 73 76 80 84 88 92 95 99
16 15 15 12 12 10 10 10 12 13 14 14 16 18 19 20 22 25 26 27 28 29 34 38 41 41 42 44 48 51 54 56 60 64 68 72 74 78 83 87 91 94 99 99
17 16 14 12 11 11 12 13 14 15 17 17 20 21 24 24 26 28 28 29 30 31 35 38 40 42 44 47 51 54 55 59 63 67 70 74 79 85 88 91 95 97 97 98
17 16 15 13 13 15 15 17 18 20 21 22 23 23 26 27 28 30 31 32 32 34 37 39 40 42 45 49 52 55 59 62 65 69 74 80 86 88 90 91 95 96 96 92
19 18 17 16 17 18 19 21 25 25 26 27 29 28 28 30 32 34 36 37 39 40 43 44 44 45 48 52 53 58 63 66 70 75 80 86 87 89 90 93 93 93 89 71
22 21 21 21 22 24 22 24 28 28 27 30 32 33 32 34 36 37 38 40 41 43 46 49 48 49 52 54 58 63 67 70 75 78 82 85 87 88 90 91 91 88 69 53
25 25 27 26 27 30 25 27 30 32 31 33 35 35 35 37 38 39 42 43 45 47 49 49 49 51 53 58 63 67 71 74 78 82 85 86 86 87 88 90 87 72 54 43
28 30 31 33 32 35 30 30 34 36 35 35 37 37 39 41 42 43 46 46 48 50 52 51 51 53 57 61 66 70 75 78 81 83 85 85 85 87 89 85 78 56 44 36
30 33 35 36 38 38 34 34 37 39 37 38 39 39 42 43 44 45 47 49 50 52 54 51 52 56 60 65 70 74 78 80 82 83 85 86 86 88 84 79 62 47 38 33
31 33 36 38 40 40 36 38 39 40 42 41 41 43 45 46 48 49 50 51 53 56 54 53 56 60 65 69 73 76 79 82 83 84 85 86 86 83 77 66 49 40 34 33
33 36 35 37 39 41 39 40 41 42 43 44 43 44 47 48 50 52 52 54 55 56 55 57 61 66 70 72 76 77 80 81 82 84 86 86 80 75 66 54 41 35 32 33
37 37 38 38 38 40 42 43 43 45 45 44 45 49 51 50 51 54 55 56 58 57 59 62 66 71 73 76 77 79 80 80 82 84 85 77 73 66 57 46 38 34 32 32
38 38 39 39 37 39 43 45 45 46 47 46 48 51 51 52 54 56 57 58 59 60 63 67 71 73 74 76 78 79 79 81 84 83 75 70 65 58 50 42 36 33 31 31
42 38 38 42 40 43 43 44 45 46 46 47 49 50 52 54 56 58 59 59 60 64 67 70 72 74 75 77 77 77 80 83 81 74 70 64 58 51 44 38 34 32 31 31
36 36 40 42 42 44 44 43 44 45 48 49 50 52 54 56 58 58 58 60 64 68 70 72 73 75 75 75 76 80 82 80 73 69 64 59 53 46 40 35 33 31 29 30

GFSCGP_500_spd_030.txt.gz
Wind_Speed
18 19 19 15 14 12 16 17 17 16 15 16 14 10 9 8 8 9 9 10 11 12 11 13 16 18 19 20 22 23 16 24 35 40 45 46 51 53 54 56 56 52 50 46
16 18 19 19 19 18 23 22 16 14 15 15 10 9 9 7 8 9 12 11 12 14 14 15 17 20 19 17 22 21 32 38 43 48 51 52 53 57 56 54 51 47 44 46
22 25 27 28 25 24 21 23 22 15 13 12 10 11 10 10 11 14 14 14 16 17 15 18 20 20 24 23 31 35 39 43 47 48 51 52 58 55 52 49 45 45 49 54
24 30 29 27 23 16 17 18 24 14 14 15 16 18 16 16 17 18 19 19 20 21 22 21 21 25 24 33 38 39 41 45 48 50 55 58 57 52 50 49 50 53 57 59
23 23 22 22 17 14 13 13 13 12 15 17 18 21 16 19 21 23 24 24 24 24 26 23 23 27 33 35 38 42 45 46 42 50 54 58 55 48 48 51 53 56 58 61
19 15 15 17 18 15 14 14 14 15 16 19 21 23 20 21 22 23 22 23 23 25 23 27 29 32 38 36 44 38 38 53 53 50 51 50 47 47 49 52 56 59 63 67
14 16 13 16 16 16 14 15 16 17 17 17 17 19 14 13 14 16 19 21 23 23 23 28 31 32 39 40 42 47 52 52 48 50 47 47 49 51 54 57 61 65 68 72
16 16 16 16 15 16 16 15 14 12 12 12 11 7 7 7 9 11 12 14 16 20 23 25 28 33 39 42 45 48 49 47 48 46 48 48 50 54 57 60 64 68 72 75
17 16 16 15 14 14 12 11 9 8 5 4 5 4 3 5 6 8 10 12 14 17 19 23 28 32 35 39 42 44 44 43 45 47 47 50 54 57 60 64 68 72 75 80
16 17 16 14 13 12 11 9 6 4 3 3 6 7 8 10 11 13 15 17 19 21 24 27 30 33 35 37 38 39 41 44 46 48 52 56 59 62 66 70 74 78 83 88
17 14 15 14 13 11 11 9 7 5 5 9 10 10 10 11 14 15 17 19 21 24 26 27 29 32 35 39 42 44 45 47 49 53 56 58 61 67 71 75 80 85 89 94
18 16 16 15 15 14 12 9 7 8 12 13 14 13 17 18 19 20 21 23 25 28 31 33 35 37 40 42 45 48 50 52 54 56 58 61 67 71 75 80 84 87 91 93
18 17 18 17 16 14 11 10 12 14 15 15 17 19 21 22 23 24 25 28 30 32 34 37 38 40 43 46 49 51 53 55 56 58 61 66 70 75 79 82 86 90 92 93
18 17 17 16 16 16 14 14 15 17 17 19 21 22 25 24 24 26 27 30 32 34 36 38 39 41 43 46 49 51 53 55 57 59 64 69 73 77 81 84 87 90 92 92
19 19 19 18 16 17 17 17 18 19 22 23 25 27 30 29 28 30 31 34 36 37 39 40 41 44 46 50 52 52 52 55 58 63 68 72 76 80 83 85 87 91 92 92
20 20 21 21 20 21 21 20 21 24 26 27 30 29 32 32 34 34 35 37 39 41 43 44 46 48 50 53 53 53 54 57 62 66 71 76 80 83 85 87 89 90 92 89
21 22 23 24 24 26 25 20 27 29 29 32 33 35 37 36 36 37 37 40 43 45 46 47 51 52 52 54 53 54 56 60 64 70 76 79 82 85 87 88 89 92 88 82
22 25 28 28 29 33 26 27 31 35 36 36 37 39 41 40 40 40 41 44 45 47 49 51 53 53 54 55 55 56 60 64 70 75 78 81 83 85 87 89 92 87 79 73
25 28 31 33 33 35 34 33 36 39 40 39 41 44 44 43 43 41 44 46 48 49 52 53 54 54 56 57 57 59 64 69 75 77 79 81 84 85 87 91 85 78 72 61
25 29 33 35 39 41 38 37 40 43 44 40 44 44 45 45 45 44 46 48 50 52 53 54 55 56 58 59 60 65 69 74 76 78 81 83 84 86 89 85 76 70 61 51
29 32 34 37 41 43 40 40 41 43 44 46 46 47 47 47 47 46 48 49 51 53 54 56 57 59 60 62 65 69 73 75 78 80 82 82 85 88 85 77 69 61 53 44
29 32 34 37 41 43 41 42 43 46 47 47 49 49 49 49 49 49 50 53 54 56 56 58 60 60 61 65 69 72 75 76 79 81 81 85 87 84 77 69 61 53 47 40
35 35 38 38 38 40 43 45 46 46 48 48 50 50 50 51 50 51 54 56 58 57 58 59 60 62 66 70 72 74 75 78 79 79 84 86 83 77 69 61 55 48 41 36
40 41 41 41 38 42 46 48 47 48 49 50 50 50 50 50 51 54 56 57 57 58 59 60 63 67 70 72 73 74 76 77 77 82 84 81 75 69 63 56 49 43 36 34
43 38 38 42 40 44 44 44 46 47 48 49 48 48 50 52 54 55 56 56 56 57 59 63 67 70 71 72 73 75 75 76 80 82 79 72 67 64 57 51 44 38 33 31
34 33 39 42 41 43 42 42 44 45 46 46 47 50 53 55 55 55 54 55 57 59 63 66 70 72 72 72 74 74 75 79 80 77 69 65 65 61 52 45 40 35 31 29

GFSCGP_500_spd_033.txt.gz
Wind_Speed
23 22 20 16 10 8 12 14 15 15 12 13 12 11 8 9 10 10 8 8 9 10 12 13 14 15 18 20 21 21 21 24 28 24 47 48 46 47 50 52 56 55 48 44
18 16 18 16 13 10 17 16 13 10 10 12 11 11 9 7 7 8 7 8 10 12 14 15 17 19 19 17 16 26 22 32 45 49 49 49 51 52 54 59 57 48 44 43
18 12 14 15 14 15 18 21 15 13 12 13 12 12 9 8 8 9 10 11 12 14 16 18 20 21 22 23 24 27 35 42 43 46 48 51 50 53 61 56 54 51 51 52
22 20 15 19 20 20 17 18 20 21 17 16 16 14 12 11 10 11 13 15 16 18 18 21 21 22 25 25 28 33 40 40 43 46 48 45 52 57 50 49 51 53 54 55
23 24 20 22 23 19 14 16 18 18 22 21 15 16 10 13 13 15 16 17 18 17 17 20 22 21 23 28 31 33 39 42 42 49 47 57 52 50 51 51 53 54 56 58
23 20 22 23 21 17 14 13 14 16 17 17 14 18 12 14 15 14 14 14 15 15 19 21 22 25 28 32 35 37 40 44 49 49 51 50 48 50 52 53 54 56 58 60
20 18 18 16 20 20 18 16 16 17 16 16 14 13 7 7 8 9 10 12 14 16 18 21 23 25 29 31 35 37 40 43 46 47 49 49 50 51 53 54 57 59 60 63
18 19 17 13 13 17 17 16 18 17 13 9 8 3 5 4 3 4 6 7 10 12 14 16 19 21 23 26 30 33 37 40 43 47 49 51 53 53 54 57 58 60 64 68
18 18 16 14 15 16 17 17 14 10 6 4 2 2 3 5 5 5 6 7 10 12 15 17 19 22 25 28 30 33 37 41 46 48 50 51 52 54 57 59 61 64 68 73
18 17 16 16 17 17 15 13 11 8 6 4 3 4 5 6 7 8 9 11 14 17 19 20 22 25 27 30 33 36 39 41 44 48 52 55 56 58 60 62 64 68 73 78
17 18 17 19 17 16 14 12 10 8 7 5 6 6 7 10 12 14 15 16 19 21 23 25 27 29 31 32 35 39 42 45 49 52 54 56 58 59 60 64 69 73 79 84
18 18 17 15 17 16 14 12 11 10 10 11 11 9 12 15 17 19 19 21 22 24 26 29 31 34 37 40 43 46 47 49 52 54 55 57 58 59 62 67 72 79 83 87
18 17 16 16 15 14 15 14 13 14 14 13 14 17 18 19 22 23 24 26 27 29 32 35 37 40 42 44 46 48 49 50 53 54 56 56 58 62 66 72 78 83 86 87
18 16 16 16 17 19 18 18 17 17 16 18 16 21 24 26 27 28 29 31 33 34 36 38 40 43 45 47 49 50 52 53 56 57 57 58 61 65 71 76 81 84 85 87
18 17 18 18 20 21 20 20 18 18 20 22 22 25 29 32 32 33 34 36 36 37 38 40 42 44 47 49 51 52 53 56 58 59 59 61 65 70 75 79 82 84 87 89
18 18 20 21 22 22 21 20 19 21 24 27 30 27 35 36 37 37 38 39 40 41 42 43 45 47 49 51 52 53 55 58 59 60 61 64 69 74 78 80 82 85 88 91
18 19 21 22 24 26 26 19 24 28 30 32 34 34 38 40 41 41 42 43 44 44 45 47 49 51 53 53 54 56 58 59 61 62 64 68 73 76 78 81 84 86 90 92
17 20 23 24 26 30 24 25 29 34 35 38 39 41 44 46 45 44 44 45 45 47 49 49 51 54 54 54 56 58 59 61 62 64 68 72 75 76 79 82 85 88 90 83
18 21 23 26 28 30 31 32 34 39 40 42 44 47 48 48 48 47 48 48 49 51 51 51 54 54 55 56 57 58 60 61 63 68 72 74 75 77 80 83 87 88 81 72
18 21 24 26 30 33 33 34 37 41 43 43 45 47 48 49 49 49 49 50 51 53 54 54 56 55 56 57 59 59 60 63 68 71 73 74 77 79 81 85 86 78 72 66
21 24 25 27 30 32 33 35 37 40 44 46 46 47 48 47 49 49 50 52 52 53 53 54 56 56 57 58 59 61 63 67 71 73 73 77 79 79 83 84 77 70 68 62
21 25 27 29 32 36 37 38 41 43 44 46 46 45 46 47 49 51 51 51 51 52 54 56 58 58 58 59 62 63 67 71 73 73 76 79 78 81 82 75 68 67 64 54
28 30 32 32 33 37 41 43 45 44 44 45 46 47 48 49 50 51 50 49 51 54 56 57 58 58 59 62 64 67 71 72 74 76 79 77 80 81 77 68 65 65 59 49
35 36 36 38 36 41 44 45 44 45 45 45 46 47 48 49 50 50 51 53 55 56 57 57 57 59 62 63 68 71 72 74 76 78 78 80 81 77 69 63 63 61 52 43
37 37 40 42 41 43 41 41 42 43 44 44 45 46 47 48 50 52 54 56 56 57 57 58 62 63 63 68 72 74 74 77 77 78 79 79 76 70 63 61 60 54 44 37
35 39 41 41 39 39 38 39 40 41 43 44 45 47 48 51 52 53 54 54 56 56 58 61 63 65 68 71 75 76 79 78 78 78 77 76 71 64 59 58 54 47 38 33

GFSCGP_500_spd_036.txt.gz
Wind_Speed
25 18 14 13 13 11 9 16 9 10 9 12 11 10 9 7 5 5 5 7 11 12 13 15 17 20 21 23 23 26 24 30 29 28 40 42 45 46 47 49 48 52 55 49
15 15 20 17 10 8 10 16 12 12 9 9 10 11 8 7 7 6 9 11 12 13 14 15 16 18 17 21 24 25 26 25 33 35 42 45 47 50 54 54 53 50 48 47
23 17 17 19 16 10 9 21 16 8 7 6 8 10 9 9 8 10 11 13 12 13 15 16 18 19 21 25 28 29 30 30 35 39 43 46 50 55 58 58 55 51 51 52
17 15 12 14 13 12 12 16 16 11 10 9 11 8 15 14 14 15 15 14 16 16 17 18 17 19 23 26 27 29 31 36 41 45 46 48 50 55 51 51 51 53 53 54
18 20 16 9 14 16 15 10 11 12 16 18 18 19 21 16 18 18 18 19 19 18 18 18 19 23 26 27 29 32 34 34 34 35 40 44 46 50 53 54 55 55 56 58
22 19 17 17 16 17 14 12 13 15 16 18 21 19 17 17 20 22 21 20 19 17 17 18 22 24 24 24 24 23 26 29 31 35 37 42 45 50 53 55 57 59 59 59
20 18 19 15 14 16 15 15 15 15 17 17 16 19 13 13 15 16 16 15 14 15 15 16 16 15 16 17 20 23 26 30 34 36 39 42 46 50 54 56 57 58 59 61
21 20 16 14 15 18 21 18 17 17 17 19 16 11 11 11 10 8 7 7 7 7 9 11 13 16 17 20 24 27 31 34 37 40 43 46 48 50 53 56 59 60 61 62
17 19 18 19 18 17 16 17 17 18 15 12 9 8 6 6 7 7 7 8 8 10 12 15 17 20 22 25 29 32 35 38 41 43 46 48 50 53 55 58 60 60 61 63
19 20 21 20 20 19 19 18 16 13 11 9 8 7 9 8 8 7 9 11 13 16 18 20 22 25 28 31 34 36 39 41 43 46 48 50 53 57 58 61 61 61 63 65
20 21 20 21 20 20 19 16 14 13 12 11 8 10 10 10 10 11 13 16 18 21 23 25 27 30 32 35 38 40 43 44 46 49 51 54 57 57 60 62 62 63 66 70
20 21 21 21 20 21 19 16 15 15 14 13 12 10 13 13 14 15 18 20 23 25 27 30 32 35 37 39 41 43 46 48 50 52 55 57 58 60 63 64 64 66 70 75
22 23 22 21 18 15 15 16 17 16 16 15 15 14 18 17 18 21 23 25 28 30 33 35 37 39 41 44 45 46 49 51 52 55 58 59 60 62 64 65 67 70 75 79
23 22 19 18 18 17 17 19 19 19 18 19 17 20 21 25 25 25 29 31 34 36 38 40 42 44 46 47 48 50 51 53 54 57 59 60 62 63 65 66 70 74 78 79
20 18 18 17 18 18 19 22 22 21 21 22 20 23 25 33 33 32 34 37 39 42 44 45 46 47 49 50 52 53 53 55 56 58 60 61 63 64 65 69 73 76 78 81
17 17 18 18 18 19 21 22 22 23 23 25 28 27 31 36 39 40 41 43 45 47 47 48 48 50 52 53 54 54 55 56 58 60 61 62 62 64 68 72 75 76 79 80
17 17 19 18 20 23 23 21 24 26 27 30 33 33 37 40 45 46 47 49 49 49 49 49 50 52 54 55 55 55 56 57 59 60 61 61 64 68 71 75 75 79 80 82
13 15 18 17 22 25 20 23 26 30 32 36 38 41 43 46 49 50 51 51 49 48 49 49 51 54 56 55 55 55 57 58 59 60 61 65 68 71 75 76 77 80 81 85
14 16 19 21 21 24 25 26 28 33 35 39 42 45 47 48 49 49 49 49 49 49 50 51 53 55 54 53 53 56 58 59 59 61 64 70 71 74 76 77 80 82 83 84
14 16 18 20 23 24 24 26 29 33 36 38 40 42 44 46 47 49 48 49 50 50 52 53 53 53 52 53 56 58 59 60 61 63 71 74 75 77 77 78 81 83 83 80
16 18 19 21 23 24 26 28 30 33 38 40 42 43 44 45 47 48 49 49 49 50 50 50 50 51 53 56 57 58 59 60 63 71 75 76 77 78 77 78 84 84 82 75
15 18 20 23 26 30 31 35 37 39 41 42 44 45 45 44 44 45 47 48 47 46 47 48 51 53 55 56 56 57 58 61 69 72 75 79 80 80 79 81 83 80 76 68
22 24 25 27 30 35 39 41 42 43 43 43 43 44 45 45 45 46 46 46 46 47 51 53 55 54 54 56 58 58 59 69 72 74 76 79 81 80 80 83 80 77 70 62
28 29 31 34 36 40 42 43 43 43 42 42 42 43 44 45 45 45 46 48 51 52 54 55 56 57 58 59 61 64 66 70 72 75 79 81 82 82 81 79 75 72 62 57
33 35 37 37 39 41 41 41 42 42 43 43 43 43 43 44 46 48 50 52 53 54 54 55 57 59 60 62 60 66 72 77 77 77 82 84 83 82 79 75 70 63 56 51
35 38 40 40 39 40 39 39 39 40 40 42 43 44 45 47 49 49 50 52 52 53 55 57 60 61 64 63 62 68 74 76 73 79 82 82 83 78 72 69 64 56 51 46

GFSCGP_500_spd_039.txt.gz
Wind_Speed
22 22 16 14 14 4 7 7 9 12 5 8 12 12 8 4 4 7 6 8 9 10 11 13 15 16 18 20 23 25 27 25 27 31 35 40 42 42 40 43 45 48 52 48
18 12 15 13 9 10 7 7 13 10 4 8 11 11 7 6 5 6 8 9 11 13 15 17 18 18 20 22 24 26 29 30 30 32 33 38 43 44 44 44 47 49 49 50
18 13 15 13 11 7 9 13 12 6 4 7 11 12 9 9 9 9 10 11 13 15 16 17 19 20 23 23 26 29 30 31 31 32 36 38 37 38 41 43 46 49 51 54
12 22 15 13 12 13 7 7 10 13 6 5 8 10 22 9 15 15 15 17 19 19 19 20 22 23 25 25 28 29 29 30 31 32 32 33 35 37 40 42 45 48 51 55
9 12 13 8 11 6 14 5 10 11 10 14 6 10 23 9 23 23 23 23 22 22 22 24 26 25 25 28 25 24 23 22 25 28 31 34 37 40 44 47 50 53 55 56
19 19 17 14 14 11 11 11 9 9 9 15 10 15 14 19 18 26 24 28 27 26 27 26 25 24 23 19 18 19 21 24 27 31 34 38 41 44 48 50 53 56 59 61
14 12 18 15 15 12 14 10 8 9 11 11 17 18 15 26 29 30 25 27 27 25 24 22 19 16 16 17 19 22 25 28 31 34 38 41 44 47 50 52 55 58 59 61
13 15 15 14 12 9 12 13 13 14 11 8 21 17 16 20 18 16 14 14 15 14 13 13 14 16 18 21 24 27 30 33 36 39 42 44 47 50 53 55 57 59 61 62
15 20 18 13 14 13 15 16 20 18 17 18 16 12 14 14 11 9 10 11 11 12 14 17 19 21 24 27 29 33 36 38 40 43 45 47 49 52 55 57 59 61 62 64
15 17 22 17 17 17 19 19 17 18 20 14 5 9 14 11 12 13 12 13 15 17 20 22 24 27 30 33 35 39 42 43 45 46 49 51 53 54 56 58 61 62 64 66
17 18 19 19 18 16 20 20 18 20 18 15 12 9 14 13 14 15 16 17 19 20 23 26 29 31 35 38 41 43 46 46 48 50 53 54 56 56 59 61 62 65 65 68
20 19 22 17 23 21 23 21 21 20 18 17 17 16 14 16 17 18 19 21 23 25 28 30 33 36 40 42 44 45 47 49 52 54 56 56 55 59 61 62 64 66 67 67
20 22 23 24 21 21 21 21 20 21 21 19 20 14 19 20 22 22 23 25 28 30 33 36 39 41 44 46 47 49 50 51 53 56 57 59 58 60 62 64 65 67 66 69
22 23 24 24 17 20 19 20 21 22 22 19 19 19 24 28 27 28 26 30 34 35 39 41 44 46 48 49 51 52 51 54 56 57 57 58 60 61 63 64 66 66 70 73
25 25 26 24 25 22 21 21 21 22 20 24 16 25 21 30 36 34 35 36 39 42 45 47 49 51 52 52 53 53 54 56 57 57 57 59 60 62 63 64 66 69 74 77
24 25 23 23 23 23 23 21 21 22 22 24 25 30 28 34 36 38 42 44 46 49 50 51 51 52 53 53 53 55 56 57 56 56 57 59 62 62 63 65 68 73 79 80
22 23 23 23 21 23 20 17 20 22 23 27 31 30 37 39 40 42 46 49 50 52 53 52 52 53 53 54 54 55 56 55 54 56 58 60 60 62 64 67 72 77 82 82
20 21 22 20 20 22 17 19 21 24 26 31 35 35 40 44 44 48 50 51 51 51 51 51 51 51 52 54 55 54 54 54 55 58 59 60 60 64 68 71 76 80 82 81
19 19 19 20 20 20 19 20 23 26 29 36 35 38 42 45 47 49 50 49 51 50 50 50 51 52 53 53 53 52 53 55 57 58 59 61 63 68 73 74 80 83 80 83
17 17 18 17 20 21 21 22 25 28 31 33 34 38 41 44 46 49 50 50 50 49 49 49 50 51 51 50 52 54 54 56 56 56 62 64 67 72 79 83 79 78 81 85
16 16 16 17 20 20 20 22 24 28 32 34 37 40 43 46 47 47 48 48 47 48 47 47 48 48 50 52 53 54 54 56 57 58 60 65 75 80 84 81 82 78 78 83
14 14 14 17 20 23 24 27 30 33 35 38 41 44 45 46 46 46 46 46 46 47 46 46 48 50 52 53 55 56 59 59 62 65 67 66 75 82 78 77 77 79 82 84
16 17 20 21 26 28 31 33 35 37 40 42 44 44 46 46 47 48 47 47 46 48 49 50 51 52 52 52 53 58 60 61 66 72 76 79 78 75 72 69 77 80 78 80
23 24 27 27 31 34 36 38 40 42 43 44 45 44 44 45 46 48 46 48 49 51 51 51 51 52 54 56 59 62 61 64 66 75 77 68 72 71 71 78 78 74 75 76
28 29 31 32 36 37 41 41 43 44 45 44 43 44 44 45 46 47 48 49 49 50 51 52 54 56 59 60 62 63 66 68 74 67 66 71 70 72 76 75 72 74 69 66
32 34 35 37 38 40 43 45 43 43 42 43 45 46 45 46 48 48 48 49 51 51 53 55 58 60 62 64 62 64 69 69 69 71 76 78 75 78 77 72 70 65 62 58

GFSCGP_500_spd_042.txt.gz
Wind_Speed
11 20 17 16 18 4 4 6 6 10 8 7 12 11 5 5 6 8 3 6 5 6 8 9 10 12 11 12 17 20 22 25 24 25 30 33 34 34 37 38 35 36 37 37
11 16 16 6 8 5 3 8 12 18 7 7 9 11 4 3 3 6 7 6 8 9 10 11 13 15 19 14 20 23 26 27 27 29 26 26 29 30 31 34 37 38 41 43
9 17 15 6 7 8 5 12 21 19 4 4 10 10 14 5 6 7 10 13 13 13 11 15 16 18 22 21 22 25 25 25 24 23 24 25 27 30 33 37 41 44 47 49
9 18 16 13 7 8 12 13 2 5 5 8 16 16 23 24 7 5 12 17 21 21 20 19 21 21 24 26 26 26 25 22 22 21 24 27 30 34 37 40 42 45 48 51
17 21 15 8 18 10 14 18 7 6 11 17 21 18 13 21 8 14 11 16 25 28 27 26 24 25 27 26 26 22 21 19 22 24 27 31 35 38 41 45 47 51 53 53
13 13 8 20 12 9 13 6 4 7 11 16 18 9 18 22 18 21 12 14 23 30 32 31 30 24 24 22 19 19 21 21 25 29 33 37 40 43 46 48 50 53 55 57
15 14 14 14 15 12 13 8 9 18 16 8 6 15 13 25 19 23 27 25 26 25 25 26 25 18 16 17 20 22 25 27 30 35 39 41 45 47 49 51 53 55 55 58
6 9 8 15 13 16 11 9 15 12 5 8 13 5 13 19 21 19 22 20 16 15 15 15 14 15 17 20 24 27 31 34 36 40 43 46 48 50 53 54 56 56 56 59
21 25 22 13 12 21 1 10 17 12 14 12 10 11 19 15 19 17 12 13 13 14 14 16 18 21 24 26 29 32 36 39 40 45 47 50 52 53 56 58 60 61 62 62
23 25 21 14 10 14 13 14 11 13 15 13 3 3 22 16 15 15 15 15 15 17 18 21 22 25 27 29 32 36 41 43 44 48 50 53 54 55 57 58 58 53 61 63
26 17 13 9 14 14 14 15 16 17 16 15 9 10 17 21 18 16 18 18 20 21 22 24 27 29 33 35 38 39 44 48 49 50 52 54 55 57 58 58 55 61 63 64
21 17 16 10 18 16 16 17 17 19 16 22 18 22 18 19 19 19 20 23 24 25 27 29 31 34 36 41 44 45 46 50 51 51 53 54 57 58 58 58 57 60 62 65
25 22 21 16 16 13 16 18 21 22 25 20 20 17 23 22 22 25 24 26 27 29 33 36 38 40 43 46 49 51 49 52 52 53 54 57 58 58 57 56 58 60 62 65
22 18 20 20 15 19 19 18 23 24 26 18 21 19 21 23 30 33 28 25 31 36 36 41 45 49 50 53 53 54 53 52 52 53 56 57 57 56 57 58 60 62 65 67
22 19 20 22 22 26 21 24 19 22 21 22 17 23 21 18 27 37 39 36 37 38 44 44 49 52 56 55 54 52 53 51 53 55 56 57 55 56 58 60 61 64 67 69
22 22 27 26 25 27 25 25 22 21 21 23 22 25 24 28 40 36 40 39 44 46 50 52 49 51 53 54 53 51 53 52 54 55 55 53 55 57 60 60 62 65 69 72
23 24 26 25 26 26 23 20 22 20 22 23 25 26 31 33 40 40 36 42 46 47 49 53 53 52 52 55 54 53 54 54 53 53 53 56 57 60 60 63 64 70 81 83
20 22 23 22 25 25 20 20 20 20 22 26 29 31 31 36 38 41 44 46 47 50 50 52 53 54 54 56 56 53 54 53 53 54 56 57 58 60 64 65 68 72 73 78
22 22 22 24 24 22 21 22 19 21 26 27 27 29 34 36 39 43 45 46 49 51 53 54 53 52 51 52 52 52 53 54 57 57 57 56 59 62 66 70 76 75 80 81
20 20 22 21 21 22 24 20 22 23 28 27 27 31 33 36 39 43 46 49 52 52 51 50 49 50 50 50 51 52 56 57 56 57 55 61 67 71 69 76 79 80 79 74
19 19 19 20 21 19 22 17 21 23 25 27 29 33 36 40 44 46 48 49 49 48 51 47 46 48 49 50 52 52 53 54 55 58 59 58 68 74 84 81 77 70 73 77
20 19 19 19 19 20 18 20 21 24 28 31 34 37 40 43 45 48 48 47 47 51 50 48 49 49 50 50 51 53 54 55 60 62 60 61 75 79 80 82 75 73 77 77
16 15 16 17 20 20 22 25 27 29 32 36 38 41 44 46 47 48 50 46 46 51 50 50 50 50 51 52 53 56 58 59 62 65 63 66 75 83 84 77 76 77 75 70
19 18 21 20 25 28 27 31 31 34 38 40 43 46 45 46 47 48 49 51 51 50 51 50 50 51 53 55 58 60 62 64 66 67 72 72 78 78 75 77 75 79 78 73
23 23 25 26 31 33 35 35 35 40 43 45 47 48 45 46 48 49 50 50 50 51 51 51 52 54 58 62 64 65 66 67 65 69 73 75 75 76 79 79 74 69 65 61
27 29 31 33 33 35 40 40 43 44 46 47 46 46 47 48 48 49 50 50 50 50 51 53 57 60 63 67 69 67 65 64 65 69 73 76 79 77 73 72 71 70 65 60

GFSCGP_500_spd_045.txt.gz
Wind_Speed
4 11 11 12 14 15 6 9 2 9 4 9 8 5 6 1 3 2 1 3 3 5 6 6 7 8 4 8 9 12 15 17 19 19 20 23 22 22 24 24 27 28 31 33
8 11 15 16 8 5 7 3 5 8 6 10 9 6 2 2 4 2 2 2 4 4 5 7 9 6 7 9 16 16 19 22 20 20 21 20 19 20 24 26 29 33 36 38
10 11 8 11 11 6 3 2 10 20 17 10 12 10 11 4 5 4 4 3 5 7 8 14 18 18 16 16 18 20 20 19 16 17 16 17 20 23 28 32 34 38 42 44
16 6 9 17 13 7 9 4 21 10 13 11 14 13 19 21 14 16 10 9 8 9 9 11 16 24 22 22 22 19 18 16 14 15 19 23 26 30 33 37 40 44 46 49
7 11 20 17 14 5 4 9 4 8 5 10 10 17 24 23 20 22 19 9 13 18 17 13 13 20 24 24 20 16 15 15 17 20 25 30 33 36 39 42 44 48 50 51
7 10 19 9 8 5 1 4 8 12 15 17 9 14 7 18 10 16 20 2 16 20 19 16 13 14 17 23 18 16 17 18 24 28 31 35 38 41 45 49 51 54 56 56
10 13 6 9 1 4 12 11 16 17 14 10 11 10 10 16 14 13 12 11 12 21 20 17 13 11 10 13 17 19 22 22 27 32 35 39 43 46 50 53 55 56 57 57
13 8 9 9 10 15 13 14 17 17 14 20 11 13 7 13 15 13 16 11 9 11 15 14 12 11 13 17 20 23 27 27 30 35 39 43 46 49 52 54 54 55 56 58
17 20 21 19 23 18 16 19 16 16 11 9 4 12 16 12 17 14 11 11 11 12 13 14 15 15 18 21 24 28 32 33 35 37 41 45 48 50 52 53 54 55 56 57
22 22 15 21 12 13 12 11 5 13 12 8 10 14 14 14 15 12 12 13 14 15 16 18 20 21 23 25 28 31 35 38 40 42 45 47 50 50 51 53 52 55 56 57
24 27 21 27 18 15 10 13 14 15 15 12 9 15 15 13 12 17 17 15 16 19 20 22 24 25 28 30 32 36 40 44 45 44 45 49 51 50 52 53 56 57 48 60
25 21 29 4 11 10 10 14 16 17 13 19 14 14 22 15 20 21 22 21 19 21 24 26 28 30 32 35 38 38 41 45 47 48 48 51 51 48 53 56 57 56 51 58
20 24 23 19 10 9 14 16 18 19 21 18 20 12 18 22 26 28 31 27 26 26 29 30 34 36 38 42 39 41 45 47 46 50 50 50 46 54 56 58 57 55 56 59
21 24 22 19 19 18 19 19 17 21 26 23 21 15 17 23 25 31 34 32 28 25 33 37 39 42 46 41 42 45 48 49 51 52 52 54 56 56 58 56 56 57 59 61
23 22 21 22 22 22 26 22 17 21 17 20 13 18 16 20 27 30 34 34 33 37 40 43 46 45 40 39 43 45 48 51 54 53 55 57 56 56 55 58 59 59 59 61
24 23 24 25 24 24 26 22 20 24 22 21 19 18 17 25 30 33 35 36 38 41 44 46 50 49 49 41 42 45 54 55 53 55 55 56 54 55 58 60 60 59 63 64
25 25 26 27 26 27 28 19 24 22 22 22 24 25 26 28 31 34 35 35 36 41 44 47 50 49 51 52 40 51 53 52 52 53 53 53 55 57 57 59 58 67 72 79
26 27 27 24 25 28 21 24 20 21 22 24 25 25 25 26 29 32 37 40 42 43 45 46 48 50 51 50 49 51 50 50 52 53 54 55 55 56 57 60 62 66 68 81
24 24 25 25 25 25 23 21 17 22 23 23 23 24 27 28 32 34 36 38 42 44 48 50 51 49 48 48 47 47 50 52 54 55 55 56 56 56 62 69 69 68 74 75
25 22 25 24 25 24 22 22 19 23 26 22 24 26 28 30 32 34 38 41 44 47 48 47 46 45 45 46 49 50 51 52 53 54 56 57 60 58 61 70 72 73 76 81
26 26 24 24 23 23 20 18 21 25 25 22 24 25 28 31 34 37 41 45 47 47 47 47 46 46 48 48 49 50 51 53 54 55 58 62 64 64 68 73 76 79 78 80
26 25 22 21 19 20 19 19 20 20 21 24 27 29 32 35 38 43 44 45 44 45 48 49 50 50 51 51 52 52 53 55 57 60 63 64 65 68 68 72 74 76 77 78
26 24 22 21 19 19 19 18 17 20 25 28 30 33 36 39 42 45 46 47 46 45 46 47 49 50 52 53 53 54 56 60 64 66 68 68 69 70 71 71 73 77 77 71
19 19 18 19 19 20 20 22 23 26 30 32 35 38 41 43 45 46 46 47 48 49 49 50 51 51 51 52 54 57 61 64 65 65 66 69 71 71 71 73 75 71 67 66
19 20 19 22 23 24 26 28 29 32 34 37 40 42 44 45 45 46 47 48 49 51 52 53 53 51 52 56 60 62 63 62 64 65 67 69 71 72 72 69 65 66 70 71
24 22 24 25 27 30 33 35 36 39 41 43 44 45 46 47 47 48 48 49 51 52 52 51 52 55 59 61 61 61 61 62 65 67 69 70 69 67 64 64 64 69 73 72

GFSCGP_500_spd_048.txt.gz
Wind_Speed
4 5 12 16 15 15 16 21 14 13 13 5 9 6 2 5 7 2 3 2 2 2 2 5 5 2 5 6 8 8 11 13 14 15 15 17 16 15 14 16 19 23 26 29
4 7 7 9 15 10 20 8 9 12 8 7 7 2 9 7 8 4 3 2 4 2 1 3 6 6 7 10 13 13 16 15 15 16 15 14 12 14 19 23 26 30 32 36
5 12 11 12 13 13 8 9 13 17 9 4 3 11 10 8 8 6 3 3 2 3 3 3 4 4 4 7 13 17 14 13 13 14 13 14 16 20 25 28 31 35 38 41
2 5 8 19 18 10 4 5 9 12 11 13 17 15 11 12 6 3 3 6 4 1 6 7 7 8 7 9 12 15 12 12 12 14 16 19 22 26 30 33 36 39 42 44
1 6 13 16 16 6 9 5 2 13 16 15 13 14 8 13 14 9 11 8 7 7 5 5 6 7 11 11 10 9 8 11 13 15 20 24 27 31 35 38 40 43 46 47
3 8 17 19 16 10 7 6 3 10 16 14 14 17 9 14 16 6 5 8 7 4 5 6 2 3 5 8 9 9 9 14 18 21 26 28 31 35 39 42 44 46 47 48
7 7 22 18 16 11 8 6 12 14 15 14 18 20 5 11 7 4 4 5 5 7 4 4 4 4 3 7 10 14 15 18 22 25 28 31 35 40 43 45 47 48 51 54
10 11 14 18 15 12 9 10 19 23 19 17 20 20 18 11 3 4 2 5 8 4 3 5 3 5 9 12 15 19 19 22 26 29 32 34 40 44 47 49 50 53 54 53
18 14 22 14 16 15 15 14 16 22 20 13 13 22 14 11 11 12 6 5 8 8 7 6 7 10 14 17 20 22 25 29 31 33 36 39 45 48 50 50 52 51 51 51
20 22 21 20 19 20 17 18 16 18 18 13 14 21 17 15 15 12 10 7 11 10 10 11 12 14 18 21 26 29 32 35 39 40 41 43 44 41 46 48 46 49 51 57
24 26 23 23 19 12 20 18 19 15 12 15 14 19 20 18 16 15 15 14 14 13 13 14 16 18 21 25 30 34 38 42 43 41 40 42 45 47 48 49 49 53 56 60
27 26 26 21 26 25 23 16 20 17 14 16 18 16 18 22 23 23 22 20 18 16 17 19 21 22 25 28 32 37 41 42 42 45 45 48 50 46 50 51 54 56 60 60
28 26 20 20 19 14 15 20 19 20 21 22 23 15 19 22 23 28 30 27 23 22 23 25 25 28 31 33 36 36 35 37 39 41 47 50 47 57 53 57 53 56 58 60
22 21 24 21 16 21 21 21 21 21 22 22 23 20 22 24 25 28 31 31 25 21 23 27 30 32 33 33 33 32 40 39 41 44 42 43 56 52 57 55 54 58 61 63
25 25 23 21 20 23 24 26 23 25 24 24 19 20 19 24 30 29 29 31 27 26 28 31 32 35 36 36 41 42 40 41 45 45 49 55 48 56 55 57 59 60 61 61
29 27 25 24 23 25 27 28 26 22 23 26 26 23 21 22 28 28 28 29 30 32 34 36 38 38 40 41 43 42 43 41 44 45 53 51 50 56 57 59 59 58 60 62
23 25 25 26 25 27 30 26 30 30 30 28 27 26 25 24 25 25 27 28 31 34 37 39 42 45 45 46 39 41 36 41 48 50 49 51 54 57 58 58 58 59 64 67
24 26 28 27 27 32 29 30 30 28 27 26 26 24 24 23 25 26 28 31 34 36 38 40 42 44 47 48 48 47 48 49 47 49 53 54 55 56 58 59 63 67 71 70
29 28 28 30 30 31 28 30 26 24 26 25 24 23 22 24 26 29 31 33 35 36 39 41 44 46 48 50 49 47 48 50 50 52 52 54 56 57 60 62 64 70 73 75
30 28 29 31 30 31 24 28 27 24 27 23 22 22 24 27 30 31 33 34 37 39 41 44 47 48 46 44 46 48 48 49 50 51 52 54 57 62 64 65 68 71 72 76
29 31 32 31 31 30 24 25 27 25 21 19 22 25 27 30 31 32 34 36 39 42 45 47 46 46 46 48 48 48 48 49 51 52 54 57 59 65 66 66 68 71 74 77
32 33 31 31 30 29 23 24 22 19 21 21 24 26 28 30 32 34 37 39 42 44 46 47 48 49 50 50 50 51 51 50 52 55 59 62 62 63 66 68 70 72 74 75
34 31 31 29 28 24 22 20 19 17 20 23 26 28 30 33 35 37 41 43 45 45 46 47 47 49 50 50 51 51 50 52 57 60 61 61 62 65 68 70 72 74 74 73
33 33 30 29 27 25 22 18 18 21 24 26 28 31 33 36 38 41 43 45 46 47 47 48 49 50 50 51 51 51 54 58 60 61 62 63 65 68 71 73 74 73 70 68
30 28 28 26 24 22 22 23 24 26 28 30 33 35 37 39 42 44 46 47 47 48 49 50 50 51 51 51 53 56 59 60 61 62 63 66 69 71 73 74 73 70 67 68
30 27 26 25 25 25 26 28 29 30 33 35 37 39 41 43 45 47 47 48 48 50 51 51 52 52 53 55 58 60 59 59 61 64 67 70 72 74 75 74 71 68 67 68

GFSCGP_500_spd_054.txt.gz
Wind_Speed
12 14 10 10 9 12 12 7 10 8 12 14 16 16 16 15 11 5 6 5 6 7 7 7 7 8 9 9 9 8 8 8 8 9 9 8 8 7 8 8 10 15 18 22
9 10 9 5 7 8 10 10 13 12 11 17 15 12 15 14 13 10 8 5 3 6 9 10 11 12 13 13 13 12 10 9 9 10 9 8 8 7 9 11 16 21 24 26
8 6 7 3 8 10 10 14 15 14 12 14 11 4 11 10 10 13 12 10 6 6 8 11 12 11 10 10 10 11 11 10 10 10 10 9 8 9 13 18 22 26 28 31
10 6 7 7 9 11 12 11 10 13 14 14 20 11 8 11 9 9 9 9 8 9 10 10 9 10 11 11 13 11 10 12 12 10 12 12 11 14 19 21 26 30 33 36
13 10 10 10 13 12 7 8 12 15 18 15 13 11 10 11 11 13 9 11 14 15 14 13 10 9 12 14 15 15 14 13 13 13 12 14 16 19 21 24 31 36 39 42
16 13 12 10 17 15 8 6 12 12 14 14 12 6 5 6 8 15 14 14 17 18 16 18 17 17 18 20 17 17 15 15 15 15 14 16 19 21 22 29 38 42 45 46
18 14 13 16 19 16 11 11 14 14 14 14 14 11 4 9 11 6 15 19 13 18 21 22 22 23 23 21 18 16 13 14 17 18 16 20 22 25 26 35 42 46 45 46
20 17 18 17 20 22 21 15 14 15 15 16 18 13 10 10 14 14 13 14 14 13 17 21 20 19 19 19 16 13 14 17 20 20 18 22 26 29 32 41 44 43 44 47
19 17 20 20 23 23 21 19 16 17 19 20 19 19 15 15 17 16 12 12 14 15 17 18 17 17 17 15 14 14 16 19 21 21 23 28 31 36 41 41 42 46 45 48
18 21 17 22 27 26 19 18 19 20 23 22 17 16 16 13 11 15 13 14 18 18 17 18 17 16 16 17 18 17 20 22 24 26 29 32 35 38 38 40 44 41 46 52
19 24 22 24 26 25 26 24 22 18 21 21 14 12 16 15 16 17 19 21 20 19 20 18 17 17 18 19 19 20 24 27 30 32 34 35 38 39 38 40 44 48 51 57
21 24 26 26 28 28 29 29 27 21 21 21 21 9 16 19 18 19 20 21 20 20 21 21 21 21 22 22 24 27 30 31 32 34 34 37 39 41 42 43 44 54 55 59
20 23 26 28 33 31 30 26 26 28 26 20 21 12 16 19 20 23 27 28 28 24 25 25 25 26 27 30 32 33 34 36 37 38 37 39 40 45 45 46 49 59 61 62
23 25 26 28 27 24 30 27 29 29 24 18 16 17 18 22 23 26 29 31 29 27 23 22 27 30 31 33 35 35 35 33 35 36 38 40 45 46 49 49 61 59 61 64
25 27 26 24 26 27 27 25 25 27 26 25 15 21 20 21 24 27 30 28 25 22 22 23 25 27 30 32 33 33 34 34 34 34 42 42 42 44 52 52 57 58 61 61
26 26 23 24 26 30 29 25 25 26 29 28 25 25 25 26 26 26 29 29 28 26 24 25 27 29 30 30 33 34 33 33 37 39 42 46 44 45 51 54 57 57 61 61
27 27 24 26 27 29 32 22 26 26 27 28 25 25 29 29 30 30 30 30 29 30 29 28 29 30 32 33 34 35 37 40 42 45 47 48 49 51 52 55 57 58 61 60
29 28 28 29 30 33 25 24 23 25 26 28 28 30 32 33 32 32 30 31 30 29 29 29 30 31 33 33 35 38 41 43 46 48 49 50 51 53 55 56 58 59 60 61
28 30 31 33 30 28 23 19 23 27 25 27 29 30 31 31 32 31 30 30 30 29 29 30 31 32 33 36 38 41 43 45 47 49 50 51 52 54 55 57 57 57 56 70
30 32 30 32 33 31 23 23 28 29 25 24 27 29 30 30 30 31 31 30 30 30 31 32 31 33 36 38 41 43 46 48 49 50 51 52 53 54 55 57 58 60 63 67
32 33 31 30 34 32 29 28 28 31 25 29 29 31 30 30 31 31 31 30 30 31 31 32 34 36 38 41 43 46 47 48 49 51 53 54 54 55 56 57 59 62 65 66
33 34 32 32 33 36 30 31 28 31 31 31 32 33 32 31 29 28 27 28 28 30 32 34 36 39 41 43 45 46 48 50 51 52 53 53 55 56 58 61 63 65 66 68
36 35 33 33 33 34 32 31 31 32 33 30 30 31 30 28 27 25 26 28 30 32 34 36 39 41 43 45 47 49 51 51 53 53 53 55 57 59 61 64 65 66 68 71
34 32 31 32 33 34 33 33 33 33 30 31 32 31 29 26 27 28 30 31 33 35 37 39 41 43 46 48 51 52 53 53 53 53 55 57 59 62 65 66 67 68 72 76
38 33 30 32 32 35 32 34 36 31 31 31 29 27 26 28 29 31 33 35 37 39 41 43 45 48 50 53 54 54 54 53 53 55 57 60 63 65 67 67 69 72 76 80
38 36 33 30 31 37 31 33 31 29 27 28 27 26 28 30 32 34 36 38 40 43 45 47 50 52 53 54 55 55 54 54 55 56 59 63 66 68 68 69 71 74 77 81

GFSCGP_500_spd_057.txt.gz
Wind_Speed
13 11 11 5 8 8 7 7 6 8 7 9 11 13 17 16 12 10 8 10 9 9 10 10 10 9 10 12 14 14 15 14 14 13 10 12 12 13 12 10 9 11 11 15
13 9 8 4 7 7 10 8 9 8 9 12 15 15 13 16 13 11 8 10 9 9 11 12 13 11 11 13 14 15 16 15 14 14 13 13 14 12 12 11 13 13 15 19
11 6 8 4 2 5 7 10 9 9 6 12 15 8 10 7 9 11 10 7 6 8 8 8 10 10 12 14 15 14 12 11 13 14 17 16 15 14 15 16 16 19 18 21
10 10 7 5 5 8 8 10 10 7 10 14 15 10 11 14 11 9 7 6 6 8 9 10 10 10 13 14 15 16 15 15 16 17 16 16 13 13 15 16 20 24 23 25
11 12 10 8 9 10 8 6 8 10 10 11 10 16 12 11 12 13 10 9 9 11 13 15 16 18 18 19 20 21 20 18 17 17 17 16 16 17 20 23 23 25 28 34
12 12 13 10 10 13 9 10 9 11 9 11 10 10 9 13 13 15 18 14 17 21 19 18 21 21 19 21 20 19 19 16 16 17 19 19 20 20 22 22 24 24 32 38
13 13 14 11 11 17 15 13 10 9 10 9 11 9 8 10 11 12 16 18 18 18 24 23 22 22 23 24 22 17 15 15 16 17 20 26 29 23 21 24 28 30 33 34
14 15 17 14 15 20 21 15 11 11 11 10 11 11 12 13 11 11 12 10 15 16 19 25 28 28 28 29 23 17 15 15 16 18 24 31 32 23 21 28 31 32 33 35
13 15 17 17 17 22 23 19 17 16 14 14 14 12 14 17 13 15 14 13 11 10 15 23 27 29 27 23 19 16 17 18 19 21 24 31 32 27 30 33 34 35 38 40
16 19 19 21 22 24 26 23 20 19 19 18 12 13 7 15 11 9 15 15 14 16 17 17 19 21 22 22 21 20 20 21 22 24 27 32 32 32 33 34 38 37 38 40
17 15 18 23 20 25 29 27 24 23 20 16 16 9 9 9 11 13 15 15 16 16 17 18 19 20 24 25 24 22 23 25 27 28 30 33 32 34 37 36 33 37 38 38
17 17 17 20 21 22 26 27 30 28 24 21 20 13 15 7 12 15 17 17 20 20 18 22 23 23 24 24 24 26 27 29 32 34 33 34 37 40 34 33 35 38 42 35
19 18 17 23 24 28 26 28 28 27 29 29 25 18 12 16 16 19 19 22 22 22 22 21 25 29 30 30 30 32 33 34 35 35 36 38 38 33 38 41 42 41 31 49
25 22 17 14 16 23 26 23 26 30 30 28 23 14 13 17 17 20 21 22 24 25 25 26 26 30 34 36 36 37 36 35 35 37 37 37 38 37 41 38 42 48 49 53
28 23 17 13 15 22 25 26 27 27 26 28 25 24 16 17 18 22 22 22 23 23 23 23 23 29 31 33 34 35 36 35 35 35 36 36 39 41 43 44 49 49 51 52
28 23 19 17 16 20 24 24 28 27 27 28 30 29 23 23 23 24 24 26 27 27 26 28 26 26 29 30 30 31 32 34 35 35 37 38 40 42 44 46 50 51 52 54
30 27 21 20 18 20 21 18 22 24 27 28 28 25 25 25 26 26 26 28 30 30 29 29 29 30 30 30 30 31 33 34 35 37 39 42 43 45 48 50 52 53 54 56
31 24 23 24 24 27 13 17 21 24 21 23 25 24 25 26 28 29 28 29 31 30 30 28 27 29 29 29 30 32 33 35 37 40 42 44 46 49 51 52 53 55 56 57
31 26 28 29 27 22 18 12 14 19 17 20 22 24 26 26 28 32 33 33 32 31 28 27 27 27 28 30 30 32 34 37 39 41 43 46 49 51 52 53 54 55 56 58
33 29 30 30 29 23 15 18 18 20 15 17 23 24 26 27 28 31 32 32 30 28 26 26 27 29 30 30 32 34 36 38 41 43 46 48 51 53 54 56 57 57 58 60
33 30 31 31 29 25 20 20 21 23 20 21 25 27 27 28 30 30 30 28 27 27 27 27 28 28 30 31 34 36 38 41 44 45 48 51 53 54 56 56 56 57 59 60
37 36 32 33 32 26 19 22 24 21 23 27 29 30 29 29 29 28 27 25 25 25 25 26 28 29 31 33 36 39 42 44 47 50 52 54 55 56 55 56 57 56 58 61
41 35 31 33 32 27 24 24 26 25 25 29 32 32 31 31 29 26 26 26 24 25 27 29 30 32 35 37 40 42 45 48 51 53 55 56 56 56 56 57 57 60 64 67
42 37 37 34 29 26 27 27 27 27 29 34 33 32 32 30 30 29 26 26 27 29 30 32 34 37 39 42 43 47 49 52 55 56 56 56 56 57 59 61 62 66 71 73
42 40 37 34 27 27 27 25 27 30 35 36 33 32 30 29 28 27 28 28 30 32 34 36 39 41 43 46 49 51 53 56 57 57 57 57 58 60 62 63 67 72 77 80
42 41 38 34 31 34 30 28 30 33 37 31 29 31 28 27 28 29 30 32 34 36 38 41 43 45 48 50 52 55 57 58 58 58 59 60 61 61 62 66 72 76 78 78

GFSCGP_500_spd_060.txt.gz
Wind_Speed
17 13 12 9 5 6 8 7 5 7 4 8 9 11 17 13 13 10 8 5 6 4 6 7 7 8 8 7 7 7 8 10 9 11 12 11 13 14 16 17 16 16 15 15
15 10 7 3 1 5 7 5 7 7 6 10 12 11 16 15 13 9 7 8 8 7 8 10 10 13 14 14 14 15 15 14 14 14 14 14 16 16 17 18 19 18 16 16
14 11 6 2 2 5 8 10 9 10 8 11 12 10 9 10 6 8 8 7 6 8 9 9 9 10 11 13 15 16 16 15 14 14 17 18 17 16 18 17 19 19 20 21
15 11 8 5 4 6 6 10 9 8 7 6 9 7 7 12 10 8 8 7 7 8 8 7 8 9 9 10 12 13 14 15 17 16 17 18 18 17 18 17 19 20 22 25
13 11 10 9 9 8 10 9 8 7 9 7 7 11 9 10 13 12 9 9 9 9 10 10 12 13 13 13 15 16 17 18 18 19 18 20 20 19 21 21 21 22 25 26
17 12 9 12 9 9 11 13 10 7 9 12 10 10 9 13 15 14 15 13 12 13 14 16 18 19 19 20 20 20 19 19 19 20 20 22 22 23 25 23 27 26 25 26
15 14 10 14 13 11 16 14 7 6 8 9 10 9 10 12 13 18 19 21 19 20 18 17 20 20 20 22 22 19 16 17 15 17 19 22 23 25 31 31 34 23 26 28
16 15 11 14 15 12 17 19 14 8 7 8 7 6 10 15 15 16 19 22 22 22 22 21 20 21 26 26 24 20 16 16 15 17 20 22 23 27 33 38 29 24 27 31
17 17 12 15 18 16 22 22 18 13 11 11 11 10 13 17 16 16 16 20 18 16 15 17 20 22 24 27 27 26 19 18 18 21 22 25 27 29 31 40 36 30 33 35
20 20 17 16 20 20 22 24 22 22 19 15 15 11 10 16 16 16 16 19 21 16 15 15 17 21 25 25 26 26 23 22 22 24 25 28 30 34 37 38 34 36 40 32
22 21 19 17 17 21 23 27 27 26 23 19 17 12 11 14 14 16 15 17 20 19 19 20 21 18 18 21 23 24 26 27 26 28 28 30 33 38 39 38 40 39 35 38
22 23 20 18 18 21 24 27 30 28 26 22 24 17 16 18 17 16 16 16 18 21 23 21 23 22 21 21 22 26 28 30 31 30 32 35 37 40 40 42 42 40 39 43
25 26 24 22 20 21 23 23 25 27 25 23 27 24 27 21 23 20 19 20 18 19 19 20 22 25 29 30 31 32 33 34 34 35 38 40 40 41 43 44 43 40 39 37
30 29 25 21 17 19 23 25 25 25 28 22 24 23 22 20 22 23 23 21 21 22 22 22 22 23 29 33 37 39 40 39 38 40 40 40 41 43 44 43 43 43 41 44
36 35 25 20 19 24 23 23 26 30 27 28 21 24 24 21 24 25 25 23 23 23 23 22 24 26 25 31 37 39 39 37 36 38 40 40 40 41 41 42 43 44 45 47
37 35 28 24 22 22 22 21 26 26 28 27 26 24 27 24 28 27 26 26 25 25 27 26 26 28 28 28 31 33 33 33 33 35 36 36 38 39 40 41 43 45 47 50
39 37 31 27 24 23 17 14 19 20 21 21 24 23 26 26 24 27 26 25 26 28 31 31 29 28 29 31 33 34 34 34 34 35 35 36 37 39 40 42 45 47 51 53
38 36 32 31 26 28 13 16 18 18 18 23 24 21 21 23 22 22 24 27 27 28 30 30 29 28 28 29 30 31 33 34 35 34 35 37 38 40 43 45 47 50 54 56
35 35 34 32 28 25 19 13 15 18 17 20 19 20 20 21 21 22 24 26 27 26 26 27 27 27 26 27 28 30 32 32 33 34 36 38 40 43 45 48 51 55 57 58
39 36 35 34 32 27 15 15 17 20 9 14 20 20 21 23 23 25 26 27 27 26 24 25 25 26 27 28 29 30 31 32 34 36 38 40 43 46 50 53 56 58 59 59
42 38 36 32 32 26 18 17 19 22 8 24 22 23 24 25 26 27 28 29 29 28 26 25 25 25 26 27 28 30 32 34 36 38 41 43 47 50 53 57 58 58 58 58
42 40 37 34 34 30 19 22 24 20 22 23 25 26 29 28 27 28 30 30 28 28 27 27 27 26 27 29 31 33 34 36 39 41 45 48 51 54 57 59 59 59 59 60
45 41 38 36 33 30 30 28 25 25 26 24 26 29 30 29 29 30 30 31 30 29 30 29 28 29 31 32 34 36 38 41 43 46 49 52 55 58 60 60 60 60 61 62
45 42 42 38 34 31 31 29 27 29 30 27 29 32 30 33 33 32 31 32 32 32 31 31 32 33 34 36 38 40 42 45 48 50 53 56 59 60 60 59 60 62 64 63
43 44 45 41 36 33 35 34 31 32 31 30 31 31 30 32 34 32 30 32 31 31 31 33 35 37 38 40 42 44 47 50 52 55 57 60 61 61 60 62 64 64 62 64
41 42 46 43 39 40 41 35 30 33 34 33 34 34 36 33 34 33 32 31 32 34 35 36 38 40 41 43 45 49 52 55 57 59 61 61 61 61 63 64 63 63 66 69

GFSCGP_500_spd_063.txt.gz
Wind_Speed
18 15 13 7 11 8 15 13 9 11 17 18 10 2 10 23 19 15 13 8 6 4 4 2 2 4 6 5 4 5 9 8 7 4 3 4 5 7 9 11 13 14 19 20
18 13 10 6 4 6 10 7 8 13 13 12 10 6 18 13 17 13 12 7 5 4 5 6 5 4 5 5 5 5 5 5 4 5 7 8 10 11 13 15 17 20 21 19
17 14 10 7 6 7 12 10 17 16 4 7 6 6 13 18 18 7 11 8 3 7 5 4 4 5 5 5 6 6 7 8 10 11 12 12 14 16 17 18 19 20 19 20
17 14 12 10 9 9 5 9 15 14 12 13 15 18 15 14 6 4 4 5 6 7 4 4 4 5 6 7 8 9 10 11 13 13 15 16 17 17 18 18 19 20 20 22
15 16 13 12 12 13 9 16 12 11 9 9 4 9 12 5 9 10 9 8 9 7 5 6 7 8 9 9 10 11 12 13 14 15 17 18 18 20 20 20 22 24 23 25
23 18 15 11 15 13 13 8 9 8 8 7 9 8 7 10 7 11 14 13 12 9 9 11 13 14 15 15 15 15 16 15 14 17 19 21 22 22 22 24 26 27 29 29
24 16 16 12 14 16 14 13 6 9 12 8 14 12 13 10 15 17 17 17 18 15 14 15 17 18 16 17 19 18 18 18 17 16 17 19 19 21 20 22 25 28 40 33
23 21 17 11 14 15 15 16 9 8 8 16 10 6 11 19 19 17 16 18 20 22 24 25 23 21 19 17 19 21 20 20 18 19 18 18 19 21 22 27 28 29 38 41
27 21 20 17 16 19 15 20 19 16 18 13 10 8 11 20 18 20 20 21 24 23 23 21 19 18 17 17 20 22 21 20 18 21 22 22 23 24 26 27 31 35 39 39
28 22 23 18 19 21 21 19 21 23 16 13 12 12 15 15 17 16 20 23 22 25 25 21 18 17 16 18 18 19 20 21 21 21 23 25 28 30 31 31 34 39 41 42
33 28 31 24 19 17 23 24 22 20 20 17 14 12 12 15 13 16 19 21 23 25 24 22 21 19 21 21 22 20 22 24 25 25 26 27 31 31 34 38 40 40 41 43
34 32 29 22 19 21 18 23 24 26 23 26 25 19 19 19 19 20 18 20 21 21 24 25 23 22 22 26 26 24 25 28 29 29 31 30 32 35 38 42 46 45 44 45
38 38 31 22 25 22 22 21 22 25 25 27 25 20 12 22 23 25 17 22 22 23 23 24 25 26 27 29 30 30 29 31 32 32 33 35 38 41 43 46 46 46 47 48
37 37 36 28 18 18 19 23 24 25 28 26 26 18 20 21 20 22 21 23 25 24 23 23 23 24 27 30 33 36 38 38 39 40 41 43 45 45 46 45 46 47 48 48
42 40 35 31 25 21 19 22 24 26 27 28 24 22 20 22 25 19 28 28 25 28 26 24 25 25 26 28 29 31 35 38 41 40 39 39 41 43 45 46 44 45 46 47
39 41 37 34 33 28 28 25 24 23 24 27 26 25 24 28 24 24 28 32 32 27 27 27 28 29 30 31 30 31 33 35 36 33 34 35 39 38 40 41 42 43 44 45
43 43 38 37 31 30 34 25 24 24 25 23 26 23 18 24 28 27 26 28 32 31 29 29 31 33 34 33 34 33 33 35 37 38 38 36 37 38 39 39 40 43 45 47
43 41 40 35 35 40 22 24 21 25 22 24 26 24 23 26 30 25 21 22 24 27 28 29 30 32 32 32 33 33 34 35 36 37 38 39 39 39 40 41 43 45 48 51
42 37 41 39 38 34 31 27 21 20 21 22 24 21 23 28 22 22 23 24 24 26 27 28 29 31 31 31 31 31 32 33 34 36 38 38 39 40 41 43 46 48 51 53
37 36 37 38 40 42 25 24 20 24 23 21 22 27 25 26 24 27 24 26 25 26 29 30 31 31 31 30 30 31 32 33 35 36 36 37 39 41 43 45 48 51 53 57
49 44 40 38 39 34 27 27 22 29 8 19 25 29 25 27 28 26 27 28 30 30 30 30 31 31 31 31 32 32 33 33 34 35 37 39 41 43 45 48 51 53 57 61
47 43 44 36 39 39 30 25 25 16 24 26 28 32 33 33 32 31 31 31 32 33 33 32 33 32 32 32 33 33 34 35 36 38 40 42 44 46 49 52 55 58 61 64
34 40 43 43 40 33 30 29 27 24 23 28 30 32 33 33 33 31 32 33 35 36 35 34 34 35 36 36 34 35 37 38 40 42 44 45 47 50 54 57 60 63 65 64
46 42 40 41 37 36 34 33 30 28 28 32 32 33 32 33 32 31 33 34 35 37 37 36 36 37 38 36 37 38 39 41 43 45 46 49 52 55 58 61 64 65 63 64
45 47 47 45 43 40 40 35 31 34 36 35 34 35 34 33 33 31 33 36 41 38 36 36 36 35 36 38 39 41 43 45 46 48 51 54 57 59 62 63 64 63 64 67
42 40 42 43 42 42 45 37 39 37 37 36 38 38 37 36 37 36 38 39 40 39 40 39 37 38 39 41 43 45 47 48 50 53 56 58 61 61 63 64 63 65 68 69

GFSCGP_500_spd_066.txt.gz
Wind_Speed
20 19 14 11 10 10 13 23 7 15 22 18 19 14 17 7 5 18 20 13 5 6 7 3 5 3 10 13 14 13 11 12 13 11 9 7 6 6 4 4 5 7 10 11
24 17 14 11 3 10 9 11 15 12 20 16 11 12 18 15 15 20 18 10 8 4 2 5 6 4 6 8 7 8 8 7 6 6 5 4 3 2 4 7 10 12 14 15
23 16 15 10 8 10 8 9 16 17 21 16 8 2 13 16 16 10 8 4 4 4 3 2 2 6 7 6 6 7 5 4 5 5 5 6 7 8 10 12 13 14 15 16
22 19 16 10 10 11 8 8 15 14 12 8 18 19 16 18 9 3 6 5 3 3 3 2 1 1 2 2 3 4 5 5 7 8 9 10 10 11 11 13 14 16 17 18
21 21 18 14 11 16 11 11 19 16 18 14 14 12 4 7 5 9 7 9 4 4 5 2 2 3 5 5 5 6 6 7 7 10 12 14 14 15 14 15 16 17 17 20
26 25 23 16 16 16 14 13 15 14 12 10 6 14 9 16 12 11 18 12 10 7 7 5 1 3 7 6 5 7 8 9 8 10 14 16 17 16 16 16 16 17 21 23
33 31 25 20 18 18 17 13 14 14 10 1 10 8 16 15 14 8 14 22 15 10 9 9 9 12 14 10 10 7 8 9 9 10 13 15 15 17 16 16 16 19 19 28
31 29 23 20 18 17 17 16 18 16 16 15 12 9 10 12 9 10 17 17 19 20 14 15 17 16 14 12 13 12 11 11 10 11 13 14 16 16 19 20 21 24 24 27
31 26 24 23 21 22 14 21 12 24 16 11 3 5 11 18 16 16 14 19 20 20 20 19 17 19 18 16 15 14 15 14 13 13 16 23 17 19 29 28 26 29 28 31
32 26 25 21 24 24 24 18 23 25 19 11 8 10 19 18 22 16 19 16 19 22 21 22 24 23 22 20 17 16 16 16 16 17 18 20 24 27 29 31 29 31 31 35
31 23 25 27 27 23 23 24 25 24 24 23 18 16 24 14 16 12 16 18 16 17 21 23 24 26 24 23 22 19 18 20 22 24 24 23 26 31 34 28 32 35 37 39
40 30 31 34 28 22 24 23 28 31 24 20 22 18 16 14 11 19 22 20 20 18 19 22 24 24 27 25 24 25 21 24 27 29 33 29 26 31 32 36 39 40 43 44
44 34 36 32 34 30 29 26 25 28 28 26 29 23 23 23 17 22 24 26 26 17 22 22 22 24 27 29 29 29 27 30 30 32 31 31 35 36 37 39 42 46 48 47
44 43 38 39 28 24 27 24 28 17 24 26 32 28 21 20 21 22 24 27 29 25 19 25 26 24 26 27 29 32 33 33 34 33 35 39 41 42 45 44 44 44 46 46
43 46 41 40 30 23 21 24 27 30 31 29 23 26 20 13 26 22 26 30 30 27 26 24 27 27 24 25 25 27 30 31 32 35 36 40 41 40 39 39 39 43 44 45
42 45 44 39 37 33 30 23 25 27 28 25 22 23 18 24 28 31 32 37 33 37 27 27 28 34 28 26 28 30 31 33 34 36 37 38 37 35 38 41 42 41 42 43
40 38 45 48 41 42 39 32 31 29 23 21 23 23 26 25 28 34 35 36 25 31 28 30 31 35 32 26 29 34 35 37 38 37 37 37 38 40 41 40 40 42 43 43
41 43 37 42 41 50 42 37 38 34 28 31 28 28 26 25 22 29 36 38 27 21 24 26 27 31 32 32 32 35 37 38 38 38 39 40 41 40 40 41 43 43 43 43
44 45 46 43 42 43 42 32 33 28 27 27 27 25 23 18 24 34 35 30 29 24 26 27 29 31 31 32 33 34 35 37 37 38 38 39 40 41 43 43 43 43 44 46
47 39 42 44 46 48 40 34 31 30 32 21 24 27 24 30 33 34 26 27 29 29 28 29 30 32 33 34 35 35 35 35 35 36 37 39 40 41 41 42 43 45 47 48
41 43 44 43 45 45 38 30 30 37 25 21 27 18 25 33 32 26 29 29 29 31 32 33 34 35 35 36 36 36 35 36 37 37 38 38 39 40 41 43 45 47 49 51
37 39 39 41 41 46 37 32 36 26 20 26 26 27 29 30 31 30 31 31 32 32 33 34 35 36 37 38 38 36 36 37 38 39 39 41 42 43 44 46 48 49 52 56
38 24 40 45 43 37 28 27 29 28 32 30 31 30 33 33 32 32 32 31 31 34 35 37 37 37 39 39 39 40 39 40 40 41 42 43 44 46 48 50 52 54 56 60
44 25 24 36 42 45 44 30 31 40 28 30 32 32 35 38 32 34 34 34 33 35 37 35 35 39 41 39 39 40 42 41 40 42 44 46 48 50 52 53 55 58 62 64
44 46 41 35 25 35 39 41 37 31 35 35 36 36 39 40 38 38 36 36 36 35 35 37 39 41 41 40 41 43 42 42 43 45 48 50 52 54 56 58 60 64 63 64
42 45 51 51 37 37 37 37 38 36 37 42 39 40 41 44 39 37 38 38 40 40 41 41 40 41 41 41 44 45 47 48 48 49 52 54 56 59 62 63 64 65 65 67

GFSCGP_500_spd_069.txt.gz
Wind_Speed
26 27 16 16 16 13 9 6 11 11 15 20 18 19 14 14 13 19 17 12 9 2 5 6 8 12 10 10 13 17 19 20 19 18 18 18 17 16 14 13 11 6 4 3
32 21 17 19 19 18 8 3 5 20 14 14 9 14 11 10 18 14 15 8 5 4 1 2 8 9 9 10 12 14 16 15 14 14 15 15 13 11 7 4 2 2 3 6
34 16 25 19 19 17 5 10 16 22 20 17 18 6 15 12 14 17 13 14 8 4 4 2 2 7 9 10 9 9 10 10 10 10 9 9 7 5 2 0 2 5 6 7
35 28 33 22 21 15 9 12 19 21 20 23 21 12 16 20 7 6 9 7 4 7 4 3 3 6 7 7 8 8 8 8 7 6 4 3 3 3 3 3 4 7 8 9
29 31 32 20 18 16 12 17 15 17 14 17 17 15 9 9 3 4 4 5 7 4 3 2 6 6 5 3 4 5 6 6 3 1 2 3 4 5 6 6 5 7 10 9
33 25 29 23 19 20 17 22 15 17 15 16 10 18 11 7 6 8 11 6 11 8 2 4 2 2 5 3 1 2 4 4 2 1 3 4 4 5 6 8 6 9 12 12
29 33 33 30 26 25 23 20 17 15 16 11 19 15 7 10 6 8 5 8 13 16 7 6 6 6 8 4 4 2 2 4 4 5 7 7 9 7 9 10 10 13 14 13
34 36 33 31 27 25 22 18 20 17 15 17 15 7 11 8 2 6 11 11 15 14 9 10 12 9 9 8 8 9 9 9 10 11 13 13 13 12 14 16 13 19 19 21
37 37 27 32 25 28 24 23 11 23 17 19 14 13 8 12 12 12 9 13 15 16 13 15 12 13 7 9 11 13 14 15 15 17 16 16 19 20 20 24 22 25 24 25
39 41 32 29 29 28 29 23 20 23 20 19 13 14 16 18 21 16 13 13 13 14 15 13 15 14 14 16 17 17 17 17 18 18 19 19 22 24 26 28 28 29 31 26
39 40 36 34 37 29 31 29 29 26 25 25 14 18 19 21 22 14 12 11 9 11 13 13 16 20 20 19 20 21 20 21 23 24 21 23 26 27 31 33 36 38 28 30
26 24 44 42 34 29 25 31 30 30 27 26 24 21 20 20 15 17 17 17 19 15 14 16 17 18 18 15 14 15 23 25 25 27 26 29 31 30 37 40 44 31 32 37
25 32 42 41 37 33 34 29 27 32 30 31 27 25 24 19 19 24 23 24 28 23 20 15 17 19 21 21 19 20 25 31 26 33 26 29 29 34 29 29 34 36 38 39
28 33 45 43 42 38 33 31 31 34 38 36 32 28 30 21 20 20 25 25 29 30 25 24 17 20 23 22 23 24 30 28 22 24 23 29 29 35 35 36 38 39 39 37
33 32 49 50 32 42 34 29 29 32 30 28 21 25 25 27 26 27 26 22 28 27 30 28 24 26 18 19 24 26 30 31 31 28 28 29 32 35 37 39 39 39 38 39
37 36 54 49 44 24 32 31 25 25 28 29 28 28 23 16 26 29 28 33 27 30 33 31 32 32 23 18 22 25 29 32 32 32 33 34 37 39 39 39 38 39 41 44
31 28 57 53 39 42 43 37 29 29 24 27 31 28 22 22 28 29 34 38 36 30 17 23 29 31 31 22 23 25 28 30 32 34 36 38 40 40 41 41 41 44 46 43
39 37 53 58 39 50 51 37 36 33 31 26 28 27 25 27 29 33 36 39 37 24 22 31 31 28 26 24 23 26 28 30 32 34 36 38 39 40 41 42 43 42 42 42
38 35 53 43 48 53 51 45 34 37 38 36 35 31 31 33 35 30 32 37 36 35 28 25 26 26 28 28 28 29 31 33 35 36 38 38 38 39 41 41 41 42 43 43
34 42 51 54 56 57 51 47 41 39 43 38 32 33 35 36 36 31 30 33 32 31 30 27 27 28 29 31 32 34 35 36 38 39 40 39 38 40 41 41 42 43 44 45
37 34 48 49 51 47 48 42 37 50 42 25 27 28 32 33 32 32 33 32 29 31 31 32 31 30 31 34 34 34 35 37 38 39 39 39 40 42 43 42 43 44 46 47
36 35 42 44 45 46 42 43 40 41 32 26 30 33 34 30 36 29 24 29 29 30 30 33 35 35 35 35 34 35 36 38 39 39 40 41 43 44 44 44 45 47 48 51
36 31 43 42 46 37 29 37 40 39 34 35 39 39 37 31 29 30 32 32 32 33 33 34 35 35 35 36 35 35 35 37 38 39 40 41 43 44 45 46 48 50 52 54
38 32 38 34 36 40 38 35 28 40 43 40 38 40 38 36 37 36 34 36 36 37 37 37 36 37 37 36 37 39 38 38 39 40 40 41 43 45 47 50 53 54 55 55
37 37 38 31 31 34 41 29 34 31 36 42 46 44 39 43 40 36 37 40 40 38 41 41 38 38 39 40 40 40 39 38 40 40 42 44 47 48 50 52 55 57 58 62
33 40 40 42 34 35 35 42 37 43 33 37 43 48 45 44 43 41 41 42 43 44 43 42 41 40 41 40 41 43 43 43 43 44 46 49 51 51 52 55 57 60 63 64

GFSCGP_500_spd_072.txt.gz
Wind_Speed
30 31 16 16 21 22 20 19 17 19 6 13 15 10 15 10 4 7 10 6 7 6 1 7 7 7 7 10 12 5 6 8 10 11 13 15 16 18 17 18 16 15 14 13
38 25 19 25 26 24 22 20 18 20 6 12 8 8 18 11 6 5 7 1 9 6 3 5 6 6 10 7 13 16 20 18 16 17 16 18 18 18 17 15 13 11 11 10
38 22 29 29 29 26 21 19 22 19 12 20 16 14 20 10 8 11 2 5 8 5 4 7 6 6 8 8 8 11 13 15 15 14 13 13 12 12 11 11 10 10 9 8
41 27 31 35 32 27 22 20 26 16 19 23 18 13 21 20 14 3 6 9 7 5 6 8 6 6 7 8 9 10 11 12 13 14 12 12 11 8 6 6 6 7 8 8
37 28 32 35 28 33 18 26 22 19 20 20 16 16 17 19 6 2 3 10 8 6 7 10 8 8 9 10 8 8 7 7 7 8 9 9 9 10 8 7 8 9 10 12
44 31 36 33 31 33 22 29 24 22 23 18 13 20 16 18 10 5 5 7 6 5 4 7 8 6 5 8 12 10 8 8 9 10 9 9 10 10 10 11 12 11 12 12
43 35 34 35 36 32 29 32 27 24 23 14 20 15 9 7 12 7 9 3 4 6 6 7 8 7 4 3 6 8 9 10 10 9 9 10 11 9 11 12 12 14 13 13
43 37 35 34 35 34 35 30 27 26 22 18 22 13 14 13 10 7 5 1 3 7 6 6 8 11 12 7 5 4 6 8 9 11 12 14 14 12 13 14 16 17 19 20
42 42 31 31 34 37 36 35 22 27 30 25 22 17 23 21 13 11 8 2 5 6 2 7 12 10 10 10 6 6 7 9 10 14 17 17 16 16 18 21 20 21 23 26
34 37 35 36 37 36 41 28 30 29 27 26 20 20 25 22 12 8 10 8 8 8 5 5 5 12 11 10 11 11 11 13 15 16 17 18 22 23 24 27 25 24 29 31
32 37 37 41 40 37 39 35 32 32 30 20 18 18 20 19 15 14 8 14 11 12 9 7 5 6 11 12 11 11 14 17 19 20 22 25 26 28 29 30 29 33 33 41
34 37 41 39 34 40 40 36 32 36 29 25 25 23 21 18 17 19 14 14 15 15 17 18 12 7 8 9 10 13 18 22 24 25 28 32 33 34 35 35 32 33 28 35
34 38 36 37 36 43 50 43 30 34 32 32 29 23 26 23 24 25 24 20 20 18 17 22 20 19 11 12 11 14 17 21 22 30 24 21 26 32 26 33 27 25 34 34
38 37 34 35 29 41 49 42 29 31 38 36 38 27 25 28 28 26 27 24 24 25 17 10 19 21 19 16 19 19 19 20 23 23 22 22 27 29 29 29 28 30 34 35
35 38 34 35 26 45 50 47 38 32 32 34 31 36 31 29 26 27 30 28 29 29 26 20 24 20 21 22 21 24 25 22 24 25 25 23 28 31 31 34 33 35 36 37
32 36 27 25 28 49 51 52 44 39 40 36 29 38 30 31 35 30 34 36 32 30 33 31 26 22 12 21 22 26 30 31 27 26 26 27 28 30 32 35 36 39 39 39
32 31 32 33 27 51 55 44 49 43 40 35 35 31 31 27 26 30 33 40 34 35 31 26 22 22 21 12 13 18 24 29 30 28 27 29 31 33 35 36 38 39 40 41
36 31 29 33 34 47 51 39 47 44 36 31 30 28 27 30 28 29 32 35 33 32 33 24 23 26 24 23 20 18 21 24 27 29 31 33 36 38 39 40 42 42 42 42
26 37 33 30 29 33 50 43 34 40 37 31 33 32 28 29 33 36 38 35 37 38 38 33 26 26 31 29 27 26 25 25 27 30 32 33 34 36 39 41 42 42 43 44
43 39 36 35 35 31 41 51 49 37 42 38 38 38 31 30 33 34 31 32 30 32 34 31 26 28 27 30 31 31 31 31 31 33 34 35 36 37 39 40 41 43 45 47
40 40 41 39 39 37 37 53 42 44 42 35 31 30 32 36 38 38 39 35 33 35 32 31 31 31 31 32 32 31 33 35 36 36 37 39 40 41 40 40 42 45 47 48
43 45 46 42 35 38 36 49 55 51 51 48 40 35 36 37 41 37 35 31 33 34 31 33 31 30 31 34 36 36 36 38 38 38 40 40 40 39 39 41 43 44 46 47
40 35 38 38 36 35 36 43 45 44 53 53 50 49 48 43 41 37 35 33 35 35 35 34 34 32 34 36 37 37 37 38 38 40 42 42 41 41 42 44 45 47 48 49
41 32 33 39 41 38 35 39 39 42 41 51 52 55 55 50 45 40 40 34 35 40 39 38 37 39 39 40 40 39 39 40 41 42 41 40 41 43 45 47 48 52 52 52
36 35 34 39 34 36 33 35 40 39 37 36 40 49 51 51 49 46 46 42 42 42 39 40 42 41 40 40 39 40 42 43 42 42 43 44 46 47 49 51 54 55 55 57
35 26 31 38 33 33 29 30 34 40 43 39 34 44 48 47 48 50 51 49 50 52 51 47 46 46 43 43 43 43 43 46 46 47 47 47 48 49 51 54 56 57 59 61

GFSCGP_500_spd_078.txt.gz
Wind_Speed
38 42 35 23 26 27 28 30 27 21 25 34 31 28 26 19 21 19 12 13 16 15 10 10 10 7 6 10 12 11 16 15 15 19 23 23 26 19 22 25 22 22 24 25
41 42 23 30 30 31 31 30 26 22 23 34 33 30 26 20 23 15 9 11 16 13 8 9 9 6 4 6 5 6 12 13 15 22 23 22 21 19 20 25 25 27 30 28
39 36 30 31 33 34 31 26 25 28 31 32 35 28 23 16 17 12 9 14 16 12 5 7 8 3 2 2 3 7 6 8 17 22 24 24 25 24 21 22 28 24 22 21
41 38 33 34 36 31 36 23 30 33 33 33 35 28 21 16 15 12 10 14 12 11 9 8 7 4 2 2 1 7 6 6 4 13 22 20 17 15 20 21 22 19 19 19
37 31 30 33 28 33 30 30 36 33 37 36 30 34 15 19 14 14 13 12 12 13 9 8 8 6 2 3 4 4 9 9 5 8 14 15 15 17 17 19 19 19 18 17
41 39 37 36 29 37 32 33 38 35 38 40 26 31 13 22 16 17 10 11 12 11 11 9 8 7 4 4 5 6 8 11 11 11 13 14 14 15 14 13 14 16 16 16
44 43 40 39 36 37 37 37 36 40 41 34 30 30 12 21 19 17 11 13 14 12 13 13 11 8 7 4 5 7 7 5 6 8 9 11 14 16 15 15 15 15 16 17
49 48 44 41 38 36 34 36 38 41 39 34 34 30 13 21 19 16 15 17 18 13 12 16 15 13 11 6 7 8 8 8 8 7 7 8 9 11 11 11 13 16 17 18
49 50 47 45 41 35 36 40 36 36 40 39 38 30 21 22 18 13 20 21 16 15 14 15 16 17 17 14 13 11 11 11 11 11 12 12 12 13 15 15 16 18 17 18
51 51 50 48 43 38 40 37 38 42 44 40 37 31 20 24 21 18 17 19 20 16 15 14 12 17 20 20 19 16 15 15 14 13 14 13 14 17 18 18 17 18 21 21
51 53 50 48 45 39 42 44 44 44 44 38 36 30 19 27 28 20 23 23 23 21 18 14 12 16 16 17 19 19 18 18 16 16 19 20 21 24 25 22 22 19 25 26
51 51 51 47 42 40 43 43 43 43 41 40 37 33 18 27 30 26 25 27 24 26 23 18 13 13 13 15 17 19 21 21 21 20 23 24 26 28 20 22 21 27 18 19
48 51 54 51 47 46 47 48 47 46 44 44 42 33 17 27 31 26 28 30 27 26 21 21 17 17 19 19 17 20 21 21 21 22 23 26 21 17 20 10 13 15 18 18
45 49 48 51 47 47 46 48 50 48 47 46 42 36 23 31 32 29 29 30 27 26 25 25 26 21 25 21 17 18 20 22 25 24 23 22 22 23 18 16 19 18 22 21
38 40 48 46 48 49 47 45 45 46 44 45 42 38 25 27 28 31 31 30 31 30 28 25 27 26 21 22 20 20 24 27 27 27 24 23 26 26 24 23 22 24 25 25
32 37 44 47 48 46 51 49 47 46 46 47 45 44 32 33 36 36 35 33 33 31 32 28 26 23 19 20 20 21 17 24 29 30 29 27 26 26 28 28 28 26 26 27
19 27 20 41 46 46 49 46 43 44 46 49 49 47 38 36 37 40 37 33 30 30 28 26 25 19 19 21 21 22 21 23 26 25 24 22 22 24 25 27 27 27 29 30
37 43 12 35 39 38 45 42 39 38 38 43 44 46 39 39 33 32 38 40 40 33 34 35 33 32 29 24 25 25 22 25 24 23 23 23 24 25 27 29 30 32 34 35
20 35 23 17 36 35 39 38 31 33 35 40 38 38 35 41 41 37 32 29 34 33 29 31 32 31 28 29 26 26 22 26 27 27 28 28 29 31 32 33 35 36 36 38
44 45 40 32 15 31 30 32 33 37 34 30 38 38 35 42 42 34 34 34 37 33 30 30 27 29 30 28 27 27 24 24 26 29 30 32 33 33 35 36 38 40 41 42
28 36 34 34 33 20 21 13 28 37 29 29 31 36 39 44 44 41 42 37 35 36 31 27 27 27 30 31 31 28 28 28 27 29 32 33 33 35 37 40 42 44 45 46
22 27 29 34 35 38 26 20 22 27 25 27 26 37 44 36 43 45 44 40 38 37 29 27 27 29 33 35 31 29 29 30 32 33 34 35 36 37 40 43 44 46 47 48
23 26 34 36 35 37 32 31 29 23 27 22 27 27 34 40 49 48 46 42 41 40 34 31 31 30 31 32 32 33 34 36 36 37 39 41 41 42 43 46 48 49 50 51
21 25 28 34 36 37 39 30 29 28 28 26 26 22 18 32 28 29 46 45 34 36 34 30 32 34 35 35 36 37 36 39 41 44 46 47 47 46 49 51 51 51 53 55
25 26 29 28 33 42 39 36 34 32 30 29 29 28 25 26 30 33 34 39 43 37 35 39 40 40 41 43 42 44 46 45 47 49 47 46 52 54 55 57 57 59 60 60
28 27 31 34 35 38 31 33 35 35 31 31 35 35 29 32 32 35 33 31 33 36 37 37 40 42 43 47 44 45 45 49 50 50 55 56 57 57 59 57 52 54 58 61

GFSCGP_500_spd_081.txt.gz
Wind_Speed
40 43 42 26 30 33 30 31 29 24 30 32 33 26 20 21 21 20 21 27 22 17 15 13 11 12 13 12 15 11 15 18 15 16 16 15 20 16 15 18 19 24 22 19
41 43 31 31 31 32 31 31 24 23 29 37 33 31 23 21 21 19 23 25 22 16 12 13 8 9 8 8 12 8 11 14 16 17 15 16 18 20 19 19 25 24 24 23
36 36 34 35 33 34 30 30 22 27 33 36 34 31 24 20 20 18 21 23 22 13 9 9 6 6 4 4 5 8 1 16 18 17 21 21 18 16 14 14 22 21 22 23
39 38 33 31 30 30 32 24 29 31 35 34 36 30 18 17 17 15 19 24 24 11 8 9 7 6 4 3 2 5 5 5 4 21 20 17 21 23 19 18 16 20 23 25
36 36 33 33 30 30 28 32 32 34 35 37 29 32 12 16 14 17 20 28 23 12 9 9 9 7 5 5 3 3 4 3 4 5 18 21 24 21 23 22 21 18 15 16
36 37 33 35 31 31 33 35 34 35 37 39 22 31 10 13 20 18 25 26 18 12 12 10 8 8 7 6 4 4 5 4 2 3 7 11 12 14 12 11 12 13 15 16
37 38 35 36 34 32 35 33 35 38 40 34 25 34 13 12 16 18 22 21 16 13 14 11 13 10 8 6 7 7 5 4 3 6 6 7 8 9 11 13 13 15 16 16
37 40 41 39 35 32 32 33 37 40 36 33 31 36 11 12 21 15 21 23 20 15 12 15 15 13 10 8 6 6 8 8 8 8 9 9 9 9 10 12 14 15 17 19
37 40 42 41 41 38 37 38 32 37 40 38 36 35 16 9 22 20 20 24 23 17 14 16 17 16 16 13 12 8 7 7 7 8 9 10 11 12 14 15 16 17 15 16
39 40 40 43 43 43 44 41 39 43 43 41 38 36 18 12 21 19 17 22 28 22 18 15 17 18 18 15 17 15 14 12 11 11 10 10 11 12 13 13 15 15 16 16
43 45 42 43 44 41 42 43 44 43 46 42 40 41 20 18 19 19 19 24 25 28 19 17 18 18 17 14 16 19 18 17 15 14 14 14 15 17 18 17 20 20 22 20
43 46 46 43 42 42 44 45 44 45 46 45 42 40 25 20 21 19 23 25 24 26 23 22 21 17 13 11 13 15 18 18 19 20 19 20 22 22 22 24 25 26 27 24
42 45 46 45 40 42 43 48 48 47 48 48 45 44 31 20 25 20 26 27 29 32 30 27 25 21 17 15 16 16 17 20 22 23 23 26 25 24 21 20 22 14 13 14
38 41 44 44 43 43 39 38 47 48 49 47 46 43 35 23 26 24 28 30 31 28 29 31 26 24 22 20 19 19 20 21 21 23 24 25 25 24 21 19 16 15 17 18
34 36 38 41 37 38 42 44 44 49 49 51 46 45 43 28 29 30 27 34 36 32 29 29 26 26 24 21 21 20 20 18 22 27 28 28 26 24 25 25 25 22 21 23
30 32 37 34 32 30 40 39 42 45 47 51 50 47 44 33 33 36 31 36 37 37 31 30 30 26 29 24 27 26 26 24 22 23 25 29 28 27 26 24 25 24 27 24
30 33 28 26 32 40 39 43 41 43 47 48 48 46 45 37 35 34 39 41 38 38 38 35 33 31 32 34 31 28 24 22 23 24 23 24 25 24 23 21 20 21 24 26
30 44 34 27 10 23 32 40 39 38 41 44 46 47 48 42 41 42 43 44 40 38 38 34 32 26 24 28 29 30 26 24 24 27 25 26 27 24 24 24 24 26 27 29
30 43 45 27 16 13 25 25 31 36 36 39 43 44 42 40 39 39 37 44 37 36 35 33 37 33 33 29 27 24 27 27 25 25 26 24 27 28 28 27 27 28 30 32
28 32 41 37 29 21 10 20 21 30 35 31 37 39 35 39 36 27 43 44 41 33 30 32 30 30 22 29 27 27 27 25 24 26 26 25 25 27 28 30 31 32 34 36
19 33 35 33 34 22 17 10 17 28 28 32 32 31 29 25 32 31 33 40 36 38 31 32 32 33 28 27 28 27 29 29 30 27 27 27 28 29 30 32 32 32 33 35
9 12 15 23 19 30 19 15 12 16 18 22 28 31 30 28 32 33 32 34 39 32 30 31 32 32 31 29 29 28 29 31 30 28 28 30 33 33 33 35 36 38 40 42
9 15 16 16 13 16 18 17 20 18 16 15 17 22 24 27 25 40 36 39 38 40 36 35 38 34 33 34 32 33 32 33 30 30 32 34 36 37 38 38 42 45 43 45
12 13 18 17 23 24 28 26 27 26 23 20 17 16 20 21 21 28 37 33 45 45 42 38 40 43 41 41 38 35 36 36 37 37 41 42 43 42 43 45 46 43 49 49
19 16 15 15 19 21 26 27 30 29 22 21 23 21 22 27 21 14 19 28 32 36 31 31 31 43 46 44 40 40 40 41 39 45 41 44 42 42 46 50 50 54 52 52
20 20 21 20 18 18 22 24 25 34 33 30 27 26 27 27 25 24 23 24 28 26 29 31 44 46 46 45 45 43 43 46 42 43 45 43 44 48 52 55 55 56 57 59

GFSCGP_500_spd_084.txt.gz
Wind_Speed
50 48 48 42 33 34 36 34 31 26 38 35 31 32 20 23 21 26 27 24 20 20 19 25 23 17 14 12 13 16 14 17 17 22 18 17 17 16 12 21 28 28 23 22
51 51 46 35 38 32 37 36 27 28 38 37 33 36 22 21 21 24 25 24 20 14 18 23 18 11 11 9 11 16 11 10 16 17 17 16 14 13 14 15 19 25 21 19
45 47 40 38 35 35 35 34 23 33 38 37 37 34 25 23 19 21 22 21 17 16 17 21 10 7 8 7 9 9 8 9 13 19 21 15 14 13 17 13 17 15 16 19
39 46 34 31 33 35 36 30 31 35 37 36 40 35 22 16 19 21 24 20 18 20 14 15 9 7 6 6 8 6 5 6 8 19 19 16 21 14 15 8 11 18 19 18
35 32 34 30 26 30 31 33 34 36 37 37 38 34 19 13 17 22 25 21 19 21 13 14 8 7 8 9 8 7 5 2 5 7 21 25 22 17 17 15 15 14 19 20
35 37 37 30 32 31 31 34 36 36 37 42 30 37 17 13 17 21 23 22 19 20 18 12 10 7 8 8 9 7 7 5 3 4 9 18 16 16 16 18 17 18 18 15
34 34 33 31 30 33 33 32 34 37 41 40 30 38 20 14 15 20 17 21 18 17 17 11 11 8 9 8 8 7 5 4 2 1 4 6 8 7 9 12 11 10 11 10
31 37 38 34 31 31 29 29 33 39 38 35 34 38 22 16 15 24 21 23 20 18 18 13 12 9 10 11 8 6 7 5 5 5 6 7 9 8 7 7 7 8 9 11
30 31 32 35 36 36 34 38 31 35 38 39 38 38 25 16 19 24 23 21 25 20 19 17 15 11 11 13 13 8 6 7 7 6 6 6 6 7 9 10 10 9 9 9
29 30 32 34 35 35 39 40 37 38 40 39 38 37 35 16 19 22 27 22 27 24 21 17 17 15 12 14 14 12 12 11 8 9 9 10 10 11 11 12 12 12 14 14
31 31 29 32 32 32 34 38 38 40 42 40 38 31 41 20 24 19 27 22 24 24 23 22 22 18 15 14 14 14 13 13 13 14 13 13 12 12 12 12 13 15 18 19
32 33 33 32 34 33 33 34 39 42 43 45 43 40 39 19 20 18 24 24 23 24 23 24 24 22 16 17 15 14 13 14 16 17 16 17 16 14 13 12 17 22 24 26
34 36 36 35 34 35 37 36 34 36 41 44 44 41 38 34 24 26 23 26 25 24 23 24 23 23 22 23 19 13 10 13 16 18 19 20 21 17 17 19 17 18 25 24
37 38 39 37 36 37 40 38 41 40 43 41 44 44 42 39 26 27 25 27 28 29 30 29 27 26 27 26 25 23 18 18 21 23 22 23 22 21 21 21 19 19 21 22
40 40 39 38 36 36 39 40 41 42 44 47 40 42 40 41 29 28 27 31 32 33 33 32 31 30 29 29 29 27 23 20 21 24 26 26 28 27 25 25 24 22 23 25
39 32 26 27 30 30 36 36 37 44 44 44 42 42 42 42 31 33 31 34 37 38 38 33 31 32 29 29 26 26 30 30 27 26 28 29 32 35 34 32 28 28 28 25
34 29 20 23 29 26 25 32 35 37 42 47 46 40 39 38 38 33 32 38 40 41 43 40 34 29 29 25 25 27 29 29 30 28 30 27 25 24 24 25 26 28 28 26
31 31 33 26 28 28 20 27 38 37 39 40 42 41 40 37 37 35 39 43 41 45 43 45 39 35 29 30 29 31 32 28 29 29 30 29 26 26 26 27 27 28 28 27
27 30 32 31 30 26 19 5 23 31 36 37 35 34 37 40 41 40 38 41 41 44 46 52 45 44 43 32 31 33 35 34 33 32 29 29 30 29 28 30 32 31 31 32
21 28 27 29 30 35 30 8 14 20 28 36 34 36 36 36 38 38 35 36 37 43 47 53 53 47 42 40 45 43 37 33 33 32 28 27 26 29 29 30 30 31 32 34
13 19 21 22 27 29 30 24 4 22 15 24 27 30 32 32 33 34 35 37 37 38 46 50 58 47 37 32 33 36 35 35 34 31 30 28 31 29 30 31 31 31 32 34
9 8 14 20 22 29 25 21 6 8 13 24 12 22 31 30 29 30 31 32 33 33 42 48 50 44 37 34 34 40 42 37 36 34 33 30 32 33 32 32 31 33 34 36
16 12 9 9 14 19 18 19 18 12 15 18 27 24 24 25 30 32 29 28 32 32 36 47 47 43 41 37 33 34 39 37 36 36 42 39 38 36 38 38 37 39 39 38
16 17 20 16 16 13 15 23 30 22 20 18 16 19 21 19 23 24 27 32 32 40 39 36 49 44 47 41 40 41 43 42 42 43 41 42 42 43 44 44 44 40 43 43
19 15 15 17 19 18 21 21 22 24 24 21 21 18 18 16 21 24 25 25 29 40 39 44 40 43 47 46 48 48 48 48 47 48 45 45 49 49 47 44 51 48 49 50
20 17 16 15 13 13 15 15 15 15 16 23 28 25 24 23 20 19 20 24 19 20 29 36 49 51 49 49 46 48 54 55 52 53 51 52 55 53 53 59 53 50 53 57

GFSCGP_500_spd_087.txt.gz
Wind_Speed
47 54 51 50 49 51 43 41 43 40 24 39 43 33 30 29 28 25 25 27 27 27 24 17 15 17 24 19 18 18 20 22 19 19 22 19 18 18 23 21 20 24 27 26
50 50 41 44 52 55 44 45 48 34 34 42 41 36 30 27 27 23 25 27 27 25 21 14 13 19 18 14 14 12 16 14 12 18 21 19 17 14 20 14 23 34 30 26
45 40 40 42 50 52 42 39 38 35 35 40 43 36 34 23 28 23 23 24 27 24 18 12 14 16 14 11 11 10 10 9 10 14 17 17 14 10 8 11 13 23 25 22
44 41 46 37 45 46 45 36 35 36 39 44 39 37 30 22 24 22 23 26 27 22 15 10 13 13 13 10 10 9 9 6 5 12 18 18 14 12 10 13 11 11 15 18
42 38 38 41 38 36 41 37 38 37 41 41 37 40 25 24 23 21 25 25 23 20 14 10 13 13 13 11 10 11 11 9 9 8 17 21 16 16 10 12 6 9 14 17
36 40 40 33 28 40 29 35 35 36 38 41 37 35 31 21 22 21 22 25 23 17 14 12 14 14 11 9 8 9 11 8 12 8 10 18 19 17 11 12 11 12 11 12
32 35 32 33 29 32 31 28 29 31 36 38 32 30 33 22 24 20 26 21 22 17 15 13 14 14 10 9 6 8 9 8 7 5 7 5 10 13 10 10 13 14 14 11
29 38 35 30 33 29 31 32 30 24 18 21 21 28 26 24 25 25 26 24 22 16 17 16 14 14 10 8 7 7 8 8 5 5 1 4 7 9 8 6 7 9 11 15
28 27 34 36 31 35 35 33 27 33 23 21 22 15 16 16 22 23 26 26 24 20 20 19 16 16 13 9 8 8 7 7 8 5 6 6 6 6 8 9 10 11 11 10
31 28 28 28 39 40 38 30 37 36 38 31 23 22 17 20 19 22 22 27 26 23 20 21 19 18 14 11 9 9 10 11 9 8 7 5 5 6 7 7 8 10 9 10
30 29 28 29 26 28 30 36 36 34 36 30 18 14 13 20 19 19 28 29 27 24 24 23 22 20 17 13 10 10 11 12 14 13 12 11 10 7 7 8 9 10 10 11
24 25 29 26 26 27 30 31 32 36 36 27 29 31 18 23 11 21 19 24 24 25 25 26 24 24 20 17 15 11 14 13 12 13 13 14 14 13 12 13 13 13 15 17
24 25 24 25 27 28 28 30 32 34 35 38 32 23 20 28 18 25 26 26 23 26 27 28 27 24 20 21 19 14 12 14 14 13 11 11 14 15 17 17 17 16 16 18
26 25 25 23 21 25 30 33 35 36 37 35 38 31 28 17 22 24 24 23 28 28 28 28 29 28 26 24 18 18 17 17 18 19 19 19 20 18 18 18 16 17 19 17
27 26 28 26 28 33 31 31 31 34 35 38 34 32 28 31 33 26 27 29 27 30 31 31 31 31 30 28 25 23 22 23 24 24 22 23 23 23 24 23 21 23 24 21
28 26 27 27 22 26 31 31 32 33 35 37 39 39 29 32 31 32 37 36 35 34 35 35 34 33 32 32 30 28 25 23 23 23 23 23 24 26 27 29 31 31 30 29
28 25 25 23 22 23 29 27 29 32 35 38 41 39 33 31 30 34 28 28 32 39 37 40 39 36 36 35 36 34 29 27 24 23 24 24 25 26 28 29 28 27 28 31
22 22 25 25 24 25 19 25 25 28 29 34 36 36 34 28 29 29 28 36 36 37 38 41 47 45 40 42 41 37 35 33 27 27 28 28 28 27 27 29 28 28 27 29
20 22 24 25 24 25 20 21 20 22 28 32 36 30 33 29 36 36 38 38 36 41 41 42 42 45 43 47 42 39 40 36 33 30 29 28 28 30 32 31 31 30 31 32
21 20 21 22 19 22 21 23 18 10 19 22 33 40 39 32 35 29 42 40 38 37 37 40 44 43 49 49 49 39 40 36 34 35 34 35 34 31 31 31 33 34 33 35
17 18 19 19 22 21 23 28 29 19 20 22 35 34 34 39 41 38 37 34 34 38 37 34 36 42 47 50 51 53 49 44 46 45 41 38 37 35 32 29 30 33 35 34
17 13 12 18 21 21 27 23 28 24 15 14 26 31 28 32 41 35 31 28 27 33 32 31 36 38 45 50 56 58 56 53 53 44 36 37 41 42 38 35 33 36 37 38
19 14 10 9 15 16 24 27 24 27 16 17 4 8 30 12 25 29 30 28 29 27 31 31 35 40 42 49 52 52 53 46 40 41 46 46 45 44 45 44 44 38 42 41
22 18 10 9 18 15 18 24 22 18 22 17 11 12 13 19 22 27 29 32 35 37 35 32 31 39 40 43 45 44 43 40 36 41 45 50 41 44 47 57 61 51 50 49
23 22 22 21 17 13 10 24 22 28 25 26 26 21 15 14 19 25 25 27 30 32 35 36 34 36 40 50 51 50 47 48 47 46 47 48 46 50 57 60 53 52 58 58
25 22 19 19 20 21 19 17 17 18 19 16 14 18 22 22 20 21 19 24 26 27 31 32 37 37 38 45 48 53 51 54 54 52 53 55 54 58 59 59 59 59 58 59

GFSCGP_500_spd_090.txt.gz
Wind_Speed
44 48 53 49 49 49 51 51 52 46 40 19 38 36 42 34 33 31 27 25 24 29 32 25 26 20 19 17 18 17 19 21 23 19 17 18 19 22 22 21 20 19 28 29
47 50 46 46 50 51 53 54 50 44 45 36 35 40 47 34 32 30 25 24 28 30 29 24 21 18 18 17 16 15 16 20 21 17 13 15 20 17 18 22 25 24 26 26
46 44 44 48 49 48 53 51 49 46 48 45 47 52 48 33 29 29 25 23 25 28 30 20 15 17 17 15 14 13 13 14 18 13 12 14 17 18 23 18 20 12 19 24
42 41 42 47 48 41 47 43 45 45 48 51 43 49 43 29 30 22 21 21 23 25 29 18 12 15 15 14 14 12 13 12 14 11 9 12 16 21 16 14 13 14 20 33
40 42 42 46 48 37 40 35 38 41 42 42 47 48 43 24 23 23 24 24 23 21 24 19 13 14 13 14 14 13 13 10 9 11 10 13 19 19 15 10 14 14 10 18
42 38 40 47 46 39 35 34 34 30 35 42 40 44 41 26 23 15 20 23 23 22 18 19 15 13 11 10 13 12 10 9 12 12 13 9 16 19 14 11 11 8 9 16
40 38 38 42 42 34 35 35 33 32 35 43 32 35 35 25 21 19 18 26 19 23 18 18 16 12 9 8 12 11 9 7 8 9 9 9 10 15 16 9 8 10 11 8
35 38 38 40 35 27 35 33 34 33 14 23 24 26 13 19 22 30 33 27 22 22 20 18 19 14 11 9 9 10 8 6 7 8 5 4 4 6 10 8 9 11 12 12
22 21 20 28 36 30 34 36 26 33 28 23 24 21 22 14 15 28 26 24 25 22 20 19 22 17 13 11 7 8 9 6 6 9 6 4 1 3 4 7 10 13 14 16
28 26 16 23 22 36 32 28 25 28 35 31 18 7 12 6 16 21 19 22 24 22 21 17 22 19 17 14 10 9 9 8 9 7 7 4 2 2 4 5 6 7 9 13
29 31 25 20 19 18 32 34 33 30 24 27 26 17 18 17 23 15 15 25 24 18 18 19 20 21 21 17 13 11 9 10 8 9 9 9 7 5 5 6 7 8 9 10
29 25 27 24 8 16 20 26 31 35 33 28 24 28 13 14 21 14 24 28 23 20 16 20 20 22 23 21 17 15 11 9 7 7 9 11 13 12 11 11 10 10 12 12
21 24 22 19 27 23 24 21 20 26 31 34 26 35 26 13 12 10 17 13 17 18 18 20 22 25 23 23 22 19 14 12 8 7 8 8 8 11 15 16 15 15 16 15
22 22 23 20 17 26 26 25 26 27 26 30 34 29 27 27 31 40 28 30 27 28 20 22 23 25 24 25 25 20 18 16 14 12 13 13 12 13 14 15 15 18 20 20
24 23 23 21 23 23 23 26 30 33 33 33 29 34 34 35 20 30 16 17 29 27 25 24 23 26 27 27 24 23 23 20 18 18 16 18 19 17 16 15 16 18 19 20
25 23 25 23 22 28 31 28 28 27 29 31 34 35 32 31 38 37 39 26 30 27 26 28 30 28 29 31 28 27 28 26 24 22 21 21 19 19 18 19 18 21 23 25
23 22 23 19 21 26 26 26 29 28 31 33 36 34 34 33 33 32 32 36 38 36 36 39 37 32 30 32 33 31 29 27 27 27 27 24 22 22 21 23 22 20 21 24
22 21 22 19 21 23 17 24 25 26 28 28 29 30 30 30 31 35 38 33 33 42 45 39 34 36 39 36 36 34 31 30 31 33 32 30 26 26 27 27 26 24 24 25
18 19 20 20 19 18 20 20 20 21 26 26 24 24 25 31 28 29 35 36 40 42 44 37 38 41 40 47 46 46 40 38 36 37 36 33 32 30 29 28 29 30 29 29
17 18 20 20 16 14 14 15 19 19 24 23 21 20 28 29 26 32 39 40 40 36 33 40 44 44 44 43 44 51 48 46 46 41 42 39 37 34 34 32 31 31 28 30
15 17 18 16 17 16 16 10 21 20 22 18 21 21 33 22 34 32 42 51 52 45 42 45 44 44 46 47 45 43 48 47 50 51 45 46 40 40 38 34 34 32 31 33
12 14 13 14 18 19 21 17 13 23 26 22 22 31 24 25 20 24 28 28 32 34 31 36 44 44 44 42 46 44 45 47 52 46 54 50 47 43 44 45 38 41 37 35
17 16 15 14 11 14 14 27 29 24 28 28 20 23 16 38 32 30 20 19 21 27 28 30 37 40 40 41 44 46 46 46 51 52 56 56 56 54 45 49 45 46 46 44
19 20 17 14 15 17 19 5 23 28 26 24 18 17 12 18 23 35 27 21 23 27 28 28 31 31 35 37 43 46 47 48 51 54 56 56 59 45 45 47 52 50 45 45
11 16 18 18 15 15 24 21 25 22 21 20 21 24 21 17 13 19 24 26 28 28 28 31 31 32 35 38 37 42 48 48 49 51 50 46 45 48 43 49 45 47 48 51
28 24 26 23 27 20 20 15 15 24 24 24 26 19 16 16 18 17 14 21 23 19 21 29 31 29 32 35 38 39 42 41 48 49 51 51 46 45 49 48 46 55 53 50

GFSCGP_500_spd_093.txt.gz
Wind_Speed
31 40 42 35 36 39 42 43 44 44 46 50 46 41 45 47 32 34 39 37 32 27 30 24 18 27 21 17 18 19 17 16 19 22 23 21 22 23 25 21 23 19 22 23
38 41 34 34 38 42 44 46 48 48 51 50 47 49 44 56 35 34 34 35 28 24 31 22 14 24 16 16 17 16 14 14 17 19 20 16 18 20 22 18 22 24 26 19
34 36 36 39 40 44 46 45 45 50 52 55 50 50 47 51 48 42 31 35 28 24 29 21 13 23 16 15 16 13 13 13 15 18 20 15 15 18 20 20 20 25 24 19
36 36 38 41 42 44 46 42 43 48 52 55 42 51 48 54 55 36 35 34 27 26 27 19 12 20 18 15 15 13 14 14 13 14 13 14 16 18 20 19 26 23 20 22
32 34 36 40 42 42 44 40 39 45 49 49 45 46 39 51 49 41 32 39 27 24 26 21 15 19 21 14 15 14 12 14 14 14 14 13 16 18 19 16 17 20 21 13
35 34 39 41 44 46 45 41 40 45 44 48 38 39 49 41 47 30 26 21 20 24 22 22 14 20 20 14 14 12 10 12 14 12 12 14 16 18 19 15 10 13 14 12
31 34 37 40 43 43 40 36 44 43 44 41 29 34 44 28 31 31 26 32 21 22 22 16 9 20 15 14 12 10 9 10 13 11 10 14 7 12 11 11 13 8 9 13
32 34 36 38 44 40 32 37 43 40 37 30 23 32 13 22 25 23 14 23 18 22 24 16 10 15 13 15 12 10 9 9 11 12 7 7 10 7 12 12 11 12 11 12
31 34 35 36 36 37 36 37 31 31 35 34 23 25 20 24 26 28 20 28 26 24 27 19 12 15 16 15 14 11 8 7 8 10 5 4 3 3 6 5 9 14 17 16
35 34 26 27 27 27 26 29 30 33 34 31 27 18 16 26 34 20 19 29 31 30 28 22 15 15 18 18 15 13 11 8 7 8 7 2 3 1 2 3 4 5 9 14
25 26 26 23 14 12 20 33 27 29 30 25 35 13 8 25 24 24 23 20 29 27 22 27 18 18 18 19 16 15 13 10 8 4 6 7 4 3 2 3 3 5 8 11
41 24 26 29 27 17 17 14 32 30 29 24 24 25 14 19 22 26 27 28 26 18 22 27 18 15 17 17 17 16 14 12 10 7 4 4 9 8 8 7 6 6 8 11
29 31 24 24 24 23 15 14 13 19 27 28 34 32 22 20 16 29 27 27 21 24 27 29 19 16 16 17 19 19 17 15 13 12 10 6 4 6 8 11 12 12 12 13
19 21 24 23 26 33 24 16 19 19 16 25 29 26 26 19 11 16 19 14 14 13 22 19 21 20 16 18 19 20 21 20 18 16 15 13 12 11 9 9 12 16 18 18
26 25 21 22 24 26 31 27 26 21 16 17 15 31 31 29 28 25 17 24 20 21 25 25 27 23 19 21 23 21 24 23 21 20 19 18 17 16 13 13 13 17 19 20
28 28 27 20 22 25 24 28 27 27 27 29 25 27 34 40 39 31 28 26 34 37 24 20 23 29 27 20 24 24 25 25 25 23 22 24 22 20 20 19 17 16 18 22
28 22 23 21 24 21 18 17 23 24 26 29 31 29 27 27 28 29 40 38 33 18 27 29 32 27 27 25 25 26 27 29 28 27 25 26 26 25 24 23 22 21 21 21
22 20 20 16 20 22 19 22 29 35 32 31 30 29 25 25 30 37 39 39 35 34 37 40 40 37 34 33 32 31 28 30 33 34 31 29 28 31 30 29 27 27 28 26
21 22 18 21 22 20 16 24 28 27 27 28 31 32 31 30 27 33 40 41 41 38 40 45 50 49 43 40 41 37 37 33 30 31 32 30 32 34 36 34 32 31 32 32
21 21 21 19 19 18 20 21 24 23 27 27 28 29 28 26 25 33 36 38 32 36 44 41 42 48 49 47 42 44 43 43 43 42 38 41 38 38 38 38 36 33 32 32
13 18 15 15 18 17 19 19 13 15 24 23 26 26 25 21 27 31 33 37 36 40 42 47 43 41 42 40 44 45 45 44 44 44 46 45 47 45 44 42 40 38 35 36
10 11 11 13 17 15 18 20 20 12 17 22 25 24 28 20 23 29 35 33 39 32 29 40 44 40 39 43 46 47 48 48 48 46 44 42 43 46 50 50 49 46 43 43
8 9 10 13 12 12 18 25 32 16 13 17 23 22 24 24 22 5 31 42 35 33 40 37 41 52 41 37 41 47 44 46 48 47 46 45 43 46 47 43 49 57 55 49
21 14 12 14 15 11 12 18 16 18 29 26 22 24 24 20 25 26 29 29 23 17 18 19 26 26 29 35 36 35 41 45 48 48 46 48 46 48 48 50 52 51 53 59
19 15 18 17 18 18 19 27 15 14 18 21 23 21 32 29 22 30 39 30 39 41 27 23 26 28 29 32 35 37 37 41 43 47 48 50 50 50 50 51 52 51 52 55
25 14 23 22 27 23 20 20 19 17 20 21 21 25 23 30 21 17 22 22 22 28 33 29 29 27 26 26 28 25 29 37 38 40 41 44 46 47 52 51 49 48 47 48

GFSCGP_500_spd_096.txt.gz
Wind_Speed
39 43 43 40 36 36 38 39 39 40 37 38 40 44 46 42 38 45 43 41 43 45 35 29 27 23 29 22 21 19 19 21 19 18 20 21 24 27 26 26 23 24 21 24
38 44 37 31 33 36 36 38 39 39 37 42 45 48 46 43 40 48 46 45 37 38 33 27 25 22 24 20 20 18 18 18 18 19 20 21 21 23 25 23 23 23 23 23
30 31 32 37 36 36 35 37 38 40 37 43 47 49 47 46 45 49 44 44 37 34 30 29 24 18 22 19 19 18 17 17 18 19 21 21 20 19 19 19 21 20 23 26
31 34 31 32 32 35 34 36 38 41 41 45 46 50 47 50 47 49 47 40 36 38 32 33 25 16 18 18 17 17 17 17 18 19 21 21 19 16 18 19 24 23 20 25
30 29 31 31 31 34 31 35 39 40 41 46 52 55 42 44 46 44 41 42 43 37 33 34 27 20 18 20 18 17 17 16 16 18 19 21 20 19 14 17 23 23 26 30
28 27 30 30 31 34 33 38 41 40 41 50 50 49 40 39 36 39 40 42 42 35 34 32 27 19 19 22 17 17 15 15 15 17 17 20 19 19 17 19 19 17 20 27
26 28 29 31 32 33 35 37 39 40 44 49 42 43 41 34 33 34 38 41 40 34 31 32 21 18 21 20 16 14 15 16 14 16 15 18 14 10 10 20 18 18 23 25
31 29 27 28 30 29 33 36 36 39 41 39 40 41 31 24 27 26 32 37 39 39 29 29 19 16 19 18 18 15 15 16 12 13 13 15 14 12 5 12 15 18 14 16
31 30 29 30 28 34 34 40 34 35 38 40 40 35 25 25 22 28 30 36 34 25 26 24 21 15 20 24 21 15 15 16 12 11 11 10 10 6 9 5 12 12 13 16
32 30 29 26 27 33 33 29 33 38 41 40 35 30 21 23 23 28 27 26 31 28 24 22 18 15 24 26 21 16 16 16 13 11 11 9 7 5 2 0 1 6 11 17
31 32 26 27 28 22 24 30 35 37 39 38 32 23 25 9 33 33 31 33 32 24 22 24 23 24 23 26 24 19 17 17 15 12 10 11 9 6 5 4 3 4 5 5
33 33 29 31 27 26 25 24 22 32 34 30 25 25 29 14 35 28 31 39 35 31 31 27 24 23 24 26 25 22 19 19 18 15 13 11 12 11 9 6 5 5 7 9
28 31 28 28 27 28 23 26 27 30 30 32 29 30 18 17 10 23 29 33 35 35 31 29 27 22 24 26 27 24 21 21 21 18 16 13 12 12 12 11 10 9 9 10
31 29 35 29 28 30 30 31 28 30 35 37 34 34 23 23 18 15 29 36 40 37 31 32 25 23 21 24 27 28 27 24 24 22 19 18 15 13 12 10 11 13 14 15
31 25 20 27 28 30 32 32 21 21 20 23 20 29 26 27 18 19 12 23 34 40 38 37 31 27 24 25 26 25 27 26 27 26 24 22 20 18 16 16 15 16 17 19
30 16 17 21 23 28 31 24 25 24 23 18 17 17 23 28 27 27 21 14 16 25 21 23 23 26 22 26 28 28 28 27 29 29 27 26 24 22 21 21 22 22 21 22
25 12 18 24 28 26 21 24 26 32 33 29 27 21 19 17 27 30 26 21 23 20 30 21 23 21 21 20 23 29 29 31 30 30 31 30 28 26 27 26 25 25 24 23
18 14 18 26 35 26 24 21 25 24 28 27 24 25 26 30 31 29 33 35 30 31 28 24 25 31 26 24 25 27 28 33 32 31 32 34 33 32 31 31 29 30 29 29
14 20 27 26 24 23 22 24 23 25 28 29 31 28 30 31 28 27 32 35 32 32 34 32 31 32 33 33 34 35 35 33 31 34 35 38 40 38 35 34 33 34 34 34
23 32 31 29 23 22 21 19 22 25 28 29 29 26 30 31 30 31 31 32 36 34 37 38 37 37 40 36 41 43 44 42 38 39 38 37 39 40 39 39 38 37 37 34
29 23 23 26 26 25 25 24 24 24 24 26 22 24 26 23 25 30 33 35 39 38 31 36 43 43 42 46 44 45 45 48 46 42 42 43 43 44 44 44 42 44 44 45
16 18 21 21 23 21 20 20 21 19 16 22 21 20 20 22 22 18 27 35 38 38 35 36 37 39 45 44 45 46 43 47 50 50 46 43 47 47 48 45 46 49 50 50
14 17 16 20 18 17 19 19 24 25 18 20 21 19 20 21 20 21 8 29 34 34 37 37 36 40 38 33 39 48 47 46 47 47 48 50 46 44 45 47 46 45 50 47
12 12 13 11 11 11 12 10 20 28 26 19 16 14 17 21 22 26 27 21 33 38 34 28 23 28 29 39 43 42 51 49 45 48 44 45 47 44 40 42 48 49 51 46
12 16 13 12 10 13 14 14 15 18 21 22 21 26 24 22 22 24 22 17 25 33 30 26 28 23 23 23 28 30 32 39 41 41 40 39 41 43 44 43 45 47 49 50
14 19 21 16 18 15 17 16 16 23 21 19 17 17 21 23 25 30 32 30 24 25 34 35 36 36 33 30 30 30 30 32 33 32 35 41 41 42 44 43 43 44 47 46

GFSCGP_500_spd_099.txt.gz
Wind_Speed
42 45 47 42 39 40 43 43 47 47 46 46 45 43 41 40 37 35 37 40 40 38 38 37 41 35 29 29 31 27 28 21 22 23 21 21 21 23 28 29 31 27 22 22
44 45 42 41 41 42 42 44 47 47 46 47 45 44 42 41 37 38 36 37 43 42 42 39 38 38 27 26 28 27 26 20 22 23 21 22 22 24 25 25 25 25 23 24
40 40 40 39 40 42 42 44 45 47 49 48 45 45 39 36 38 39 39 39 44 45 38 41 36 33 26 22 27 28 23 20 21 23 23 24 22 23 22 24 21 23 22 25
38 40 39 37 38 42 42 43 46 47 48 44 44 47 37 38 36 38 36 37 45 48 36 42 35 33 24 21 26 28 21 19 22 24 23 24 23 24 21 20 18 21 23 26
38 36 36 36 38 41 38 43 45 46 47 46 42 46 41 37 36 34 40 44 47 44 40 44 38 34 26 25 26 28 23 20 22 22 22 22 21 21 21 25 20 21 24 24
39 38 37 38 38 40 41 43 44 45 45 43 37 44 34 37 41 44 45 45 50 44 43 43 39 35 31 28 27 29 23 21 21 20 20 21 20 20 23 24 22 24 27 25
34 33 34 36 40 41 42 41 41 43 45 39 39 43 36 43 40 45 44 43 47 41 42 42 34 31 30 29 26 29 24 20 21 18 18 19 18 17 20 18 20 23 27 27
34 34 35 35 37 36 36 38 40 42 42 38 38 43 37 38 39 38 38 40 39 41 44 42 32 35 28 31 28 28 22 21 20 17 16 17 16 14 16 16 16 19 20 16
35 34 32 34 34 35 33 38 37 36 35 38 40 42 38 32 32 33 35 37 35 40 42 40 34 31 24 29 24 24 22 22 19 16 15 16 14 13 11 12 12 16 13 13
35 35 32 33 34 33 32 25 34 37 39 41 42 38 33 31 32 34 34 31 31 40 42 36 34 28 24 26 25 23 19 22 19 17 16 15 15 11 10 6 3 7 10 17
35 36 30 33 32 31 30 30 28 33 38 39 37 33 31 29 30 36 32 31 33 36 40 37 35 31 28 27 25 21 21 23 21 18 17 17 15 12 11 10 6 6 5 6
34 38 37 32 32 32 28 28 28 29 32 35 38 34 31 31 28 24 25 20 32 40 43 39 34 34 27 21 24 23 25 24 22 20 18 18 17 14 13 12 12 9 6 5
31 30 31 33 34 31 29 31 29 31 28 27 34 36 26 28 26 28 24 25 39 44 41 39 40 33 24 22 26 26 27 27 25 23 22 19 20 17 15 15 16 14 10 9
34 34 34 32 33 31 36 30 30 27 29 31 30 32 25 28 28 23 21 15 35 39 38 39 32 31 27 24 25 28 27 30 28 26 25 22 21 20 16 14 15 15 16 15
30 27 37 33 27 29 26 31 28 30 29 29 22 27 28 26 28 20 25 8 31 41 40 37 35 36 35 29 32 32 30 34 31 28 27 25 24 24 21 17 17 15 14 16
29 27 26 33 30 31 33 32 34 31 33 20 21 21 16 18 22 20 14 6 25 32 40 40 35 31 34 34 32 33 31 30 33 30 29 31 28 27 27 25 23 21 20 20
24 22 19 16 21 17 21 24 28 33 30 29 23 17 18 15 12 14 16 12 12 12 33 44 39 37 31 27 29 31 30 31 33 34 33 33 32 31 31 31 29 26 26 25
17 19 18 17 15 16 19 22 27 24 25 23 26 28 26 24 22 19 16 16 18 18 11 19 27 30 30 32 30 29 33 35 32 32 31 35 35 34 33 33 33 32 31 29
13 15 13 13 12 15 20 27 25 25 20 21 20 19 21 19 22 19 20 24 26 27 22 16 25 33 29 30 27 28 27 29 30 32 32 31 35 37 38 37 35 36 37 35
15 13 12 13 13 16 19 22 23 24 24 24 23 23 24 27 29 28 24 25 25 26 28 28 29 27 24 29 29 31 32 33 36 34 34 33 37 39 36 40 40 40 40 39
16 14 15 20 20 20 21 22 24 21 20 23 24 23 24 26 25 24 26 24 25 25 27 27 30 32 30 28 32 33 35 34 38 39 39 38 39 39 42 41 44 46 43 43
15 14 17 24 25 25 25 23 23 23 22 18 20 19 22 21 22 22 18 20 20 24 27 29 31 25 27 31 34 36 38 42 43 39 41 38 35 36 37 44 46 47 45 42
12 20 22 28 26 23 23 25 25 25 23 19 15 16 16 17 18 17 17 10 13 28 22 29 28 35 35 34 32 33 37 41 43 44 43 45 43 38 36 38 44 46 49 48
11 12 24 19 20 17 17 17 15 18 21 22 18 14 13 12 13 16 17 19 14 14 28 28 30 31 33 36 36 38 38 35 35 35 39 44 45 45 43 43 42 44 46 46
3 11 12 16 13 13 10 11 10 11 14 18 23 18 17 16 14 12 18 18 14 14 17 20 23 33 35 32 28 29 27 30 33 36 36 36 37 40 43 41 36 37 41 41
3 7 17 14 15 13 16 14 13 11 14 14 13 10 12 14 15 15 17 20 23 26 24 22 22 24 29 32 29 28 28 32 32 31 32 36 37 34 35 36 37 38 38 37

GFSCGP_500_spd_102.txt.gz
Wind_Speed
49 49 51 46 45 43 43 43 43 45 45 45 44 44 47 46 45 45 42 43 42 42 42 43 42 37 34 33 31 35 34 31 29 27 26 20 19 20 21 23 23 28 27 25
48 53 44 44 45 45 45 44 45 46 46 46 47 47 49 50 47 43 41 41 40 40 46 48 45 37 32 33 30 40 40 33 28 27 26 20 20 21 22 23 22 28 23 22
39 39 42 45 45 45 46 45 46 46 47 49 50 43 46 47 45 41 40 41 40 44 46 42 39 35 31 31 28 38 38 35 27 28 27 21 21 21 23 24 23 25 21 22
40 43 44 44 43 45 45 46 47 48 50 49 49 42 43 41 41 41 39 39 42 43 41 39 37 35 30 30 28 40 40 34 27 29 25 21 20 20 23 23 23 24 20 21
39 40 42 43 38 39 43 45 47 49 49 48 45 46 43 39 36 38 40 41 40 38 37 38 38 35 36 35 32 38 39 33 26 30 23 20 19 21 22 24 22 26 21 20
39 39 39 41 41 39 41 44 45 45 47 47 46 47 40 39 41 37 40 39 40 40 40 41 40 41 37 35 33 38 37 34 27 29 22 19 19 19 20 24 24 26 19 21
39 38 39 39 39 38 40 41 40 42 46 45 46 47 38 40 39 45 41 39 42 43 44 44 45 41 37 35 35 38 37 34 30 26 21 18 18 18 19 20 25 18 18 21
39 39 39 38 39 39 38 41 42 44 44 43 44 44 41 39 44 44 44 44 41 42 45 45 48 41 36 37 37 38 34 35 31 26 21 19 17 16 18 18 20 13 16 19
41 42 40 40 40 39 37 39 39 38 41 44 45 42 42 40 41 42 40 40 43 48 49 46 45 37 37 39 33 35 33 35 30 26 21 18 16 15 16 16 14 9 13 21
41 39 38 37 38 37 35 35 36 38 40 40 40 39 43 41 41 36 39 41 41 45 46 39 39 40 42 41 38 34 33 30 32 25 21 18 16 15 16 14 11 5 7 11
38 37 34 36 37 37 34 34 35 36 37 39 39 40 39 38 35 33 40 38 37 42 41 35 36 41 47 42 35 33 31 28 31 25 21 19 16 14 14 15 11 8 7 9
35 37 35 32 33 35 34 33 34 38 38 39 39 39 37 34 32 33 36 33 32 32 37 28 34 44 42 36 29 30 29 30 30 26 22 21 18 15 14 15 14 9 7 7
32 35 37 31 30 32 32 33 31 33 35 35 34 31 25 28 30 32 33 26 27 19 33 29 37 34 39 33 34 33 31 32 30 27 24 24 21 18 15 14 16 15 12 9
33 35 33 30 25 27 33 33 33 30 29 27 27 25 29 30 29 25 25 20 30 9 33 31 31 38 38 37 34 35 33 32 31 29 26 26 24 21 19 15 16 15 16 15
33 34 35 34 31 28 29 28 30 32 29 28 24 28 27 26 23 20 16 16 23 6 29 36 38 43 44 41 36 34 30 30 30 30 28 29 26 24 23 20 20 16 15 16
27 33 37 39 34 30 28 26 34 37 27 22 24 27 26 21 19 17 11 13 12 15 34 42 44 36 41 33 32 34 30 30 29 30 30 29 29 29 28 26 25 23 20 20
21 21 24 28 30 32 29 31 25 21 23 27 29 27 29 16 17 16 16 16 21 12 31 42 42 36 37 34 33 34 30 29 28 31 33 33 31 32 33 31 28 28 26 25
10 17 19 23 29 30 23 18 14 15 20 22 27 28 25 24 22 19 18 11 18 19 20 43 41 42 37 34 36 32 30 32 30 30 32 31 35 36 35 34 33 32 32 30
14 11 25 24 17 20 16 15 18 19 18 16 11 19 18 20 19 17 17 16 16 16 9 18 41 46 40 31 30 27 29 32 33 36 30 29 28 32 32 35 37 36 37 36
6 8 24 15 17 14 11 12 11 11 15 17 18 17 19 14 16 16 15 18 22 17 19 14 14 33 41 40 30 31 32 32 32 33 24 24 24 22 26 27 28 32 37 39
17 14 21 16 16 10 8 13 11 11 14 16 17 19 20 20 20 20 19 14 19 18 17 18 12 13 18 23 23 26 27 31 34 31 28 29 29 31 33 35 37 37 38 38
12 13 15 15 14 11 11 13 14 14 15 16 17 18 20 19 19 17 17 15 11 15 15 16 21 21 20 26 29 26 31 34 34 35 35 35 34 36 36 33 32 34 39 42
17 17 17 17 12 12 13 14 17 20 20 19 19 20 17 13 11 11 12 12 8 6 16 18 15 20 22 24 31 27 30 33 34 37 39 38 39 35 35 37 36 36 34 34
17 11 17 15 15 10 11 12 15 17 20 21 19 18 14 11 6 4 9 10 9 10 9 10 18 32 23 22 26 28 31 32 33 36 33 33 32 32 30 31 32 33 35 36
12 13 10 16 11 7 12 13 11 13 9 8 13 14 19 14 10 6 7 8 9 12 13 16 17 12 11 15 22 27 29 29 29 29 32 29 27 28 28 29 29 29 31 33
11 6 9 5 16 19 18 16 15 14 9 10 11 10 9 10 10 10 11 10 11 16 21 21 22 21 16 14 19 21 24 28 29 24 24 26 29 30 29 27 29 29 31 31

GFSCGP_500_spd_105.txt.gz
Wind_Speed
57 59 56 61 58 57 55 51 48 48 49 48 44 43 44 43 43 41 42 45 47 45 45 46 47 46 44 39 36 31 32 31 30 30 31 31 28 25 25 23 23 23 22 25
55 51 48 51 54 54 52 50 48 48 48 48 46 44 45 45 44 43 43 43 44 45 45 46 48 48 46 43 39 35 35 32 32 34 32 33 29 26 25 24 23 23 25 26
48 43 49 51 51 50 47 46 47 47 45 46 48 46 46 46 46 44 42 43 44 44 43 46 47 47 47 44 40 36 36 33 35 35 32 33 30 25 26 24 22 24 24 23
47 46 44 47 53 51 51 43 42 43 45 46 45 46 47 44 44 43 44 44 43 42 43 44 46 49 47 43 41 36 35 33 38 37 35 35 30 26 25 23 22 25 25 21
39 38 36 31 33 32 37 37 41 45 47 49 45 46 46 42 40 41 38 39 42 43 42 41 42 43 43 41 40 35 35 35 39 38 36 35 31 26 24 23 23 26 27 24
39 36 35 32 31 31 31 35 39 42 42 46 44 45 43 46 44 37 36 41 42 43 41 40 41 39 38 37 36 31 33 37 37 36 36 36 31 27 22 22 23 26 25 27
32 32 36 36 32 31 33 32 34 38 42 43 42 42 43 45 42 41 40 39 42 44 45 46 45 43 40 40 37 32 33 38 36 36 38 38 29 26 20 21 22 22 25 27
39 38 35 31 28 29 29 31 32 36 40 40 41 42 42 42 42 41 44 44 42 44 47 47 46 45 45 42 42 33 37 40 38 38 38 37 30 24 19 19 17 19 24 19
35 36 35 35 33 32 34 34 30 33 37 39 41 41 40 39 39 39 44 45 47 45 47 50 49 48 47 45 43 35 40 45 40 40 39 33 30 23 20 18 14 16 16 14
34 34 35 36 34 34 33 33 32 34 35 37 39 38 38 39 39 41 44 44 45 47 48 48 48 47 48 47 40 39 41 46 42 43 40 32 29 23 21 17 12 12 13 8
31 30 31 31 32 32 32 34 34 33 33 34 35 34 35 36 38 41 43 45 46 47 50 50 46 51 47 41 38 44 45 46 45 45 33 33 30 25 21 17 11 10 11 9
29 29 26 25 27 28 29 29 31 31 29 31 32 34 35 34 35 40 42 45 48 44 46 50 48 40 35 36 41 46 47 44 44 38 35 33 30 26 21 18 12 11 11 12
24 25 22 24 28 29 29 28 28 28 29 30 31 32 35 35 36 40 42 44 44 43 40 39 40 26 30 32 42 46 45 42 36 33 34 33 31 28 22 19 14 11 10 12
26 25 25 22 25 27 30 30 28 28 30 30 29 27 31 31 32 37 39 36 36 36 30 20 27 28 28 33 44 47 39 34 31 32 33 34 31 29 24 20 18 14 11 11
26 29 30 27 26 24 26 29 30 30 31 32 29 23 21 23 27 28 31 27 29 24 28 27 25 28 29 34 41 43 39 35 32 33 34 35 33 29 26 23 21 18 15 11
23 27 29 29 27 29 25 25 26 27 24 25 26 23 23 23 24 19 19 19 18 20 26 18 13 22 38 28 44 42 40 33 34 31 34 34 32 31 29 27 25 21 19 18
13 18 21 26 30 30 28 27 25 23 21 25 21 24 24 23 23 21 15 19 18 23 22 11 33 28 37 38 43 40 36 34 33 35 36 37 34 32 31 30 28 26 25 23
19 14 15 19 20 26 32 27 22 23 21 19 19 18 21 23 24 21 20 18 17 20 27 24 30 36 44 42 41 41 39 35 34 33 33 34 32 32 32 32 31 29 28 28
11 12 17 16 13 12 19 23 23 19 17 13 10 11 14 15 18 21 20 18 18 18 26 27 20 33 38 49 42 39 37 36 33 35 34 40 32 31 33 33 36 32 30 31
8 5 7 16 17 15 17 19 18 15 13 14 12 14 11 11 13 15 15 14 13 19 16 19 6 34 29 35 45 36 43 34 39 37 24 19 22 20 29 33 33 38 36 31
9 11 7 17 18 16 14 13 16 13 12 12 9 10 14 13 14 13 12 13 13 15 18 18 18 15 30 22 15 28 41 46 46 33 25 28 31 26 22 23 23 26 27 27
8 10 10 12 16 11 14 11 12 11 12 10 9 9 11 12 11 12 10 11 10 9 15 14 12 13 16 20 26 35 30 27 27 29 32 33 33 28 28 27 27 30 32 32
15 13 10 8 9 9 11 10 10 8 10 11 11 11 11 11 9 5 5 6 6 5 11 11 10 8 18 14 14 17 16 21 23 25 28 30 31 28 26 28 31 33 34 38
18 12 16 18 17 15 12 11 9 8 8 9 12 13 11 10 8 6 5 5 6 11 6 11 14 10 20 17 21 24 23 26 28 25 25 30 31 31 29 27 27 28 29 31
20 10 9 19 15 12 11 11 7 4 4 7 8 9 10 11 12 7 5 7 12 10 12 12 13 8 12 18 14 13 16 18 22 24 25 26 26 27 27 29 28 27 28 31
5 7 7 7 16 13 8 9 9 9 8 7 9 10 10 10 11 12 8 8 10 16 18 17 17 14 11 7 6 8 14 21 24 28 29 28 27 26 25 23 22 23 24 28

GFSCGP_500_spd_108.txt.gz
Wind_Speed
55 55 54 55 61 60 68 70 70 66 64 60 52 50 49 50 48 49 47 46 47 46 44 47 44 43 43 42 41 38 38 37 38 35 30 31 29 30 29 30 29 27 25 26
57 49 51 56 57 59 67 69 68 66 67 61 55 53 52 52 49 48 47 45 42 42 43 44 43 43 44 44 43 41 39 38 39 37 34 33 32 33 30 32 29 28 27 27
53 46 49 53 53 57 61 59 64 66 65 60 58 57 55 52 50 49 48 45 43 41 41 44 45 45 45 45 45 43 41 39 39 41 39 36 33 30 30 33 30 30 28 28
49 51 52 51 48 51 57 59 59 63 57 56 54 57 54 54 51 48 46 44 42 42 42 44 46 46 47 47 46 45 43 41 39 41 42 38 35 31 31 32 30 30 28 29
47 49 48 48 43 46 51 48 49 53 53 52 53 53 49 52 47 45 43 43 42 41 43 44 46 46 45 45 44 46 45 42 40 42 43 40 36 31 31 32 30 29 29 30
43 42 44 39 38 37 39 42 44 41 43 49 48 50 46 48 45 43 38 38 40 40 42 43 44 44 43 43 43 44 43 44 42 42 44 41 37 34 32 30 30 29 29 31
42 40 40 34 32 32 36 34 30 33 40 46 47 44 39 47 44 41 38 38 39 40 42 44 45 44 42 40 40 42 41 39 40 43 46 42 38 37 33 29 29 27 29 28
37 37 38 33 32 26 24 20 21 23 24 26 38 37 40 40 41 37 33 36 38 39 42 45 46 48 46 45 45 46 43 39 41 44 47 42 40 40 33 29 28 27 26 25
33 34 34 29 28 29 30 32 26 25 25 27 33 37 36 33 32 33 32 35 38 40 42 45 48 48 47 47 46 44 44 43 42 47 48 43 44 41 34 28 29 25 23 23
30 33 31 31 27 25 26 23 26 27 28 28 28 30 30 31 30 32 33 36 39 39 41 43 47 48 50 49 46 48 46 44 43 48 50 46 47 42 33 29 29 25 22 19
27 26 26 26 26 24 27 27 28 27 24 25 24 21 28 29 28 30 33 37 39 41 44 46 47 50 52 48 46 48 46 43 42 50 52 49 48 42 34 30 28 24 21 18
28 25 23 24 24 24 24 22 22 21 24 25 27 25 31 27 27 30 34 38 40 42 44 44 44 44 45 46 49 52 51 42 45 53 54 51 48 41 32 31 29 24 20 17
12 18 18 19 17 18 18 20 21 22 25 25 23 18 30 24 28 31 33 37 40 41 43 44 45 45 46 48 51 51 42 41 51 55 53 51 45 40 34 31 30 24 20 18
16 11 15 17 18 20 20 21 23 23 24 23 25 22 30 28 29 32 34 38 40 41 42 44 45 45 49 49 41 37 37 45 51 56 49 47 46 39 37 33 29 25 22 19
16 17 17 16 18 20 21 23 23 23 23 24 24 24 30 28 30 31 33 38 42 43 44 46 47 51 40 37 35 33 39 47 49 47 45 44 40 39 34 32 30 27 23 19
17 18 17 19 19 20 21 20 21 22 23 23 24 25 27 31 29 26 25 33 41 42 42 46 49 42 37 28 27 28 37 47 48 47 46 39 36 36 33 34 32 29 26 22
14 14 12 11 12 15 20 21 21 20 20 20 22 25 25 28 28 23 21 26 28 28 30 39 31 32 36 36 30 34 38 40 46 44 38 33 34 36 35 36 34 32 29 24
15 9 9 10 13 17 21 21 23 23 23 22 21 21 24 22 27 29 25 25 24 27 32 32 29 30 14 47 29 41 41 43 39 41 38 33 34 35 36 36 36 33 30 27
19 13 12 12 13 14 16 19 22 24 22 21 23 21 22 22 22 25 26 23 24 22 22 25 28 25 10 36 25 36 45 43 41 37 37 34 32 34 37 40 37 34 30 28
16 12 15 14 12 12 10 13 20 23 22 22 22 21 18 16 19 20 18 21 23 19 22 18 21 27 15 29 33 39 39 40 40 37 38 39 37 35 34 41 39 36 35 36
10 8 6 7 15 14 14 16 22 22 21 22 20 21 20 17 16 17 17 19 20 16 16 17 11 15 16 19 41 43 39 38 43 45 41 35 34 33 38 38 43 40 37 38
11 10 7 6 12 17 22 16 16 19 19 19 17 15 14 10 9 10 13 12 13 12 11 12 13 12 13 22 20 40 43 41 33 19 29 40 39 26 24 28 26 25 20 21
11 12 11 10 10 17 17 13 13 16 16 15 13 12 10 8 8 8 9 11 11 7 5 10 11 9 12 19 8 19 27 23 30 27 28 35 36 25 24 24 24 23 26 27
15 15 15 12 8 10 17 15 12 13 14 15 16 15 11 9 8 9 10 10 8 9 7 2 9 10 10 12 10 12 24 21 20 24 25 26 24 22 22 22 24 28 30 29
14 15 10 11 14 15 15 16 13 12 11 11 9 8 9 10 11 11 13 12 13 10 11 6 1 1 5 10 9 20 21 17 20 21 21 22 20 22 24 23 25 28 31 30
5 11 11 12 15 17 12 14 15 14 10 9 9 8 9 9 11 16 13 12 11 18 13 11 12 13 13 6 7 8 8 11 13 14 18 20 22 21 22 24 26 29 31 29

GFSCGP_500_spd_111.txt.gz
Wind_Speed
74 76 72 58 58 52 61 65 63 67 58 62 71 66 60 55 54 51 50 53 50 51 49 47 48 51 44 42 41 40 38 35 34 36 38 36 36 35 36 36 32 28 29 30
77 77 58 59 58 53 61 65 64 64 49 59 71 73 63 59 56 54 56 52 50 49 48 49 51 48 45 45 44 43 41 38 36 37 38 38 38 37 36 36 34 31 29 31
69 64 58 61 57 55 56 58 56 63 64 71 69 70 67 66 65 60 57 52 51 50 50 49 48 45 45 45 45 43 43 40 40 38 36 39 39 37 38 35 38 31 29 32
42 54 55 56 54 51 51 52 52 60 69 64 62 63 62 64 66 67 64 55 52 50 52 48 48 46 44 44 45 45 43 41 41 40 37 38 38 37 38 38 39 31 30 31
31 35 51 56 50 54 48 46 49 54 57 57 59 59 61 45 63 67 62 54 52 51 49 49 48 47 45 46 47 46 44 44 44 41 38 38 40 39 40 40 38 31 27 30
21 27 41 45 40 44 44 45 46 49 50 54 51 55 56 54 54 52 54 55 51 50 47 46 47 47 48 48 46 44 44 43 44 42 40 39 41 42 42 40 38 32 27 29
22 18 34 34 40 43 42 39 39 41 44 46 37 42 47 25 43 31 46 45 39 40 41 43 47 49 49 48 44 42 42 42 42 40 39 39 41 44 43 43 39 32 29 28
25 15 26 33 34 31 30 31 31 30 30 37 28 25 29 40 35 35 35 32 33 37 40 42 46 48 47 46 43 41 40 41 42 41 40 39 40 44 44 44 41 35 29 28
13 16 21 25 23 24 26 28 24 23 22 18 23 21 31 31 28 31 26 28 31 34 39 42 46 47 46 45 43 42 40 42 45 43 40 39 41 45 45 46 44 36 29 27
19 23 20 25 28 25 20 23 29 27 23 18 13 14 16 24 30 25 23 25 30 34 37 41 43 43 46 46 45 43 42 43 44 40 40 39 42 45 46 47 47 36 29 27
27 27 25 29 27 23 27 24 30 24 25 12 9 15 23 24 24 22 24 29 30 33 35 38 40 42 45 46 47 42 42 43 43 42 42 42 44 45 48 50 49 37 30 27
17 16 17 15 24 26 21 17 20 23 20 22 17 12 22 22 19 18 23 26 30 29 31 34 38 42 45 46 48 46 44 43 46 45 43 43 44 44 50 51 49 37 30 28
20 19 19 20 19 21 25 23 23 24 24 16 22 21 27 25 26 23 23 22 23 26 31 35 37 39 42 43 43 43 42 43 45 47 45 43 44 45 53 52 49 37 31 29
28 21 21 19 16 13 18 20 21 22 21 19 12 17 15 24 26 22 21 23 24 29 34 36 37 39 40 39 40 44 44 45 45 44 42 41 45 48 55 53 47 39 33 30
5 8 24 16 20 21 17 15 19 21 19 19 18 20 21 20 21 22 21 23 25 31 34 36 36 39 41 42 43 46 47 43 45 43 43 48 54 55 55 52 44 38 36 31
12 13 14 15 6 13 15 18 18 18 20 23 28 18 35 25 21 23 23 24 26 31 35 37 39 42 43 45 48 49 46 47 37 39 43 49 54 55 53 46 43 37 37 34
15 13 12 13 12 14 13 14 15 15 17 18 16 23 23 20 19 22 23 24 26 31 38 39 41 44 49 46 42 39 32 29 36 39 43 50 51 46 44 46 44 38 36 37
17 17 14 14 10 13 17 15 16 20 22 19 20 20 21 22 20 22 23 25 28 30 35 35 37 41 39 32 30 31 33 35 34 36 45 47 47 48 48 49 38 39 38 36
16 14 15 14 16 15 16 17 20 22 23 20 22 23 21 20 20 22 25 29 32 31 32 34 36 36 38 38 33 35 35 28 33 37 45 46 46 44 45 43 38 39 39 36
18 17 12 12 16 15 16 18 21 22 25 24 24 22 22 23 22 24 24 25 29 29 31 31 26 26 28 30 33 34 37 34 37 37 43 47 47 43 33 32 36 38 38 38
12 13 13 14 14 20 20 19 16 20 16 25 25 23 23 23 23 23 23 24 24 26 27 28 23 20 20 17 20 28 37 44 36 37 38 36 44 39 35 34 35 37 38 43
6 8 9 14 14 17 18 19 20 18 27 21 25 26 23 22 21 20 20 23 24 25 23 20 17 16 11 5 9 11 42 39 45 41 43 51 45 42 39 36 37 40 31 35
10 14 6 15 7 16 19 20 29 19 14 23 23 19 19 18 17 18 19 19 20 19 15 13 15 15 11 4 5 6 14 36 38 37 35 49 51 48 43 42 45 51 31 18
15 15 17 14 14 11 19 17 15 12 16 17 17 17 17 16 17 17 18 19 17 14 15 8 5 9 13 11 11 12 10 15 31 31 34 25 20 22 30 38 29 31 29 27
13 14 18 19 16 14 14 15 18 13 14 17 17 18 19 20 20 19 18 18 15 16 13 12 7 4 8 9 3 13 13 12 15 29 26 31 34 33 31 33 29 26 25 26
12 11 14 20 14 16 12 14 14 16 17 17 16 14 14 16 15 16 19 18 18 17 21 14 13 11 10 12 10 3 11 16 14 14 22 29 32 34 29 28 27 28 28 28

GFSCGP_500_spd_114.txt.gz
Wind_Speed
81 83 91 86 76 69 60 61 61 60 63 60 49 64 61 58 63 60 58 54 50 51 52 49 49 45 46 48 42 39 39 35 32 29 32 34 35 30 36 35 33 33 32 33
66 70 78 78 73 69 62 60 59 52 55 41 52 53 61 50 67 63 58 60 54 49 50 50 48 50 50 52 45 42 43 39 36 32 32 36 36 33 36 37 34 32 31 34
44 47 53 69 70 65 61 61 57 51 48 51 43 53 58 62 61 63 62 60 57 54 51 49 50 53 53 49 45 46 44 42 39 36 33 36 33 35 36 35 36 34 34 32
21 15 37 56 67 48 56 52 51 45 50 52 47 53 60 60 59 59 59 64 62 61 53 51 50 56 53 44 46 47 44 40 40 37 37 35 34 36 37 37 36 36 36 31
18 23 27 28 52 45 43 36 36 44 51 55 55 56 48 54 55 57 59 55 53 61 53 53 56 56 52 49 48 48 43 41 42 42 40 37 36 37 37 38 36 35 38 33
11 13 16 16 20 32 29 36 38 45 50 53 44 47 49 52 54 52 49 49 48 60 61 60 59 57 53 51 52 48 45 43 42 42 42 39 37 35 36 39 37 35 37 35
9 17 18 32 24 36 39 42 43 44 46 39 40 39 37 36 30 34 33 24 36 54 61 60 62 51 54 55 53 50 47 43 44 43 41 39 37 36 37 39 39 34 36 35
12 8 24 21 33 36 42 39 40 42 41 36 30 32 30 27 22 21 30 45 47 48 48 39 51 58 59 54 52 52 48 45 44 42 39 38 37 36 36 37 35 32 34 35
7 6 14 22 25 26 32 31 23 24 24 20 23 22 22 21 26 35 38 40 31 36 37 44 53 55 48 47 51 51 47 44 43 40 38 37 39 35 36 38 35 32 34 36
6 1 9 25 19 20 18 18 28 24 16 15 13 15 18 23 32 32 29 32 38 37 38 40 45 48 41 42 45 47 45 42 42 39 38 37 41 39 39 37 37 33 35 39
22 3 18 11 21 21 20 22 25 22 22 12 12 13 18 16 31 29 33 39 33 35 35 31 30 30 38 42 42 41 42 41 42 41 41 36 40 39 38 38 38 35 36 39
18 18 10 13 9 16 20 21 25 25 26 21 14 15 17 16 22 30 40 30 32 25 23 30 34 35 39 40 39 39 41 39 41 39 40 40 39 41 39 40 40 39 37 39
14 15 20 10 14 19 22 22 20 23 19 21 24 20 23 21 30 26 18 20 20 27 27 29 31 31 34 37 38 38 39 41 40 42 42 43 42 43 41 41 39 41 40 40
14 14 15 9 13 20 21 19 21 24 27 17 13 26 22 21 26 23 20 21 22 22 25 25 26 27 29 33 35 37 40 39 39 40 40 42 43 41 42 42 40 43 41 40
12 20 10 12 10 13 15 24 25 24 20 26 17 14 18 25 29 28 12 15 20 22 23 22 23 25 29 31 34 36 37 37 39 39 40 40 39 41 36 37 41 44 43 41
22 10 11 5 11 3 11 18 19 14 17 21 24 24 21 17 30 27 18 20 20 22 22 21 23 24 26 29 33 35 38 39 42 43 45 43 43 42 43 42 46 47 43 41
16 13 12 10 12 6 12 7 7 9 9 10 26 20 24 35 16 19 23 20 21 21 21 22 25 27 29 32 36 38 42 44 45 45 46 45 44 44 46 49 49 46 43 42
16 12 13 11 8 8 14 12 13 15 23 25 28 28 28 26 20 19 21 22 21 21 22 25 27 29 31 36 41 43 44 47 47 42 36 33 36 39 39 41 43 42 42 42
14 16 14 11 11 11 12 13 14 16 19 18 17 20 24 23 22 22 21 21 22 23 25 25 27 29 33 37 39 38 37 39 38 43 36 30 33 37 36 39 41 44 44 45
10 10 14 15 14 15 19 14 16 19 20 22 27 22 24 24 24 25 25 24 23 24 24 27 30 32 30 34 37 39 37 31 33 37 29 25 26 33 35 40 44 44 45 44
9 15 16 14 16 19 18 18 18 21 25 28 22 27 28 26 26 25 25 25 24 25 26 26 25 28 30 33 30 35 31 27 31 29 29 23 26 31 41 41 40 42 48 59
7 10 11 13 17 19 23 25 22 20 29 26 16 26 26 27 25 25 26 25 25 26 25 26 26 28 27 25 25 16 12 17 35 43 37 30 34 32 32 35 34 48 46 38
13 12 10 8 10 9 20 19 23 27 19 33 25 22 22 24 23 21 20 21 22 24 25 23 20 22 21 22 18 14 9 10 27 41 42 42 37 44 39 43 47 44 39 36
11 15 18 17 15 13 11 16 23 20 14 23 24 25 26 24 21 21 21 23 23 22 21 17 16 10 6 5 8 9 8 5 6 23 33 45 54 57 46 51 54 46 42 41
13 15 18 20 22 21 17 13 16 19 12 16 16 17 18 18 20 21 22 23 23 20 18 17 18 16 10 10 9 10 6 7 7 4 24 29 32 40 41 38 44 42 48 47
17 16 16 19 20 21 18 20 18 16 19 17 14 15 18 18 18 19 22 22 20 19 19 19 22 18 16 15 13 12 8 5 8 12 12 14 23 30 32 34 36 36 35 34

GFSCGP_500_spd_117.txt.gz
Wind_Speed
83 85 90 79 74 80 80 84 77 69 63 63 61 60 60 61 55 56 55 52 53 55 52 51 51 46 43 41 42 43 39 37 33 28 31 35 36 35 30 34 31 30 28 31
71 78 62 57 56 64 74 80 83 72 63 53 46 48 52 52 57 56 55 55 55 56 56 53 48 50 48 45 45 45 38 37 38 35 29 34 38 37 30 33 36 31 30 31
41 19 29 42 45 52 66 70 79 72 59 45 40 43 46 52 49 51 56 55 57 56 55 55 49 51 47 46 47 47 41 40 42 37 34 34 38 36 31 33 36 36 34 32
9 12 25 25 21 39 60 62 65 55 52 44 46 47 41 44 45 50 48 51 55 49 48 46 53 56 51 51 48 48 46 44 44 40 38 34 34 34 34 36 37 36 35 32
12 18 17 21 24 25 44 51 54 42 45 52 51 44 41 45 49 47 49 48 46 53 55 48 53 62 55 49 51 54 45 46 45 44 41 37 34 32 34 37 37 38 38 32
21 5 8 12 1 10 17 36 27 28 43 50 45 46 38 38 34 35 37 37 40 50 45 44 48 52 62 57 52 50 46 49 46 43 42 39 37 33 34 38 40 39 38 33
7 6 12 4 8 32 35 29 29 34 42 37 38 38 34 36 38 41 42 44 45 53 52 60 57 59 64 59 58 55 52 43 43 46 43 43 40 37 34 36 40 38 37 32
14 21 7 10 4 29 27 21 27 27 32 30 41 42 31 32 32 34 42 42 45 48 49 57 58 56 58 61 56 57 49 51 45 47 45 44 44 39 37 37 38 36 34 30
17 13 19 18 6 24 26 22 24 30 23 30 29 27 24 24 30 34 35 38 38 43 40 42 40 37 40 47 52 51 53 53 51 46 47 45 44 42 37 38 37 35 32 30
15 13 7 12 14 14 19 18 20 25 20 16 16 16 20 33 24 29 37 45 38 43 42 37 33 38 41 41 44 49 52 52 49 48 48 46 44 39 41 38 37 36 32 33
9 14 8 14 14 10 13 19 24 26 22 15 15 20 32 35 30 32 34 35 36 43 42 41 42 38 36 38 44 45 48 47 44 43 43 43 42 36 43 39 39 39 35 34
9 15 12 5 5 7 17 16 23 20 15 19 18 16 24 31 31 33 32 36 30 38 45 31 32 34 36 35 40 50 51 49 48 42 40 43 40 38 42 40 39 41 38 34
11 14 11 6 6 7 6 17 19 16 11 18 17 9 23 21 28 30 33 34 25 24 25 27 37 33 32 34 34 36 37 38 36 38 39 37 36 38 40 40 40 41 38 37
14 14 10 7 9 16 19 20 19 15 20 15 19 14 19 22 27 19 32 29 18 23 28 35 38 28 23 26 28 32 35 40 36 36 36 39 43 42 44 42 42 44 42 39
14 15 10 10 8 5 22 21 24 24 22 21 18 24 26 19 16 40 28 22 22 26 29 29 23 24 26 27 27 29 31 35 34 37 39 40 42 42 40 41 43 42 42 42
15 6 8 8 8 13 15 21 25 25 26 23 29 17 19 22 21 16 28 27 20 14 20 22 23 26 25 25 28 31 29 32 36 38 38 39 39 40 39 38 38 41 40 43
10 6 6 5 8 14 6 12 11 18 22 26 30 19 25 22 23 11 25 15 13 16 20 21 23 24 24 25 25 25 29 31 34 35 38 39 39 40 41 41 42 41 43 45
8 7 6 3 4 1 6 16 11 11 8 18 26 20 22 26 23 20 11 18 17 19 20 20 22 24 24 25 27 28 30 32 35 37 40 43 46 45 43 44 46 48 50 48
4 7 7 6 6 7 4 5 11 13 10 11 16 21 22 31 28 22 13 17 20 20 21 22 24 25 25 28 30 31 34 37 38 39 41 43 41 34 32 32 38 45 47 48
5 9 7 8 10 10 9 9 10 15 17 17 18 20 25 25 22 21 20 21 21 23 25 26 26 27 27 26 29 32 35 38 39 41 39 40 34 33 32 29 34 36 37 37
2 9 11 11 12 13 12 13 12 17 18 19 20 11 16 23 23 24 24 24 25 26 27 27 27 27 26 27 29 29 32 30 34 33 29 29 30 24 25 30 35 35 35 37
14 10 10 13 15 14 17 19 19 18 21 21 24 28 24 24 23 26 26 27 28 28 26 26 24 23 26 27 28 29 28 29 28 31 27 24 31 28 24 26 34 34 35 36
6 8 12 13 11 12 18 20 19 23 26 24 20 21 29 26 25 22 24 27 26 24 23 22 22 22 21 20 21 24 28 23 24 15 18 32 39 39 25 26 32 37 30 36
8 9 11 14 17 18 12 10 14 18 21 23 30 25 29 31 27 29 26 25 24 23 23 22 21 20 18 17 17 16 14 14 13 13 10 14 33 38 41 31 33 39 42 39
15 15 13 14 17 15 17 16 16 16 16 17 17 20 29 32 28 24 24 23 22 22 22 21 19 20 19 20 19 18 18 13 9 6 2 9 16 30 38 36 40 46 49 39
17 14 15 18 19 18 17 18 21 20 21 19 19 19 20 20 17 19 19 20 19 19 18 19 19 19 19 22 23 24 24 14 11 9 6 5 8 19 29 38 46 47 41 39

GFSCGP_500_spd_120.txt.gz
Wind_Speed
77 81 83 89 85 81 84 87 89 87 79 81 84 81 69 68 63 63 61 62 62 58 54 55 51 50 46 39 39 40 37 37 33 28 28 33 33 35 31 29 32 32 32 31
79 77 73 75 71 59 59 66 73 77 77 76 85 77 72 69 65 59 56 57 57 55 56 56 53 52 49 45 42 41 39 40 37 34 31 34 37 35 33 30 30 30 33 34
69 59 57 47 32 39 40 40 48 65 63 67 67 77 72 65 61 61 60 57 55 54 52 55 53 52 50 48 48 47 45 45 42 40 37 35 35 33 35 34 32 34 38 37
51 37 38 34 41 44 43 36 38 53 56 52 50 46 65 66 57 55 52 53 49 51 51 53 55 54 51 51 52 48 47 45 44 44 41 38 37 37 35 37 37 37 37 38
14 22 32 31 33 40 38 32 29 37 42 36 46 50 41 40 45 51 44 39 40 47 52 51 48 54 57 56 55 56 46 41 50 44 45 39 36 37 34 34 38 38 38 39
17 26 32 29 26 28 23 15 14 22 35 46 41 42 43 38 30 35 36 33 34 41 49 50 53 51 52 53 55 57 53 47 48 45 45 42 41 38 36 36 37 38 39 41
22 24 31 23 19 9 9 13 19 27 33 31 29 39 34 32 33 26 33 34 40 46 53 51 42 45 50 49 50 51 52 55 52 51 46 48 48 42 39 36 39 39 40 42
27 20 15 13 15 3 12 17 19 18 18 21 25 20 33 38 31 34 38 49 49 61 48 53 48 45 47 47 50 49 51 52 51 50 45 47 49 47 44 38 39 40 40 40
25 15 17 19 14 4 14 9 16 8 16 16 18 24 27 33 37 34 41 44 51 55 58 57 54 51 51 48 49 52 55 56 51 48 48 48 50 49 50 42 40 41 41 40
21 23 22 5 9 10 7 8 9 9 3 13 15 17 26 25 29 31 34 37 44 43 47 49 52 51 55 58 60 62 61 63 62 57 49 48 52 50 50 43 41 43 42 40
19 20 18 5 9 8 15 11 7 7 6 9 11 16 21 24 26 29 28 30 40 46 43 47 56 55 47 47 52 51 50 49 46 47 44 45 52 51 51 47 45 46 43 41
18 14 16 12 8 5 10 15 19 17 10 2 14 18 25 25 25 24 32 33 29 44 47 47 48 40 36 33 36 42 40 44 42 46 42 42 47 49 47 46 45 47 44 41
13 16 14 7 17 6 15 12 14 13 11 7 16 20 18 31 34 33 27 37 33 38 43 39 41 39 38 42 44 38 41 43 46 51 42 43 45 44 40 43 49 46 44 41
16 14 16 10 16 13 7 21 15 12 12 6 13 9 8 18 22 29 35 27 29 34 18 30 35 39 39 38 43 42 46 46 46 40 37 36 35 38 41 41 41 43 42 41
13 12 12 4 10 8 11 17 16 15 12 7 10 9 7 3 14 12 19 40 37 28 21 21 22 28 32 34 38 37 32 33 33 35 35 36 36 38 38 39 42 41 41 40
6 7 4 3 5 10 11 16 19 20 17 22 16 11 3 9 19 18 25 21 27 23 18 20 20 19 22 22 26 29 35 38 33 34 34 34 36 39 41 41 43 42 43 43
7 7 6 7 6 12 8 8 17 19 21 22 23 18 16 9 16 19 18 15 23 25 22 19 18 19 20 23 25 29 32 34 37 38 35 38 40 41 42 41 41 41 40 41
9 11 10 8 5 1 4 10 22 13 12 11 26 21 21 20 13 13 11 17 13 16 15 17 20 23 25 27 30 30 31 33 33 32 35 39 40 42 42 41 41 40 41 41
2 10 10 10 10 3 4 2 9 10 6 1 8 19 17 14 18 21 19 13 12 14 16 21 23 25 28 30 30 30 31 33 32 32 34 36 39 41 41 42 44 48 48 48
1 3 7 10 11 12 10 10 6 7 9 10 11 14 13 11 19 20 21 19 15 15 17 19 21 24 26 29 29 30 32 33 34 36 37 39 39 41 43 45 47 46 45 48
4 6 9 11 12 12 13 13 12 12 10 12 14 16 16 17 12 16 18 17 17 19 22 24 24 24 27 28 30 33 34 36 38 39 38 42 43 41 42 38 35 29 33 40
9 10 6 9 14 14 12 16 17 18 18 15 16 17 19 24 24 18 20 20 22 25 26 27 26 28 28 28 29 31 32 33 34 34 32 35 36 33 34 28 25 28 30 36
7 6 6 9 9 9 12 13 17 20 18 19 21 21 21 23 23 23 21 22 22 23 26 28 28 27 26 26 28 26 24 24 27 27 25 25 27 29 27 30 29 32 30 34
20 15 12 12 13 15 15 16 13 10 15 18 19 21 22 25 23 25 28 27 25 28 26 27 26 25 23 24 23 24 23 22 22 24 21 24 21 27 33 33 30 29 30 33
23 24 22 21 18 17 17 18 17 16 16 14 16 18 20 20 24 28 27 27 30 27 26 25 24 23 22 21 20 23 24 23 25 28 19 17 19 12 19 34 37 35 35 37
26 23 19 16 16 19 19 19 19 17 17 18 18 21 22 20 20 24 26 28 24 22 21 20 19 18 19 17 17 17 19 25 26 18 16 14 7 4 11 20 34 33 41 42

GFSCGP_500_spd_123.txt.gz
Wind_Speed
57 61 66 72 81 86 90 93 98 97 89 96 98 99 100 88 87 81 74 68 63 67 65 65 62 60 58 50 42 38 40 38 38 38 36 32 32 31 32 32 33 33 34 32
61 67 73 78 82 79 81 86 77 58 54 58 74 95 96 91 91 89 78 72 66 64 69 67 63 61 59 56 48 40 41 39 38 36 34 33 35 33 34 36 36 33 33 34
63 69 73 73 61 47 47 48 49 58 47 54 57 65 83 84 87 90 85 71 68 62 66 69 71 70 66 64 57 47 42 43 42 41 38 34 37 41 41 36 36 35 35 37
63 59 55 36 31 46 40 44 53 56 61 64 56 68 65 63 74 79 82 73 65 62 63 68 72 74 75 70 62 59 48 48 46 47 44 42 41 48 43 43 41 33 37 39
46 42 34 30 37 47 50 49 48 58 51 46 45 53 44 28 38 65 68 63 55 60 61 65 68 70 67 63 62 64 50 49 50 50 48 49 50 50 44 40 34 36 39 42
33 29 28 35 43 36 34 37 44 36 30 35 16 35 18 19 15 39 36 41 50 55 58 62 62 60 63 60 60 57 48 49 49 49 47 46 50 42 36 34 35 37 38 41
23 24 28 36 34 31 36 32 18 20 14 13 4 10 15 14 15 29 47 45 42 44 48 53 57 59 56 57 57 52 52 50 51 53 51 49 52 45 41 39 39 39 40 41
20 21 27 33 39 28 21 17 18 12 14 9 8 6 21 20 20 27 40 45 44 38 37 40 41 44 48 48 52 51 49 48 49 48 46 46 50 48 46 43 45 41 43 44
28 21 20 28 24 13 6 13 15 8 8 6 3 3 10 21 19 26 39 44 41 39 45 44 44 46 47 48 50 49 46 45 45 45 42 41 43 46 50 52 50 46 49 42
26 23 20 21 14 9 11 10 13 18 13 4 1 8 11 17 22 17 12 19 44 46 39 42 46 46 45 47 48 47 46 48 46 45 46 47 48 49 49 51 55 47 47 46
25 24 17 17 11 10 10 13 13 13 11 1 4 4 9 17 21 21 20 25 27 29 35 42 46 46 54 52 54 52 51 53 54 52 53 54 55 59 60 62 60 54 47 49
19 17 15 14 3 3 11 15 19 16 12 5 9 6 13 13 22 23 24 28 29 30 34 35 40 47 55 46 51 50 50 52 52 57 57 63 66 63 63 64 60 58 52 49
13 14 15 10 15 16 12 17 14 14 17 13 8 4 14 20 16 24 30 34 36 36 36 38 43 45 43 47 47 49 52 50 50 43 49 44 41 47 52 51 54 54 52 50
17 11 12 8 11 13 9 16 20 15 15 9 2 11 9 21 23 20 31 29 25 27 27 30 31 32 40 40 36 34 33 35 37 40 40 44 47 45 44 44 46 45 48 48
14 10 8 4 2 11 12 11 19 18 17 5 2 4 6 4 15 20 37 33 34 28 33 31 38 34 33 40 39 39 41 42 43 44 46 47 40 43 44 42 42 42 46 47
12 16 10 4 6 5 14 11 19 16 15 12 14 3 7 11 11 9 4 19 20 25 40 36 19 24 19 20 20 28 33 35 41 44 46 44 39 37 39 42 45 41 41 39
12 14 14 11 9 5 5 6 11 12 13 16 17 12 6 7 7 7 11 2 10 15 22 23 19 20 25 19 20 22 25 26 31 31 34 35 39 36 36 37 36 40 39 40
12 12 12 11 2 4 3 4 6 4 13 10 13 12 13 16 10 10 4 3 3 7 16 14 16 18 20 21 22 23 26 28 32 31 33 34 34 37 38 43 40 37 38 39
10 9 10 10 11 4 1 3 4 10 6 14 6 5 9 7 10 10 15 11 10 7 10 11 16 18 20 23 26 28 30 33 34 35 36 35 35 36 36 38 39 36 36 36
5 7 8 10 11 15 15 15 13 13 9 10 10 8 6 7 8 7 8 12 16 17 19 17 19 20 22 24 25 27 30 33 34 35 35 35 35 34 34 37 39 39 40 41
7 7 10 11 12 12 15 16 14 14 13 12 12 12 11 11 12 12 8 10 11 12 15 18 22 25 27 27 26 28 30 32 33 35 37 36 37 38 38 37 39 40 42 45
17 13 11 8 9 13 13 16 16 17 17 18 17 17 16 14 15 18 18 14 14 15 17 20 22 24 24 26 28 31 32 32 35 38 38 39 38 40 41 41 43 46 46 48
18 17 8 6 7 9 10 12 12 14 18 20 19 19 21 21 21 21 21 20 20 21 20 19 18 21 26 28 29 30 32 33 34 37 36 39 42 41 43 42 45 45 40 39
20 22 22 18 15 10 10 13 15 18 18 16 15 18 20 21 23 24 23 24 26 27 27 27 27 30 33 32 30 30 31 32 33 32 31 26 28 34 34 37 39 37 36 36
21 22 24 24 23 22 22 23 22 20 18 19 20 18 17 17 18 20 23 23 27 26 27 27 29 29 29 29 28 29 29 30 30 29 32 33 33 29 26 27 32 37 37 35
23 24 24 23 22 20 19 17 17 19 21 21 22 23 23 22 21 19 22 26 25 23 22 22 23 26 24 24 24 23 23 24 23 23 21 24 30 25 20 20 19 31 42 37

GFSCGP_500_spd_126.txt.gz
Wind_Speed
44 47 51 54 57 61 66 73 77 77 79 87 93 96 96 89 99 96 95 93 86 73 66 74 74 70 69 69 66 59 46 39 39 40 39 37 35 37 36 35 36 36 34 34
47 49 53 57 62 66 70 77 77 78 75 80 92 102 94 93 103 105 105 103 99 89 75 72 77 75 71 70 67 62 48 42 40 40 39 39 38 38 38 38 39 39 36 38
47 51 56 61 67 70 69 60 55 58 60 54 64 71 70 67 72 71 73 86 99 97 81 74 78 79 74 72 68 62 54 47 44 41 43 40 41 39 39 40 37 38 40 45
48 53 57 61 63 60 55 43 49 52 58 62 51 67 68 64 69 71 70 66 74 93 87 75 76 79 75 71 69 66 61 53 48 46 45 42 39 40 40 43 44 47 48 47
50 54 55 53 43 36 33 39 40 44 22 33 23 40 35 16 7 10 31 50 47 74 76 72 75 78 76 72 70 68 64 59 52 47 44 43 44 44 46 49 48 49 54 50
47 45 40 37 30 33 34 39 40 25 32 35 37 37 23 16 7 5 10 16 23 47 62 68 71 77 75 72 67 66 65 61 57 49 48 49 50 52 52 52 59 56 51 39
27 23 28 28 24 32 38 37 24 22 33 31 25 25 20 12 16 6 11 14 23 38 49 59 66 72 72 73 71 69 70 67 64 60 56 54 56 53 53 51 51 47 53 47
15 23 24 19 26 28 33 26 26 32 35 27 23 26 14 28 26 9 13 20 20 28 42 54 55 61 67 65 64 67 65 63 64 62 52 55 58 57 53 53 53 53 43 38
15 21 21 16 20 24 25 24 23 32 34 34 26 27 25 25 24 14 18 18 19 25 41 43 48 56 59 64 60 61 59 54 53 50 52 56 57 56 53 51 52 53 55 43
15 14 17 11 16 19 19 22 22 27 37 31 20 20 27 18 20 20 4 18 28 24 25 35 43 47 52 55 58 53 52 55 53 52 50 50 48 49 47 45 42 40 42 43
17 16 17 16 15 12 16 17 21 24 29 30 25 31 10 11 8 6 10 5 20 27 29 32 36 41 46 50 54 54 53 52 52 50 45 43 44 41 41 43 43 43 43 46
20 19 15 13 6 15 16 19 19 21 20 26 27 14 12 12 9 8 8 4 12 26 31 24 36 40 41 45 43 44 46 45 45 48 48 44 47 49 49 51 50 50 51 52
25 22 15 15 12 13 20 23 14 18 20 18 18 23 9 8 9 6 13 10 7 13 15 20 36 26 31 35 44 51 51 47 47 47 51 52 52 52 55 56 53 58 63 57
15 21 19 12 14 10 17 15 13 14 17 17 11 18 7 4 12 15 14 17 22 25 20 21 20 25 27 36 35 37 36 37 43 46 42 45 45 44 46 43 42 48 56 57
20 22 19 12 9 12 19 13 15 12 12 17 12 12 9 7 8 9 4 23 17 21 19 24 24 23 23 23 28 32 34 36 32 28 30 32 36 38 37 40 43 47 50 52
25 23 16 17 7 5 15 16 16 17 11 12 12 16 7 14 12 8 11 6 14 16 33 34 37 40 33 39 37 33 38 36 34 33 31 28 35 43 47 47 47 43 42 47
22 16 10 18 9 2 4 8 7 5 4 6 9 8 10 16 13 11 10 2 5 5 18 22 40 43 24 19 14 18 28 32 28 28 27 34 29 34 34 37 41 44 45 39
19 13 7 11 4 9 8 8 7 3 5 4 5 4 7 7 9 7 10 9 9 5 1 14 14 12 8 10 16 18 19 18 22 23 27 30 33 35 33 32 32 33 36 40
16 13 7 7 11 6 5 6 5 3 5 6 13 11 10 8 9 8 9 10 13 9 7 5 5 6 8 12 14 18 19 23 26 28 29 31 32 33 34 33 31 32 33 33
11 11 10 8 13 18 15 13 12 13 10 9 10 10 9 9 7 4 5 7 8 8 4 6 9 10 12 14 16 19 21 24 27 29 30 31 33 35 35 34 31 32 33 35
15 11 11 12 11 15 19 19 18 14 13 11 11 12 12 11 9 10 9 9 9 10 10 11 14 15 17 18 20 23 26 29 31 32 32 33 34 39 41 37 37 36 33 33
18 17 15 13 13 11 12 14 17 16 15 16 17 17 17 17 16 14 13 13 12 14 14 14 15 17 19 20 21 23 25 27 29 30 32 36 36 39 44 44 42 42 39 36
19 18 17 15 11 12 13 12 13 14 16 15 13 15 19 20 21 21 21 20 19 19 19 20 21 19 19 21 23 26 29 30 34 34 36 39 41 42 45 49 49 45 45 41
20 20 21 20 20 19 19 20 20 21 21 20 19 18 18 18 20 21 22 23 25 25 25 25 26 27 28 28 29 32 34 37 37 38 38 39 42 44 45 47 50 52 48 47
21 21 22 24 24 22 19 17 17 19 19 21 22 22 23 23 22 20 20 21 23 25 24 27 28 30 34 35 34 36 35 34 33 35 35 35 34 37 40 36 36 43 45 42
24 22 22 23 23 23 21 20 19 18 17 17 20 22 26 27 28 27 26 25 25 24 25 26 27 25 28 29 28 29 31 33 32 33 33 32 31 32 34 34 36 34 29 36

GFSCGP_500_spd_129.txt.gz
Wind_Speed
42 41 43 43 45 47 51 53 55 56 64 71 73 78 77 77 86 92 91 91 89 85 75 76 70 69 70 73 72 71 68 61 54 46 42 41 40 36 36 37 37 38 36 35
39 40 42 43 44 48 53 56 61 57 66 73 72 76 79 85 95 103 107 106 105 100 91 88 83 76 76 73 74 75 71 65 57 48 44 41 40 41 38 40 39 39 39 39
38 39 41 43 46 49 55 59 61 64 63 62 64 59 71 56 70 85 84 86 95 105 108 100 97 83 81 81 76 76 73 68 60 49 46 44 45 44 38 36 37 39 41 42
36 39 41 44 47 50 58 55 49 43 42 45 40 51 34 22 29 33 35 43 51 71 86 97 99 90 87 86 84 81 75 72 63 52 48 46 47 43 37 38 40 41 45 48
36 38 41 46 50 52 47 42 27 30 23 24 28 35 16 26 35 44 52 45 39 39 50 71 69 76 90 86 86 84 78 71 65 58 49 47 49 46 41 40 43 46 49 51
34 37 41 44 40 40 35 23 30 26 20 22 29 33 18 40 44 42 35 25 25 25 32 57 62 61 88 83 83 82 77 73 67 60 52 51 49 49 45 44 47 49 51 51
33 34 35 35 33 28 25 27 29 17 19 27 34 30 37 39 39 45 32 20 19 12 21 34 40 53 79 77 77 78 76 74 69 63 55 53 51 51 48 51 51 52 52 53
27 26 23 25 24 20 21 23 24 20 26 21 32 34 37 35 27 37 31 26 13 5 4 23 41 47 55 68 74 74 74 70 69 62 57 53 52 54 54 53 52 54 55 57
18 19 18 19 16 16 17 21 24 23 20 26 24 34 37 27 22 28 27 18 5 8 12 22 33 42 40 49 61 64 67 66 66 59 60 58 57 56 53 55 57 58 58 57
10 10 15 18 21 19 17 21 19 19 22 30 29 38 32 25 19 22 14 14 12 15 14 23 31 30 35 38 56 49 61 65 65 60 61 60 56 54 56 58 55 57 59 58
6 8 14 19 21 19 14 15 18 18 19 27 37 40 33 24 13 21 16 8 2 10 13 15 25 27 27 36 47 61 39 39 52 62 62 51 55 47 53 51 50 53 54 52
12 15 17 23 22 21 18 17 20 19 18 19 29 21 23 18 11 18 16 8 10 11 17 18 21 25 30 35 39 47 54 59 49 41 41 45 45 46 44 42 41 42 42 42
12 16 16 21 22 22 18 14 18 13 10 13 17 16 16 14 12 15 15 8 4 8 18 16 22 27 32 35 37 41 44 47 49 50 51 48 45 43 43 46 43 41 41 47
16 20 22 24 24 22 18 10 10 9 6 6 14 15 15 11 5 12 16 9 15 21 15 11 12 21 30 37 31 33 41 39 45 51 50 42 42 43 48 41 45 48 50 52
19 24 28 27 20 17 12 11 7 7 15 11 13 14 15 14 21 15 10 13 18 20 19 20 12 12 14 26 31 37 37 45 37 29 23 33 43 48 47 41 39 38 42 49
20 25 29 12 13 5 7 8 7 8 10 9 7 13 15 18 20 21 16 10 7 19 22 24 25 28 22 17 20 28 35 28 27 26 28 34 36 32 27 26 29 35 37 42
20 23 16 5 7 6 9 4 7 4 3 5 9 7 8 14 17 13 16 15 6 11 15 23 26 25 26 25 22 25 26 28 29 31 28 29 32 28 27 30 28 31 33 39
19 19 13 4 3 4 5 6 2 2 0 2 4 8 9 9 8 9 9 13 16 11 2 10 20 30 19 25 33 28 32 21 20 21 21 20 23 25 25 27 30 28 32 35
16 16 13 6 6 15 10 5 4 3 5 8 11 6 7 8 6 6 6 7 10 13 10 12 6 7 4 5 6 9 8 11 16 14 18 22 25 26 27 28 28 27 28 32
15 15 12 9 9 13 16 18 19 16 12 11 11 9 7 6 8 8 8 6 7 7 6 5 3 4 5 6 6 8 10 13 15 17 20 22 24 25 26 28 29 30 32 33
14 14 14 12 13 14 13 16 15 15 13 14 15 15 13 12 10 11 10 10 10 10 10 10 8 9 11 13 15 15 18 18 20 21 23 22 23 30 31 32 32 33 35 36
15 15 15 14 12 12 12 12 12 9 9 11 13 15 16 16 16 17 17 17 15 14 14 15 15 15 15 16 17 16 18 19 19 21 23 26 28 30 33 36 39 40 40 41
15 16 16 17 16 16 15 14 12 12 11 14 15 17 18 16 14 17 19 20 21 22 22 20 19 21 21 22 22 23 23 24 25 25 27 30 32 33 36 39 42 45 46 47
17 18 19 19 20 20 19 20 22 23 24 19 19 21 21 22 23 21 19 21 23 23 24 25 28 28 29 29 29 30 31 32 32 34 35 36 35 38 44 45 46 49 52 53
19 20 21 22 22 23 23 22 21 18 19 18 18 18 20 23 28 28 29 27 25 24 26 28 29 30 31 32 34 36 37 36 36 37 36 36 36 36 36 40 47 51 54 53
22 21 21 22 23 23 23 21 21 21 21 21 21 21 20 17 17 21 28 33 33 32 30 29 30 31 30 30 31 33 34 36 36 35 34 34 35 37 34 34 36 39 41 39